[[{"header":{"parameterUnit":"m.s-1","parameterCategory":1,"la1":30.6,"la2":29.2853,"lo1":-89.7004,"lo2":-87.6739,"dx":0.0162,"dy":0.0183,"nx":112,"ny":82,"refTime":"2023-01-06T18:00:00:Z","depth":0,"parameterNumber":2,"parameterNumberName":"U-component_of_WINDS"},"data":[0.0,0.0,0.0,0.0,0.0,0.0,0.0,0.0,0.0,0.0,0.0,0.0,0.0,0.0,0.0,0.0,0.0,0.0,0.0,0.0,0.0,0.0,0.0,0.0,0.0,0.0,0.0,0.0,0.0,0.0,0.0,0.0,0.0,0.0,0.0,0.0,0.0,0.0,0.0,0.0,0.0,0.0,0.0,0.0,0.0,0.0,0.0,0.0,0.0,0.0,0.0,0.0,0.0,0.0,0.0,0.0,0.0,0.0,0.0,0.0,0.0,0.0,0.0,0.0,0.0,0.0,0.0,0.0,0.0,0.0,0.0,0.0,0.0,0.0,0.0,0.0,0.0,0.0,0.0,0.0,0.0,0.0,0.0,0.0,0.0,0.0,0.0,0.0,0.0,0.0,0.5491,0.4353,0.2248,0.0685,0.0059,0.0,0.0214,0.0753,0.0,0.0,0.0,0.0,0.0,0.0,0.0,0.0,0.0,0.0,0.0,0.0,0.0,0.0,0.0,0.0,0.0,0.0,0.0,0.0,0.0,0.0,0.0,0.0,0.0,0.0,0.0,0.0,0.0,0.0,0.0,0.0,0.0,0.0,0.0,0.0,0.0,0.0,0.0,0.0,0.0,0.0,0.0,0.0,0.0,0.0,0.0,0.0,0.0,0.0,0.0,0.0,0.0,0.0,0.0,0.0,0.0,0.0,0.0,0.0,0.0,0.0,0.0,0.0,0.0,0.0,0.0,0.0,0.0,0.0,0.0,0.0,0.0,0.0,0.0,0.0,0.0,0.0,0.0,0.0,0.0,0.0,0.0,0.0,0.0,0.0,0.0,0.0,0.0,0.0,0.0,0.0,0.0,0.0,0.0,0.0,0.0,0.0,0.0,0.0,0.0,0.0,0.0,0.0,0.4142,0.2715,0.1135,0.0117,0.0,0.0,0.0341,0.1166,0.0,0.0,0.0,0.0,0.0,0.0,0.0,0.0,0.0,0.0,0.0,0.0,0.0,0.0,0.0,0.0,0.0,0.0,0.0,0.0,0.0,0.0,0.0,0.0,0.0,0.0,0.0,0.0,0.0,0.0,0.0,0.0,0.0,0.0,0.0,0.0,0.0,0.0,0.0,0.0,0.0,0.0,0.0,0.0,0.0,0.0,0.0,0.0,0.0,0.0,0.0,0.0,0.0,0.0,0.0,0.0,0.0,0.0,0.0,0.0,0.0,0.0,0.0,0.0,0.0,0.0,0.0,0.0,0.0,0.0,0.0,0.0,0.0,0.0,0.0,0.0,0.0,0.0,0.0,0.0,0.0,0.0,0.0,0.0,0.0,0.0,0.0,0.0,0.0,0.0,0.0,0.0,0.0,0.0,0.0,0.0,0.0,0.0,0.0,0.0,0.0,0.0,0.0,0.3575,0.2961,0.1746,0.0641,0.0,0.0,0.0,0.0377,0.1236,0.1049,0.0,0.0,0.0,0.0,0.0,0.0,0.0,0.0,0.0,0.0,0.0,0.0,0.0,0.0,0.0,0.0,0.0,0.0,0.0,0.0,0.0,0.0,0.0,0.0,0.0,0.0,0.0,0.0,0.0,0.0,0.0,0.0,0.0,0.0,0.0,0.0,0.0,0.0,0.0,0.0,0.0,0.0,0.0,0.0,0.0,0.0,0.0,0.0,0.0,0.0,0.0,0.0,0.0,0.0,0.0,0.0,0.0,0.0,0.0,0.0,0.0,0.0,0.0,0.0,0.0,0.0,0.0,0.0,0.0,0.0,0.0,0.0,0.0,0.0,0.0,0.0,0.0,0.0,0.0,0.0,0.0,0.0,0.0,0.0,0.0,0.0,0.0,0.0,0.0,0.0,0.0,0.0,0.0,0.0,0.0,0.0,0.0,0.0,0.0,0.0,0.0,0.0,0.2884,0.1957,0.1189,0.0444,0.0,0.0,0.0158,0.0559,0.1244,0.1282,0.0,0.0,0.0,0.0,0.0,0.0,0.0,0.0,0.0,0.0,0.0,0.0,0.0,0.0,0.0,0.0,0.0,0.0,0.0,0.0,0.0,0.0,0.0,0.0,0.0,0.0,0.0,0.0,0.0,0.0,0.0,0.0,0.0,0.0,0.0,0.0,0.0,0.0,0.0,0.0,0.0,0.0,0.0,0.0,0.0,0.0,0.0,0.0,0.0,0.0,0.0,0.0,0.0,0.0,0.0,0.0,0.0,0.0,0.0,0.0,0.0,0.0,0.0,0.0,0.0,0.0,0.0,0.0,0.0,0.0,0.0,0.0,0.0,0.0,0.0,0.0,0.0,0.0,0.0,0.0,0.0,0.0,0.0,0.0,0.0,0.0,0.0,0.0,0.0,0.0,0.0,0.0,0.0,0.0,0.0,0.0,0.0,0.0,0.0,0.0,0.0,0.0,0.1752,0.1179,0.1111,0.0453,0.0,0.0,0.0643,0.1114,0.1296,0.1928,0.0,0.0,0.0,0.0,0.0,0.0,0.0,0.0,0.0,0.0,0.0,0.0,0.0,0.0,0.0,0.0,0.0,0.0,0.0,0.0,0.0,0.0,0.0,0.0,0.0,0.0,0.0,0.0,0.0,0.0,0.0,0.0,0.0,0.0,0.0,0.0,0.0,0.0,0.0,0.0,0.0,0.0,0.0,0.0,0.0,0.0,0.0,0.0,0.0,0.0,0.0,0.0,0.0,0.0,0.0,0.0,0.0,0.0,0.0,0.0,0.0,0.0,0.0,0.0,0.0,0.0,0.0,0.0,0.0,0.0,0.0,0.0,0.0,0.0,0.0,0.0,0.0,0.0,0.0,0.0,0.0,0.0,0.0,0.0,0.0,0.0,0.0,0.0,0.0,0.0,0.0,0.0,0.0,0.0,0.0,0.0,0.0,0.0,0.0,0.0,0.0,0.0,0.11,0.06,0.0,0.0156,0.0,0.0,0.0265,0.0643,0.1135,0.0,0.0,0.0,0.0,0.0,0.0,0.0,0.0,0.0,0.0,0.0,0.0,0.0,0.0,0.0,0.0,0.0,0.0,0.0,0.0,0.0,0.0,0.0,0.0,0.0,0.0,0.0,0.0,0.0,0.0,0.0,0.0,0.0,0.0,0.0,0.0,0.0,0.0,0.0,0.0,0.0,0.0,0.0,0.0,0.0,0.0,0.0,0.0,0.0,0.0,0.0,0.0,0.0,0.0,0.0,0.0,0.0,0.0,0.0,0.0,0.0,0.0,0.0,0.0,0.0,0.0,0.0,0.0,0.0,0.0,0.0,0.0,0.0,0.0,0.0,0.0,0.0,0.0,0.0,0.0,0.0,0.0,0.0,0.0,0.0,0.0,0.0,0.0,0.0,0.0,0.0,0.0,0.0,0.0,0.0,0.0,0.0,0.0,0.0,0.0,0.0,0.0,0.1158,0.0637,0.0194,0.0,0.0,0.0,0.0,0.02,0.055,0.1065,0.0,0.0,0.0,0.0,0.0,0.0,0.0,0.0,0.0,0.0,0.0,0.0,0.0,0.0,0.0,0.0,0.0,0.0,0.0,0.0,0.0,0.0,0.0,0.0,0.0,0.0,0.0,0.0,0.0,0.0,0.0,0.0,0.0,0.0,0.0,0.0,0.0,0.0,0.0,0.0,0.0,0.0,0.0,0.0,0.0,0.0,0.0,0.0,0.0,0.0,0.0,0.0,0.0,0.0,0.0,0.0,0.0,0.0,0.0,0.0,0.0,0.0,0.0,0.0,0.0,0.0,0.0,0.0,0.0,0.0,0.0,0.0,0.0,0.0,0.0,0.0,0.0,0.0,0.0,0.0,0.0,0.0,0.0,0.0,0.0,0.0,0.0,0.0,0.0,0.0,0.0,0.0,0.0,0.0,0.0,0.0,0.0,0.0,0.0,0.0,0.0,0.0,0.0889,0.038,0.0,0.0,0.0,0.0,0.0,0.0689,0.1103,0.0,0.0,0.0,0.0,0.0,0.0,0.0,0.0,0.0,0.0,0.0,0.0,0.0,0.0,0.0,0.0,0.0,0.0,0.0,0.0,0.0,0.0,0.0,0.0,0.0,0.0,0.0,0.0,0.0,0.0,0.0,0.0,0.0,0.0,0.0,0.0,0.0,0.0,0.0,0.0,0.0,0.0,0.0,0.0,0.0,0.0,0.0,0.0,0.0,0.0,0.0,0.0,0.0,0.0,0.0,0.0,0.0,0.0,0.0,0.0,0.0,0.0,0.0,0.0,0.0,0.0,0.0,0.0,0.0,0.0,0.0,0.0,0.0,0.0,0.0,0.0,0.0,0.0,0.0,0.0,0.0,0.0,0.0,0.0,0.0,0.0,0.0,0.0,0.0,0.0,0.0,0.0,0.0,0.0,0.0,0.0,0.0,0.0,0.0,0.0,0.0,0.0,0.0,0.0869,0.0369,0.0,0.0,0.0,0.0,0.0,0.0767,0.1146,0.0976,0.0,0.0,0.0,0.0,0.0,0.0,0.0,0.0,0.0,0.0,0.0,0.0,0.0,0.0,0.0,0.0,0.0,0.0,0.0,0.0,0.0,0.0,0.0,0.0,0.0,0.0,0.0,0.0,0.0,0.0,0.0,0.0,0.0,0.0,0.0,0.0,0.0,0.0,0.0,0.0,0.0,0.0,0.0,0.0,0.0,0.0,0.0,0.0,0.0,0.0,0.0,0.0,0.0,0.0,0.0,0.0,0.0,0.0,0.0,0.0,0.0,0.0,0.0,0.0,0.0,0.0,0.0,0.0,0.0,0.0,0.0,0.0,0.0,0.0,0.0,0.0,0.0,0.0,0.0,0.0,0.0,0.0,0.0,0.0,0.0,0.0,0.0,0.0,0.0,0.0,0.0,0.0,0.0,0.0,0.0,0.0,0.0,0.0,0.0,0.0,0.0,0.0,0.0847,0.0379,0.0,0.0,0.0,0.0,0.0,0.0806,0.1301,0.1249,0.0,0.0,0.0,0.0,0.0,0.0,0.0,0.0,0.0,0.0,0.0,0.0,0.0,0.0,0.0,0.0,0.0,0.0,0.0,0.0,0.0,0.0,0.0,0.0,0.0,0.0,0.0,0.0,0.0,0.0,0.0,0.0,0.0,0.0,0.0,0.0,0.0,0.0,0.0,0.0,0.0,0.0,0.0,0.0,0.0,0.0,0.0,0.0,0.0,0.0,0.0,0.0,0.0,0.0,0.0,0.0,0.0,0.0,0.0,0.0,0.0,0.0,0.0,0.0,0.0,0.0,0.0,0.0,0.0,0.0,0.0,0.0,0.0,0.0,0.0,0.0,0.0,0.0,0.0,0.0,0.0,0.0,0.0,0.0,0.0,0.0,0.0,0.0,0.0,0.0,0.0,0.0,0.0,0.0,0.0,0.0,0.0,0.0,0.0,0.0,0.0,0.0,0.0854,0.0387,0.0,0.0,0.0,0.0034,0.0101,0.094,0.1564,0.189,0.0,0.0,0.0,0.0,0.0,0.0,0.0,0.0,0.0,0.0,0.0,0.0,0.0,0.0,0.0,0.0,0.0,0.0,0.0,0.0,0.0,0.0,0.0,0.0,0.0,0.0,0.0,0.0,0.0,0.0,0.0,0.0,0.0,0.0,0.0,0.0,0.0,0.0,0.0,0.0,0.0,0.0,0.0,0.0,0.0,0.0,0.0,0.0,0.0,0.0,0.0,0.0,0.0,0.0,0.0,0.0,0.0,0.0,0.0,0.0,0.0087,0.0,0.0,0.0,0.0,0.0,0.0,0.0,0.0,0.0,0.0,0.0,0.0,0.0,0.0,0.0,0.0,0.0,0.0,0.0,0.0,0.0,0.0,0.0,0.0,0.0,0.0,0.0,0.0,0.0,0.0,0.0,0.0,0.0,0.0,0.0,0.0,0.0,0.0,0.0,0.0,0.0,0.0848,0.0364,0.0,0.0,0.0,0.0269,0.0973,0.1876,0.2518,0.2811,0.3845,0.0,0.0,0.0,0.0,0.0,0.0,0.0,0.0,0.0,0.0,0.0,0.0,0.0,0.0,0.0,0.0,0.0,0.0,0.0,0.0,0.0,0.0,0.0,0.0,0.0,0.0,0.0,0.0,0.0,0.0,0.0,0.0,0.0,0.0,0.0,0.0,0.0,0.0,0.0,0.0,0.0,0.0,0.0,0.0,0.0,0.0,0.0,0.0,0.0,0.0,0.0,0.0,0.0,0.0,0.0,0.0,0.0,0.0,0.0,0.0,0.0273,0.0,0.0,0.0,0.0,0.0,0.0,0.0,0.0,0.0,0.0,0.0,0.0,0.0,0.0,0.0,0.0,0.0,0.0,0.0,0.0,0.0,0.0,0.0,0.0,0.0,0.0,0.0,0.0,0.0,0.0,0.0,0.0,0.0,0.0,0.0,0.0,0.0,0.0,0.0,0.0,0.0863,0.0371,0.0,0.0,0.0,0.0337,0.124,0.2177,0.2937,0.3496,0.427,0.0,0.0,0.0,0.0,0.0,0.0,0.0,0.0,0.0,0.0,0.0,0.0,0.0,0.0,0.0,0.0,0.0,0.0,0.0,0.0,0.0,0.0,0.0,0.0,0.0,0.0,0.0,0.0,0.0,0.0,0.0,0.0,0.0,0.0,0.0,0.0,0.0,0.0,0.0,0.0,0.0,0.0,0.0,0.0,0.0,0.0,0.0,0.0,0.0,0.0,0.0,0.0,0.0,0.0,-0.0169,-0.0379,-0.0379,-0.038,-0.0367,-0.0022,0.0221,0.0328,0.0,0.0,0.0,0.0,0.0,0.0,0.0,0.0,0.0,0.0,0.0,0.0,0.0,0.0,0.0,0.0,0.0,0.0,0.0,0.0,0.0,0.0,0.0,0.0,0.0,0.3475,0.3741,0.0,0.0,0.0,0.0,0.0,0.0,0.0,0.0,0.0,0.0,0.0,0.0,0.0802,0.0352,0.0,0.0,0.0,0.0404,0.1441,0.2242,0.3145,0.4184,0.4494,0.4626,0.0,0.0,0.0,0.0,0.0,0.0,0.0,0.0,0.0,0.0,0.0,0.0,0.0,0.0,0.0,0.0,0.0,0.0,0.0,0.0,0.0,0.0,0.0,0.0,0.0,0.0,0.0,0.0,0.0,0.0,0.0,0.0,-0.1278,-0.0489,0.0,0.0,0.0,0.0,0.0,0.0,0.0,0.0,0.0,0.0,0.0,0.0,0.0,0.0,-0.0488,-0.1361,-0.1808,-0.1859,-0.1845,-0.1876,-0.1903,-0.1903,-0.1916,-0.1858,-0.1187,0.0,0.0071,0.0299,0.0,0.0,0.0,0.0,0.0,0.0,0.0,0.0,0.0,0.0,0.0,0.0,0.0,0.0,0.0,0.0,0.0,0.0,0.0,0.0,0.0,0.0,0.1675,0.3171,0.3484,0.3651,0.0,0.4044,0.3497,0.3196,0.0,0.0,0.0,0.0,0.0,0.0,0.0,0.0,0.0487,0.0183,0.0,0.0,0.0,0.0672,0.2377,0.2644,0.3413,0.5123,0.5251,0.5154,0.4862,0.4647,0.0,0.0,0.0,0.0,0.0,0.0,0.0,0.0,0.0,0.0,0.0,0.0,0.0,0.0,0.0,0.0,0.0,0.0,0.0,0.0,0.0,0.0,0.0,0.0,0.0,0.0,0.0,0.0,0.0,-0.2155,-0.1869,-0.1251,-0.1143,-0.1026,0.0,0.0,0.0,0.0,0.0,0.0,0.0,0.0,0.0,-0.0851,-0.1299,-0.1553,-0.1549,-0.1985,-0.2191,-0.2191,-0.2211,-0.2254,-0.235,-0.225,-0.2254,-0.235,-0.1914,-0.1525,-0.117,-0.022,0.0181,0.0206,0.0,0.0,0.0,0.0,0.0,0.0639,0.0739,0.0,0.0,0.0,0.0,0.0,0.0,0.0,0.0,0.0,0.0,0.0,0.0,0.0,0.0,0.2547,0.2769,0.2838,0.3209,0.303,0.2958,0.0,0.3061,0.2531,0.2064,0.0,0.0,0.0,0.0,0.051,0.0408,0.0156,0.0,0.0,0.0,0.074,0.2544,0.2711,0.348,0.5292,0.5395,0.5341,0.5194,0.4886,0.4821,0.0,0.0,0.0,0.0,0.0,0.0,0.0,0.0,0.0,0.0,0.0,0.0,0.0,0.0,0.0,0.0,0.0,0.0,0.0,0.0,0.0,0.0,0.0,0.0,0.0,0.0,0.0,0.0,-0.2339,-0.2406,-0.1876,-0.1941,-0.1885,0.0,0.0,0.0,0.0,0.0,0.0,-0.2199,-0.2206,-0.2195,-0.2204,-0.2395,-0.2491,-0.2508,-0.2727,-0.2852,-0.2852,-0.2878,-0.2956,-0.3114,-0.2952,-0.2958,-0.3082,-0.2748,-0.259,-0.2441,-0.0904,-0.0271,-0.024,0.0153,0.0291,0.0,0.0476,0.0324,0.0,-0.0025,-0.028,-0.0573,-0.0573,0.0,-0.0516,-0.032,0.0,0.0,0.0,0.0,0.037,0.0726,0.0,0.1016,0.1771,0.1947,0.197,0.2234,0.221,0.2409,0.0,0.2752,0.2099,0.1806,0.0,0.0,0.0,0.0,0.0368,0.0319,0.0127,0.0,0.0,0.0,0.0639,0.221,0.2577,0.338,0.4954,0.5259,0.5395,0.5395,0.5172,0.53,0.5859,0.0,0.0,0.0,0.0,0.0,0.0,0.0,0.0,0.0,0.0,0.0,0.0,0.0,0.0,0.0,0.0,0.0,0.0,0.0,0.0,0.0,0.0,0.0,0.0,0.0,0.0,0.0,0.0,0.0,-0.1874,-0.2018,0.0,0.0,0.0,0.0,-0.2183,-0.2184,-0.2207,-0.2206,-0.2194,-0.2192,-0.221,-0.2881,-0.3277,-0.3345,-0.4172,-0.4561,-0.4561,-0.4703,-0.4776,-0.4783,-0.4776,-0.4776,-0.4752,-0.4041,-0.3637,-0.3411,-0.1744,-0.1042,-0.098,-0.025,0.0024,-0.0068,-0.073,-0.0999,-0.1135,-0.1816,-0.2078,-0.2077,-0.2077,-0.2097,-0.2089,-0.2074,-0.1561,0.0,0.0,-0.0512,0.0027,0.006,0.0061,0.0278,0.1148,0.1257,0.1395,0.2296,0.2237,0.2068,0.0,0.2241,0.2081,0.1689,0.0,0.1282,0.0521,0.0408,0.0319,0.0063,0.0,0.0,0.0,0.0,0.037,0.1307,0.2177,0.3078,0.4015,0.4924,0.5395,0.5395,0.5397,0.5234,0.4967,0.4797,0.0,0.0,0.0,0.0,0.0,0.0,0.0,0.0,0.0,0.0,0.0,0.0,0.0,0.0,0.0,0.0,0.0,0.0,0.0,0.0,0.0,0.0,0.0,0.0,0.0,0.0,0.0,0.0,-0.3362,-0.3786,0.0,-0.3027,-0.3283,-0.3642,-0.4031,-0.4235,-0.4532,-0.5019,-0.5238,-0.5356,-0.5365,-0.5772,-0.6009,-0.6042,-0.635,-0.6508,-0.6508,-0.6552,-0.6622,-0.6705,-0.6617,-0.6328,-0.5852,-0.5487,-0.4991,-0.4351,-0.3285,-0.2432,-0.1777,-0.1507,-0.1405,-0.1457,-0.1707,-0.1804,-0.1838,-0.2103,-0.2202,-0.2202,-0.2202,-0.2204,-0.2193,-0.2193,-0.2023,-0.1819,-0.1812,-0.1712,-0.1622,-0.1616,-0.1677,-0.1663,-0.1349,-0.1309,-0.1269,-0.092,-0.0939,-0.1024,-0.0971,0.031,0.134,0.1292,0.0886,0.0474,0.0195,0.0149,0.0096,0.0,0.0,0.0,0.0,0.0,0.0337,0.124,0.1608,0.2444,0.3915,0.4317,0.4755,0.5362,0.5395,0.5756,0.657,0.6365,0.6107,0.0,0.0,0.0,0.0,0.0,0.0,0.0,0.0,0.0,0.0,0.0,0.0,0.0,0.0,0.0,0.0,0.0,0.0,0.0,0.0,0.0,0.0,0.0,0.0,0.0,0.0,-0.5843,-0.4849,-0.5319,-0.5408,-0.4569,-0.481,-0.5165,-0.5574,-0.5869,-0.6248,-0.6754,-0.7051,-0.7231,-0.7231,-0.7405,-0.7512,-0.7512,-0.7555,-0.7556,-0.7561,-0.7639,-0.7721,-0.7792,-0.7711,-0.7386,-0.6944,-0.6839,-0.6441,-0.5808,-0.5306,-0.4664,-0.3866,-0.273,-0.2297,-0.2322,-0.2491,-0.2565,-0.2619,-0.2871,-0.2982,-0.2982,-0.2982,-0.2982,-0.2982,-0.2982,-0.2788,-0.2571,-0.2572,-0.2488,-0.2395,-0.239,-0.2466,-0.2538,-0.2538,-0.2538,-0.2538,-0.2538,-0.2538,-0.2538,-0.2538,-0.1073,0.0182,0.0262,0.0124,0.0,0.0,0.0,0.0,0.0,0.0,0.0,0.0,0.0,0.0236,0.0806,0.1144,0.1812,0.3,0.3372,0.3961,0.4819,0.4696,0.5191,0.6366,0.6426,0.6097,0.5401,0.0,0.0,0.0,0.0,0.0,0.0,0.0,0.0,0.0,0.0,0.0,0.0,0.0,0.0,0.0,0.0,0.0,0.0,0.0,0.0,0.0,0.0,0.0,-0.6167,-0.6181,-0.6253,-0.6204,-0.6452,-0.6523,-0.6262,-0.6473,-0.663,-0.6663,-0.6976,-0.7157,-0.7185,-0.7427,-0.7582,-0.7582,-0.7588,-0.7593,-0.7593,-0.7741,-0.7783,-0.7783,-0.7978,-0.8091,-0.8091,-0.8091,-0.8059,-0.8027,-0.8027,-0.7931,-0.7721,-0.7721,-0.7629,-0.7205,-0.3933,-0.2669,-0.2718,-0.3253,-0.3405,-0.3489,-0.4298,-0.455,-0.4546,-0.4546,-0.457,-0.4574,-0.4546,-0.3984,-0.3365,-0.3331,-0.2838,-0.2273,-0.2282,-0.2271,-0.2273,-0.2273,-0.2273,-0.2273,-0.2273,-0.2273,-0.2273,-0.2273,-0.1802,-0.137,-0.1337,-0.0637,-0.0066,-0.0062,-0.0065,0.0,-0.0093,-0.0065,-0.0034,-0.0034,0.0,0.0,0.0,0.0776,0.1269,0.1285,0.2164,0.2985,0.375,0.3331,0.3443,0.421,0.4768,0.4664,0.3832,0.0,0.0,0.0,0.0,0.0,0.0,0.0,0.0,0.0,0.0,0.0,0.0,0.0,0.0,0.0,0.0,0.0,0.0,0.0,0.0,0.0,0.0,-0.7508,-0.6689,-0.7449,-0.7693,-0.6613,-0.702,-0.7252,-0.6883,-0.692,-0.7261,-0.8006,-0.8143,-0.8416,-0.8943,-0.9235,-0.9386,-0.9386,-0.9611,-0.9749,-0.9749,-0.9781,-0.9794,-0.9794,-0.9869,-0.9875,-0.9875,-0.9875,-0.9556,-0.8941,-0.8941,-0.8543,-0.793,-0.793,-0.7894,-0.7739,-0.659,-0.613,-0.6155,-0.6278,-0.5884,-0.5369,-0.6116,-0.5883,-0.53,-0.585,-0.6018,-0.5932,-0.5382,-0.5078,-0.4783,-0.4309,-0.4083,-0.4022,-0.4027,-0.4075,-0.4147,-0.4147,-0.4147,-0.4147,-0.4147,-0.4147,-0.4147,-0.4147,-0.3516,-0.2737,-0.2078,-0.1765,-0.1599,-0.1603,0.0,0.0,-0.1816,-0.1313,-0.0959,-0.0952,-0.0379,0.0,0.0,0.0216,0.0625,0.1255,0.1534,0.2089,0.2981,0.2869,0.337,0.4548,0.4497,0.4498,0.0,0.0,0.0,0.0,0.0,0.0,0.0,0.0,0.0,0.0,0.0,0.0,0.0,0.0,0.0,0.0,0.0,0.0,0.0,0.0,0.0,0.0,-0.7885,-0.8234,-0.8077,-0.8493,-0.8526,-0.7788,-0.8078,-0.8291,-0.8189,-0.8184,-0.842,-0.9014,-0.9162,-0.9409,-0.9837,-1.0147,-1.0301,-1.0301,-1.0506,-1.0593,-1.0593,-1.0593,-1.0593,-1.0593,-1.0593,-1.0593,-1.0593,-1.0593,-1.0333,0.0,-0.9849,-0.9556,-0.9096,-0.9096,-0.9096,0.0,0.0,0.0,0.0,0.0,-0.6962,-0.6497,-0.6781,-0.6469,-0.6036,-0.6453,-0.6588,-0.6529,-0.6091,-0.5733,-0.5487,-0.5414,-0.5218,-0.5039,-0.5039,-0.5084,-0.5071,-0.4783,-0.4728,-0.4728,-0.4728,-0.4728,-0.4728,-0.4728,0.0,0.0,-0.3245,-0.2624,-0.2191,-0.2194,-0.23,-0.2376,0.0,-0.1955,-0.1693,-0.1666,-0.1231,-0.0924,-0.0924,-0.0624,0.0,0.0,0.0,0.1056,0.1723,0.2072,0.0,0.0,0.0,0.0,0.0,0.0,0.0,0.0,0.4371,0.4597,0.0,0.0,0.0,0.0,0.0,0.0,0.0,0.0,0.0,0.0,0.0,0.0,0.0,0.0,0.0,0.0,-0.8546,-0.9214,-0.9795,-0.9473,-0.9253,-0.9425,-0.9515,-0.9624,-0.9845,-0.9872,-0.9856,-0.9809,-1.011,-1.0282,-1.0282,0.0,0.0,0.0,0.0,-1.0681,-1.0593,-1.0593,-1.0593,-1.0593,-1.0593,-1.0593,-1.0593,-1.0593,-1.0593,-1.0593,-1.0593,-1.0593,-1.0593,-1.0593,-1.0593,-1.0433,-0.8711,-0.8011,-0.7942,-0.76,-0.7385,0.0,0.0,0.0,0.0,-0.6831,-0.6858,-0.6831,-0.675,-0.6253,-0.5869,-0.6448,-0.6118,-0.5624,-0.5624,-0.5624,-0.546,-0.4869,-0.468,-0.4625,-0.4625,-0.4543,-0.4491,-0.4491,-0.4491,-0.4491,-0.4491,-0.3365,-0.2444,-0.2447,-0.247,0.0,-0.2486,-0.2397,-0.2358,-0.2372,0.0,0.0,-0.2188,-0.1602,-0.1237,-0.1234,-0.0613,-0.0133,0.0103,0.0865,0.133,0.1426,0.1499,0.1754,0.2202,0.2119,0.2062,0.2107,0.3014,0.3588,0.0,0.0,0.0,0.0,0.0,0.0,0.0,0.0,0.0,0.0,0.0,0.0,0.0,0.0,0.0,-0.8243,-0.9366,-1.0217,-1.0344,-1.0989,-1.1357,-1.1097,-1.1338,-1.1398,-1.1034,-1.0975,-1.083,-1.0461,-1.1074,-1.1459,-1.1459,-1.2143,0.0,-1.1593,-1.1562,-1.1257,-1.0624,-1.0593,-1.0593,-1.0593,0.0,0.0,-1.0593,-1.0593,-1.0593,-1.0593,-1.0593,-1.0593,-1.0593,-1.0593,-1.0593,-1.0555,-1.0198,-0.988,-0.9664,-0.9847,-0.9099,-0.8106,-0.8842,-0.8382,-0.7589,-0.8182,-0.8374,-0.8268,-0.767,-0.7396,0.0,-0.6723,-0.6507,-0.6394,-0.6394,-0.6394,-0.6367,-0.6236,-0.5737,-0.53,-0.53,-0.4869,-0.4491,-0.4491,-0.4491,-0.4491,-0.4491,-0.4256,-0.4048,-0.4049,-0.4152,-0.4212,-0.4215,-0.3692,-0.3343,-0.3318,-0.2645,-0.2189,-0.2189,-0.2066,-0.1991,-0.2002,-0.1852,-0.1749,-0.171,-0.0966,-0.0298,0.0297,0.0894,0.1532,0.2202,0.1613,0.1304,0.1331,0.2121,0.2181,0.0,0.0,0.0,0.0,0.0,0.0,0.0,0.0,0.0,0.0,0.0,-0.8335,0.0,0.0,-0.9482,-0.9897,-1.054,-1.1191,-1.1731,-1.2462,-1.2727,-1.2103,-1.2234,-1.2311,-1.2158,-1.216,-1.2049,-1.1834,-1.2174,-1.2389,-1.2389,-1.2787,-1.2826,-1.242,-1.2389,-1.202,-1.1202,-1.1195,-1.0982,-1.0593,-1.0593,-1.08,-1.1202,-1.0776,-1.0839,-1.1163,-1.0776,-1.0593,-1.0593,-1.0593,-1.0593,-1.0593,-1.0593,-1.0499,-1.0321,-1.0204,-0.9633,-0.8979,-0.918,-0.88,-0.8315,-0.8672,-0.8804,-0.8725,-0.8374,-0.7996,-0.7696,-0.7696,-0.7423,-0.7155,-0.7155,-0.7155,-0.7047,-0.6696,-0.6312,-0.6064,-0.6064,-0.5796,-0.5555,-0.5555,-0.5555,-0.5555,-0.5555,-0.5555,-0.5308,-0.4598,-0.4556,-0.4604,-0.4604,-0.4263,-0.405,-0.4058,-0.3624,-0.3345,-0.3345,-0.2982,-0.2603,-0.2222,-0.2193,-0.2202,-0.2202,-0.1857,-0.1477,-0.1113,-0.0752,-0.0556,-0.0553,-0.0912,-0.1295,-0.1648,-0.1265,-0.0908,0.0,0.0,0.0,0.0,0.0,0.0,0.0,-0.8358,-0.8604,-0.9438,-0.9862,-1.0154,-1.0431,-1.0731,-1.1071,-1.1449,-1.175,-1.225,-1.3104,-1.3745,-1.3859,-1.3223,-1.3136,-1.3168,-1.3218,-1.3213,-1.3161,-1.3009,-1.313,-1.3213,-1.3213,-1.3364,-1.3394,-1.3252,-1.3213,-1.2848,-1.205,-1.1896,-1.1469,-1.0832,-1.0832,-1.1163,-1.1772,-1.1296,-1.132,-1.1772,-1.1108,-1.0832,-1.0832,-1.0832,-1.0744,-1.0593,-1.0593,-1.0553,-1.0445,-0.997,-0.9659,-0.9452,-0.9038,-0.8851,-0.8804,-0.8804,-0.8804,-0.8804,-0.8804,-0.8374,-0.8049,-0.8646,-0.8374,-0.791,-0.791,-0.791,-0.7777,-0.7182,-0.6912,-0.6804,-0.6804,-0.6696,-0.6588,-0.6588,-0.6588,-0.6588,-0.6588,-0.6588,-0.6204,-0.5089,-0.4897,-0.4897,-0.4897,-0.4897,-0.4897,-0.4897,-0.4897,-0.4897,-0.4897,-0.4312,-0.3699,-0.3086,-0.3058,-0.3058,-0.3058,-0.2917,-0.2834,-0.2834,-0.2696,-0.2991,-0.3717,-0.3857,-0.4283,-0.4996,-0.5296,-0.4561,-0.9759,-0.9123,-0.8536,-0.8255,-0.8527,-0.9304,0.0,-1.0475,-1.0038,-1.1247,-1.1077,-1.0706,-1.0747,-1.113,-1.1449,-1.1491,-1.2639,-1.3566,-1.3697,-1.4582,-1.5197,-1.51,-1.51,-1.4827,-1.4145,-1.4064,-1.3765,-1.3039,-1.3666,-1.4064,-1.4064,-1.4746,-1.4805,-1.4094,-1.4064,-1.3666,-1.2879,-1.2174,-1.1741,-1.1679,-1.1679,-1.171,-1.1834,-1.2451,-1.2389,-1.1795,-1.171,-1.1679,-1.1679,-1.1679,-1.1226,-1.0593,-1.0593,-1.0432,-1.016,-1.0094,-0.9573,-0.8931,-0.9098,-0.8998,-0.8804,-0.8804,-0.8804,-0.8804,-0.8804,-0.8752,-0.8699,-0.8778,-0.8752,-0.8672,-0.8672,-0.8672,-0.8646,-0.856,-0.8049,-0.7584,-0.7584,-0.7074,-0.6588,-0.6588,-0.6588,-0.6588,-0.6588,-0.6588,-0.6561,-0.6399,-0.6372,-0.6372,-0.6372,-0.6372,-0.6372,-0.6372,-0.6372,-0.6372,-0.6372,-0.6285,-0.6199,-0.6118,-0.6118,-0.6118,-0.6118,-0.5485,-0.512,-0.512,-0.448,-0.449,-0.5169,-0.5828,-0.6489,-0.7196,-0.8501,-0.7987,-1.1701,-1.1176,-1.0669,-1.0556,-1.0688,-1.1065,-1.186,-1.1631,-1.1477,-1.228,-1.223,-1.2024,-1.2024,-1.2379,-1.2753,0.0,-1.3792,-1.4459,-1.4706,-1.5119,-1.541,-1.541,-1.541,-1.5264,-1.4932,-1.4903,-1.4746,-1.4421,-1.4717,-1.4903,-1.4903,-1.5235,-1.5264,-1.4903,-1.4903,-1.451,-1.3704,-1.3356,-1.2962,-1.2512,-1.2512,-1.2757,-1.3205,-1.3061,-1.2826,-1.2512,-1.2512,-1.2512,-1.2512,-1.2512,-1.2305,-1.2004,-1.2004,-1.1405,-1.0515,-1.0037,-0.9526,-0.9024,-0.8978,-0.8884,-0.8804,-0.8804,-0.8804,-0.8804,-0.8804,-0.8804,-0.8804,-0.8804,-0.8804,-0.8804,-0.8804,-0.8804,-0.8804,-0.8804,-0.856,-0.8348,-0.8348,-0.8103,-0.7883,-0.7883,-0.7883,-0.7883,-0.7883,-0.8217,-0.8468,-0.8468,-0.7412,-0.6588,-0.6588,-0.6945,-0.7351,-0.7785,-0.7811,-0.7811,-0.7811,-0.7811,-0.7811,-0.7811,-0.7811,-0.7811,-0.7811,-0.7524,-0.7374,-0.7374,-0.7067,-0.724,-0.7916,-0.8222,-0.8728,-0.9431,-1.0046,-1.0285,-1.246,-1.2285,-1.2174,-1.2047,-1.2227,-1.2389,-1.2389,-1.2389,-1.25,-1.2837,-1.2905,-1.2935,-1.3062,-1.3398,-1.3792,-1.4211,-1.4678,-1.5068,-1.5371,-1.541,-1.541,-1.541,-1.541,-1.541,-1.541,-1.541,-1.541,-1.541,-1.541,-1.541,-1.541,-1.541,-1.541,-1.541,-1.541,-1.5108,-1.454,-1.4293,-1.3914,-1.3334,-1.3334,-1.3636,-1.4183,-1.3606,-1.3455,-1.3644,-1.3433,-1.3334,-1.3334,-1.3334,-1.3191,-1.3009,-1.3009,-1.2325,-1.1264,-1.0358,-0.9637,-0.9064,-0.8878,-0.8804,-0.8804,-0.8804,-0.8804,-0.8804,-0.8804,-0.8804,-0.8804,-0.8804,-0.8804,-0.8804,-0.8804,-0.8804,-0.8804,-0.8804,-0.8804,-0.8804,-0.8804,-0.8804,-0.8857,-0.9035,-0.9087,-0.9133,-0.9309,-0.9762,-1.009,-1.009,-0.8744,-0.7768,-0.7768,-0.8173,-0.8697,-0.9228,-0.928,-0.928,-0.928,-0.928,-0.928,-0.928,-0.928,-0.928,-0.928,-0.928,-0.928,-0.928,-0.928,-0.9621,-1.0275,-1.047,-1.0847,-1.1384,-1.1566,-1.2052,-1.1309,-1.157,-1.2106,-1.1712,-1.225,-1.2886,-1.2886,-1.2886,-1.2886,-1.2905,-1.2905,-1.3032,-1.3408,-1.3802,-1.4231,-1.4697,-1.5117,-1.54,-1.541,-1.541,-1.541,-1.541,-1.541,-1.541,0.0,-1.541,-1.541,-1.541,-1.541,-1.541,-1.541,-1.541,-1.541,-1.541,-1.541,-1.5381,-1.5352,-1.4599,-1.4183,-1.4154,-1.4154,-1.4183,-1.4213,-1.4174,-1.4599,-1.5294,-1.451,-1.4154,-1.4154,-1.4154,-1.3696,-1.3009,-1.3009,-1.2816,-1.2414,-1.1285,-0.9985,-0.8818,-0.8811,-0.8804,-0.8804,-0.8804,-0.8804,-0.8804,-0.8804,-0.8804,-0.8804,-0.8804,-0.8804,-0.8804,-0.8804,-0.8804,-0.8804,-0.8804,-0.8804,-0.8804,-0.8804,-0.8804,-0.8982,-0.964,-0.9762,-0.9961,-1.0644,-1.0762,-1.0771,-1.0771,-1.0712,-1.0661,-1.0661,-1.0686,-1.0712,-1.0737,-1.0737,-1.0737,-1.0737,-1.0737,-1.0737,-1.0737,-1.0737,-1.0737,-1.0737,-1.0737,-1.0737,-1.0737,-1.0737,-1.1065,-1.1731,-1.2376,-1.2754,-1.2856,-1.3433,-1.3409,-1.2178,-1.2203,-1.2242,-1.2426,-1.269,-1.2905,-1.2905,-1.2905,-1.3017,-1.342,-1.3176,-1.3056,-1.3614,-1.3925,-1.4153,-1.4299,-1.4923,-1.541,-1.541,-1.541,-1.541,-1.541,-1.541,0.0,0.0,0.0,0.0,-1.541,-1.541,-1.541,-1.541,-1.541,-1.541,-1.541,-1.541,-1.541,-1.541,-1.5138,-1.4991,-1.4991,-1.4991,-1.4991,-1.4991,-1.4991,-1.5138,-1.5381,-1.5108,-1.4991,-1.4991,-1.4991,-1.4844,-1.4599,-1.4599,-1.3894,-1.2879,-1.2489,-1.1422,-1.0064,-0.9614,-0.9762,-1.0141,-1.0141,-1.0141,-1.0141,-1.0141,-0.9814,-0.9562,-0.9987,-0.9814,-0.9562,-1.0012,-1.0141,-1.0141,-1.0141,-1.0141,-1.0141,-1.0141,-1.0141,-1.0185,-1.0415,-1.0466,-1.0542,-1.0762,-1.1166,-1.1625,-1.2123,-1.1409,-1.0965,-1.1416,-1.1466,-1.1649,-1.2147,-1.2181,-1.2181,-1.2181,-1.2181,-1.2359,-1.2759,-1.2399,-1.2384,-1.2759,-1.2408,-1.2384,-1.2783,-1.2783,-1.3096,-1.3713,-1.3958,-1.4063,-1.4084,-1.4294,-1.4294,-1.25,-1.2418,-1.2311,-1.2773,-1.2905,-1.2905,-1.2905,-1.3065,-1.3324,-1.3732,-1.3647,-1.3699,-1.4251,-1.4398,-1.45,-1.466,-1.522,-1.5586,-1.543,-1.5547,-1.5586,-1.543,-1.541,-1.541,0.0,0.0,0.0,-1.541,-1.541,-1.541,-1.541,-1.541,-1.541,-1.541,-1.541,-1.541,-1.541,-1.541,-1.541,-1.541,-1.541,-1.541,-1.541,-1.541,-1.541,-1.541,-1.541,-1.541,-1.541,-1.541,-1.541,-1.541,-1.541,-1.4783,-1.3877,-1.3305,-1.2618,-1.1791,-1.0579,-1.044,-1.0788,-1.0788,-1.0788,-1.0788,-1.0788,-1.0491,-1.0244,-1.0686,-1.0491,-1.0261,-1.0695,-1.0788,-1.0788,-1.0788,-1.0788,-1.0788,-1.0788,-1.0788,-1.0864,-1.1116,-1.1166,-1.1241,-1.1509,-1.1907,-1.2344,-1.2832,-1.2132,-1.1708,-1.2138,-1.2187,-1.2369,-1.2856,-1.2905,-1.2905,-1.2905,-1.2905,-1.3152,-1.3755,-1.3443,-1.3491,-1.4097,-1.3742,-1.3718,-1.412,-1.412,-1.4306,-1.4698,-1.4926,-1.4903,-1.4698,-1.4698,-1.4583,-1.2233,-1.2242,-1.234,-1.2783,-1.2929,-1.2954,-1.2954,-1.344,-1.3894,-1.3865,-1.4295,-1.4809,-1.5164,-1.5164,-1.5211,-1.5558,-1.5904,-1.5939,-1.5469,-1.5762,-1.5909,-1.5459,-1.541,-1.541,-1.541,0.0,0.0,-1.541,0.0,-1.541,-1.541,-1.541,-1.541,-1.541,-1.541,-1.541,-1.541,-1.541,-1.541,-1.541,-1.541,-1.541,-1.541,-1.541,-1.541,-1.541,-1.541,-1.541,-1.541,-1.541,-1.541,-1.541,-1.541,-1.54,-1.5187,-1.3737,-1.3557,-1.3763,-1.1678,-1.0906,-1.0914,-1.0914,-1.0914,-1.0914,-1.0914,-1.0889,-1.0864,-1.0897,-1.0889,-1.0864,-1.0897,-1.0914,-1.0914,-1.0914,-1.0914,-1.0914,-1.0914,-1.0914,-1.1091,-1.174,-1.1864,-1.208,-1.2774,-1.2905,-1.2905,-1.2954,-1.2954,-1.292,-1.2905,-1.2905,-1.2905,-1.2954,-1.2954,-1.2954,-1.3002,-1.2992,-1.3238,-1.3839,-1.3862,-1.412,-1.4721,-1.4732,-1.4698,-1.4744,-1.4744,-1.4766,-1.4789,-1.5365,-1.5343,-1.4789,-1.4789,-1.4468,-1.2627,-1.2715,-1.2744,-1.2876,-1.3238,-1.3576,-1.3576,-1.4352,-1.4975,-1.4628,-1.4631,-1.4631,-1.4377,-1.4822,-1.5095,-1.4655,-1.5598,-1.6168,-1.5488,-1.5508,-1.5537,-1.542,-1.541,-1.541,-1.541,-1.541,0.0,0.0,-1.541,-1.541,-1.541,-1.541,-1.541,-1.541,-1.541,-1.541,-1.541,-1.541,-1.541,-1.541,-1.541,-1.541,-1.541,-1.541,-1.541,-1.541,-1.541,-1.541,-1.541,-1.541,-1.541,-1.541,-1.541,-1.5215,-1.4922,-1.4493,-1.4048,-1.3581,-1.3017,-1.2617,-1.2363,-1.2363,-1.2363,-1.2363,-1.2363,-1.199,-1.1674,-1.2206,-1.1965,-1.1665,-1.223,-1.2363,-1.2363,-1.2363,-1.2363,-1.2363,-1.2363,-1.2363,-1.2412,-1.2593,-1.2608,-1.2691,-1.2881,-1.2905,-1.3065,-1.3505,-1.3576,-1.342,-1.2954,-1.2905,-1.3065,-1.3529,-1.3576,-1.3766,-1.4201,-1.4247,-1.4491,-1.5107,-1.471,-1.4744,-1.5343,-1.4949,-1.4903,-1.5365,-1.5365,-1.5599,-1.6042,-1.6194,-1.6194,-1.6042,-1.6042,-1.5722,-1.2837,-1.2905,-1.2968,-1.3238,-1.3552,-1.381,-1.3839,-1.4552,-1.4967,-1.4211,-1.4441,-1.455,-1.379,-1.4521,-1.5143,-1.479,-1.5624,-1.6212,-1.5923,-1.5782,-1.5625,-1.543,-1.541,-1.541,-1.541,-1.541,-1.541,0.0,-1.541,-1.541,-1.541,-1.541,-1.541,-1.541,-1.541,-1.541,-1.541,-1.541,-1.541,-1.541,-1.541,-1.541,-1.541,-1.541,-1.541,-1.541,0.0,-1.541,-1.541,-1.541,-1.541,-1.541,-1.541,-1.5264,-1.5039,-1.4882,-1.4482,-1.4014,-1.3633,-1.335,-1.3125,-1.2964,-1.2905,-1.2905,-1.2905,-1.2618,-1.2369,-1.2774,-1.2608,-1.2369,-1.2798,-1.3113,-1.3238,-1.2968,-1.3296,-1.361,-1.3348,-1.3286,-1.3286,-1.3286,-1.3515,-1.3681,-1.3681,-1.3681,-1.3789,-1.4143,-1.419,-1.4084,-1.3729,-1.3681,-1.3813,-1.4167,-1.419,-1.4329,-1.4675,-1.4698,-1.4971,-1.5565,-1.5276,-1.5377,-1.5974,-1.5678,-1.5656,-1.5986,-1.5986,-1.6173,-1.65,-1.65,-1.65,-1.6488,-1.6238,-1.593,-1.2905,-1.2905,-1.3041,-1.3637,-1.3862,-1.3932,-1.3994,-1.4499,-1.4571,-1.335,-1.3943,-1.4356,-1.3303,-1.4225,-1.5209,-1.5368,-1.5844,-1.6265,-1.6477,-1.6225,-1.587,-1.5459,-1.541,-1.541,-1.541,-1.541,-1.541,-1.541,-1.541,-1.541,-1.541,-1.541,-1.541,-1.541,-1.541,-1.541,-1.541,-1.541,-1.541,-1.541,-1.541,-1.541,-1.541,-1.541,-1.541,-1.541,0.0,0.0,-1.541,-1.541,-1.541,-1.541,-1.541,-1.541,-1.5371,-1.5,-1.4862,-1.4678,-1.3936,-1.3603,-1.3437,-1.3042,-1.2905,-1.2905,-1.2905,-1.2905,-1.2929,-1.2992,-1.3017,-1.3041,-1.3113,-1.3539,-1.3779,-1.3262,-1.3931,-1.4571,-1.4027,-1.3909,-1.3909,-1.3909,-1.4329,-1.4698,-1.4698,-1.4698,-1.4721,-1.4812,-1.4812,-1.4858,-1.4926,-1.4789,-1.4721,-1.4812,-1.4812,-1.4858,-1.4926,-1.4926,-1.5175,-1.5688,-1.572,-1.5952,-1.6466,-1.65,-1.65,-1.65,-1.65,-1.65,-1.65,-1.65,-1.65,-1.65,-1.5886,-1.5632,-1.2905,-1.2905,-1.3041,-1.3637,-1.4167,-1.4552,-1.4615,-1.5102,-1.5082,-1.3506,-1.3341,-1.3303,-1.2663,-1.3865,-1.5052,-1.5348,-1.6126,-1.665,-1.6525,-1.5934,-1.5498,-1.542,-1.541,-1.541,-1.541,-1.541,0.0,0.0,0.0,-1.541,-1.541,-1.541,-1.541,-1.541,-1.541,-1.541,-1.541,-1.541,-1.541,-1.541,-1.541,-1.541,-1.541,-1.541,-1.541,-1.541,0.0,0.0,-1.541,-1.541,-1.541,-1.541,-1.541,-1.541,-1.54,-1.5332,-1.5078,-1.4793,-1.4619,-1.4102,-1.3437,-1.3042,-1.2905,-1.2905,-1.2905,-1.2905,-1.2992,-1.3505,-1.3637,-1.3755,-1.4271,-1.4479,-1.4514,-1.441,-1.4548,-1.4675,-1.456,-1.4537,-1.4537,-1.4537,-1.4629,-1.4698,-1.4698,-1.4698,-1.488,-1.5365,-1.5432,-1.561,-1.6129,-1.531,-1.4903,-1.5387,-1.5432,-1.5644,-1.6151,-1.6185,-1.6216,-1.6337,-1.6324,-1.6402,-1.65,-1.65,-1.65,-1.65,-1.65,-1.65,-1.65,-1.65,-1.65,-1.65,-1.5886,-1.5864,-1.3286,-1.3372,-1.36,-1.4503,-1.496,-1.51,-1.4893,-1.4863,-1.4393,-1.2718,-1.2363,-1.2099,-1.1261,-1.2631,-1.4089,-1.4619,-1.5672,-1.6457,-1.6618,-1.6269,-1.5835,-1.5439,-1.541,-1.541,-1.541,-1.541,-1.541,0.0,0.0,0.0,-1.541,-1.541,-1.541,-1.541,-1.541,-1.541,-1.541,-1.541,-1.541,-1.541,-1.541,-1.541,-1.541,-1.541,-1.541,-1.541,-1.541,0.0,-1.541,-1.541,-1.541,-1.541,-1.541,-1.5283,-1.5107,-1.5332,-1.5146,-1.4784,-1.4521,-1.4393,-1.4236,-1.3571,-1.3372,-1.3372,-1.3372,-1.3586,-1.3907,-1.4201,-1.426,-1.4329,-1.4629,-1.4926,-1.5085,-1.4766,-1.4949,-1.5233,-1.5522,-1.5856,-1.6088,-1.6068,-1.6315,-1.6418,-1.6144,-1.6108,-1.6102,-1.6066,-1.6073,-1.6173,-1.6466,-1.5986,-1.5744,-1.603,-1.6073,-1.6194,-1.6479,-1.65,-1.65,-1.65,-1.65,-1.65,-1.65,-1.65,-1.65,-1.65,-1.65,-1.65,-1.65,-1.65,-1.65,-1.65,-1.5886,-1.5754,-1.3873,-1.398,-1.4249,-1.5343,-1.561,-1.5442,-1.4848,-1.4293,-1.3443,-1.1738,-1.1326,-1.105,-1.0383,-1.16,-1.307,-1.4244,-1.5151,-1.6,-1.6912,-1.6618,-1.6162,-1.568,-1.5497,-1.541,-1.541,-1.541,0.0,0.0,0.0,0.0,-1.541,-1.541,-1.541,-1.541,-1.541,-1.541,-1.541,-1.541,-1.541,-1.541,-1.541,-1.541,-1.541,-1.541,-1.541,-1.541,-1.541,0.0,0.0,-1.541,-1.541,-1.54,-1.5312,-1.5127,-1.4941,-1.5078,-1.499,-1.4745,-1.4422,-1.459,-1.4861,-1.4302,-1.4065,-1.398,-1.398,-1.4329,-1.4721,-1.4858,-1.4903,-1.4926,-1.5039,-1.5444,-1.5712,-1.5359,-1.5725,-1.6279,-1.6688,-1.7193,-1.7561,-1.7508,-1.787,-1.8066,-1.7639,-1.7574,-1.74,-1.6948,-1.6851,-1.6851,-1.6851,-1.6851,-1.6814,-1.6722,-1.6575,-1.65,-1.65,-1.65,-1.65,-1.65,-1.65,-1.65,-1.65,-1.65,-1.65,-1.65,-1.65,-1.65,-1.65,-1.65,-1.65,-1.65,-1.5886,-1.561,-1.4606,-1.4617,-1.4789,-1.5432,-1.561,-1.5358,-1.438,-1.3704,-1.2814,-1.1119,-1.0394,-1.0345,-1.1276,-1.1608,-1.2564,-1.5141,-1.5088,-1.5449,-1.7505,-1.662,-1.5939,-1.6355,-1.5806,-1.541,-1.541,-1.541,0.0,0.0,0.0,0.0,0.0,-1.541,-1.541,-1.541,-1.541,-1.541,-1.541,-1.541,-1.541,-1.541,-1.541,-1.541,-1.541,-1.541,-1.541,-1.541,0.0,0.0,0.0,-1.541,-1.541,-1.5371,-1.499,-1.5049,-1.5264,-1.4494,-1.4473,-1.4828,-1.4957,-1.4763,-1.4552,-1.502,-1.4915,-1.4617,-1.4617,-1.4663,-1.4812,-1.5365,-1.5521,-1.5632,-1.6194,-1.638,-1.6539,-1.7028,-1.7561,-1.7959,-1.8009,-1.8069,-1.8118,-1.812,-1.8157,-1.8191,-1.8141,-1.8129,-1.8116,-1.8053,-1.8053,-1.8053,-1.8053,-1.8053,-1.7852,-1.7373,-1.6835,-1.65,-1.65,-1.65,-1.65,-1.65,-1.65,-1.65,-1.65,-1.65,-1.65,-1.65,-1.65,-1.65,-1.65,-1.65,-1.65,-1.65,-1.5886,-1.561,-1.5141,-1.5231,-1.5399,-1.5986,-1.6139,-1.5775,-1.4419,-1.3634,-1.2722,-1.1059,-1.0269,-1.0144,-1.0908,-1.1059,-1.1864,-1.4349,-1.475,-1.5148,-1.6232,-1.6474,-1.6447,-1.6238,-1.6213,-1.638,0.0,0.0,0.0,0.0,0.0,0.0,0.0,-1.5642,-1.541,-1.541,-1.541,-1.541,-1.541,-1.541,-1.541,-1.541,-1.541,-1.541,-1.541,-1.541,-1.541,-1.541,0.0,0.0,0.0,-1.5781,-1.592,-1.571,-1.5909,-1.5945,-1.5818,-1.5394,-1.5194,-1.5103,-1.52,-1.5361,-1.5536,-1.5499,-1.5631,-1.5722,-1.5354,-1.5488,-1.5905,-1.6512,-1.6677,-1.6796,-1.737,-1.7526,-1.7589,-1.7827,-1.8041,-1.8292,-1.8607,-1.8669,-1.877,-1.9108,-1.9158,-1.907,-1.8732,-1.8669,-1.8556,-1.8254,-1.8204,-1.8204,-1.8204,-1.8204,-1.8129,-1.7903,-1.7677,-1.7262,-1.655,-1.6835,-1.6886,-1.6525,-1.65,-1.65,-1.65,-1.65,-1.65,-1.65,-1.65,-1.65,-1.65,-1.65,-1.65,-1.6479,-1.5511,-1.505,-1.5754,-1.5864,-1.5974,-1.6402,-1.65,-1.6024,-1.4243,-1.3509,-1.2672,-1.0845,-1.0156,-1.0069,-1.0593,-1.0694,-1.1385,-1.3488,-1.4155,-1.4663,-1.5365,-1.6126,-1.6391,-1.5818,-1.6236,-1.6607,0.0,0.0,0.0,0.0,0.0,0.0,0.0,-1.633,-1.594,-1.5719,-1.5719,-1.5835,-1.6054,-1.5633,-1.5497,-1.5719,-1.5497,-1.541,-1.541,-1.541,-1.541,-1.541,0.0,0.0,0.0,-1.6107,-1.6377,-1.6203,-1.6693,-1.6666,-1.633,-1.5989,-1.563,-1.5296,-1.5365,-1.5707,-1.6089,-1.6111,-1.6419,-1.671,-1.6447,-1.6542,-1.6898,-1.7463,-1.7626,-1.7714,-1.8103,-1.8329,-1.8455,-1.8455,-1.8712,-1.9073,-1.9443,-1.952,-1.9709,-2.0256,-2.022,-1.9991,-1.9608,-1.952,-1.9343,-1.8756,-1.8681,-1.8681,-1.8681,-1.8681,-1.8618,-1.8455,-1.8593,-1.8166,-1.6873,-1.7149,-1.7137,-1.6538,-1.65,-1.65,-1.65,-1.65,-1.65,-1.65,-1.65,-1.65,-1.65,-1.65,-1.65,-1.6466,-1.5634,-1.5039,-1.65,-1.65,-1.65,-1.65,-1.65,-1.5923,-1.3699,-1.3198,-1.2572,-1.037,-0.9905,-1.0069,-1.0593,-1.0694,-1.1245,-1.2935,-1.321,-1.3779,-1.5367,-1.55,-1.5371,-1.5222,-1.5683,-1.5708,-1.4913,0.0,0.0,0.0,0.0,0.0,0.0,-1.7578,-1.7246,-1.651,-1.6492,-1.6838,-1.7578,-1.613,-1.5787,-1.6492,-1.5748,-1.541,-1.541,-1.541,-1.541,0.0,0.0,0.0,0.0,-1.6276,-1.6616,-1.6788,-1.6942,-1.6905,-1.6692,-1.582,-1.5413,-1.5324,-1.5518,-1.5599,-1.5794,-1.6995,-1.7398,-1.7498,-1.8016,-1.7802,-1.7511,-1.8041,-1.8191,-1.8191,-1.8204,-1.8581,-1.8995,-1.8995,-1.9896,-2.0782,-2.0795,-2.0795,-2.0955,-2.1568,-2.121,-2.0795,-2.0795,-2.0795,-2.0534,-1.9888,-1.9786,-1.9786,-1.9786,-1.9786,-1.9585,-1.9045,-1.9472,-1.9133,-1.7536,-1.741,-1.7137,-1.6538,-1.65,-1.65,-1.65,-1.65,-1.65,-1.65,-1.65,-1.65,-1.65,-1.65,-1.65,-1.65,-1.65,-1.5832,-1.5957,-1.5957,-1.5869,-1.5512,-1.5412,-1.4915,-1.3065,-1.2651,-1.2137,-1.0282,-0.9905,-1.0069,-1.0593,-1.0407,-1.1086,-1.3898,-1.4054,-1.4387,-1.5991,-1.6848,-1.7164,-1.674,-1.7834,-1.8494,0.0,0.0,0.0,0.0,0.0,0.0,0.0,0.0,-1.8528,-1.7302,-1.7246,-1.7357,-1.7605,-1.7135,-1.6782,-1.6492,-1.6782,-1.6641,-1.6179,-1.6659,0.0,0.0,0.0,0.0,0.0,-1.7447,-1.767,-1.723,-1.8037,-1.8115,-1.7678,-1.7035,-1.6502,-1.6177,-1.6677,-1.6841,-1.695,-1.7706,-1.794,-1.8053,-1.8569,-1.8356,-1.8053,-1.8606,-1.9327,-1.9976,-1.9976,-2.0106,-2.0335,-2.0759,-2.0822,-2.0906,-2.1318,-2.1414,-2.1472,-2.1649,-2.1544,-2.1414,-2.1414,-2.1414,-2.1328,-2.1135,-2.111,-2.111,-2.111,-2.0744,-2.0407,-2.0238,-1.9978,-1.9145,-1.7549,-1.7727,-1.7539,-1.655,-1.65,-1.65,-1.65,-1.65,-1.65,-1.65,-1.65,-1.65,-1.65,-1.65,-1.6281,-1.5864,-1.5466,-1.4835,-1.5236,-1.5399,-1.5324,-1.4972,-1.4752,-1.4205,-1.2743,-1.2241,-1.1676,-1.0207,-0.9905,-1.0006,-1.0344,-1.0294,-1.096,-1.3275,-1.3715,-1.4237,-1.5656,-1.6831,-1.7601,-1.7689,-1.8326,0.0,0.0,0.0,0.0,0.0,0.0,0.0,0.0,0.0,-1.9371,-1.8474,-1.8167,-1.814,-1.8421,-1.7879,-1.7495,-1.733,-1.7523,-1.7357,-1.6922,-1.7385,0.0,0.0,0.0,0.0,0.0,-1.8186,-1.8408,-1.8044,-1.8946,-1.8832,-1.8191,-1.8053,-1.7375,-1.6613,-1.7426,-1.7574,-1.7524,-1.8267,-1.8812,-1.9235,-1.958,-1.9439,-1.9307,-1.9848,-2.0554,-2.1137,-2.1137,-2.1137,-2.1221,-2.1615,-2.1605,-2.1633,-2.2007,-2.2077,-2.2146,-2.2363,-2.2225,-2.2077,-2.2077,-2.2077,-2.1993,-2.1734,-2.1697,-2.1697,-2.1697,-2.1366,-2.1053,-2.082,-2.0434,-1.9583,-1.8127,-1.8129,-1.7815,-1.6911,-1.6635,-1.65,-1.65,-1.65,-1.65,-1.65,-1.65,-1.65,-1.65,-1.65,-1.6315,-1.5908,-1.5085,-1.4491,0.0,-1.4683,-1.4708,-1.4657,-1.4286,-1.3632,-1.2529,-1.1889,0.0,-1.0131,-0.9905,-0.9931,-1.0006,-1.0356,-1.0896,-1.1688,-1.2642,-1.3673,-1.4827,-1.5957,-1.7077,-1.8191,-1.764,0.0,0.0,0.0,0.0,0.0,0.0,0.0,0.0,0.0,-1.9798,-1.9798,-1.915,-1.9123,-1.9798,-1.8447,-1.807,-1.8688,-1.807,-1.7743,-1.7688,-1.7731,0.0,0.0,0.0,0.0,0.0,-1.8517,-1.8821,-1.9058,-1.9597,-1.9171,-1.8329,-1.882,-1.7992,-1.6763,-1.7924,-1.7985,-1.7756,-1.8853,-1.9946,-2.087,-2.0919,-2.0894,-2.0979,-2.1544,-2.172,-2.1781,-2.1781,-2.1781,-2.1767,-2.1815,-2.2276,-2.2694,-2.274,-2.2762,-2.292,-2.3486,-2.3143,-2.2762,-2.2762,-2.2762,-2.2543,-2.1946,-2.1838,-2.1838,-2.1838,-2.1805,-2.1544,-2.0993,-2.0894,-2.0388,-1.922,-1.8605,-1.8003,-1.7448,-1.6873,-1.6538,-1.65,-1.65,-1.65,-1.65,-1.65,-1.65,-1.65,-1.65,-1.65,-1.6466,-1.5265,-1.4698,-1.2143,0.0,-1.2893,-1.2483,-1.2282,-1.2005,0.0,-1.1008,-1.072,-1.0044,-0.9905,-1.0169,-1.105,-1.0583,-1.0973,-1.3677,-1.3979,-1.4569,-1.6511,-1.7734,-1.8657,-1.9346,-1.9267,-1.9264,0.0,0.0,0.0,0.0,0.0,0.0,0.0,0.0,-1.9798,-1.9798,-1.9631,-1.9605,-1.9798,-1.9449,-1.9097,-1.8688,-1.9097,-1.8992,-1.8463,-1.9044,0.0,0.0,0.0,0.0,-1.8747,-1.8895,-1.8958,-1.9058,-1.9597,-1.9409,-1.882,-1.8958,-1.8494,-1.7972,-1.9152,-1.9496,-1.9577,-2.0704,-2.1267,-2.1568,-2.2105,-2.1903,-2.152,-2.1649,-2.2077,-2.2475,-2.2475,-2.2475,-2.2589,-2.3039,-2.2905,-2.283,-2.329,-2.3399,-2.3421,-2.3573,-2.3486,-2.3399,-2.3399,-2.3399,-2.3341,-2.3172,-2.315,-2.315,-2.315,-2.2733,-2.2406,-2.2267,-2.1795,-2.1191,-2.0438,-1.943,-1.8417,-1.7461,-1.7272,-1.6974,-1.6513,-1.65,-1.65,-1.65,-1.65,-1.65,-1.65,-1.65,-1.65,-1.6466,-1.5265,-1.4698,-1.0721,-1.1761,-1.2701,-1.24,-1.2153,-1.1876,-1.1548,-1.0883,-1.0244,-0.9956,-0.9905,-1.0169,-1.1035,-1.1111,-1.1726,-1.3785,-1.4733,-1.5902,-1.7852,-1.8619,-1.9196,-1.9748,-1.9798,0.0,0.0,0.0,0.0,0.0,0.0,0.0,0.0,0.0,-1.9798,-1.9798,-1.9798,-1.9798,-1.9798,-1.9798,-1.9618,-1.9202,-1.9618,-1.9579,-1.9228,-1.9605,0.0,0.0,0.0,0.0,-1.9334,-1.9096,-1.9146,-1.9384,-1.9698,-1.9674,-1.9498,-1.9731,-1.951,-1.9245,-2.0372,-2.0772,-2.0874,-2.1505,-2.1899,-2.223,-2.2603,-2.2643,-2.2583,-2.2583,-2.2823,-2.3098,-2.3098,-2.3098,-2.3201,-2.3508,-2.3355,-2.3187,-2.353,-2.3595,-2.3595,-2.3595,-2.3595,-2.3595,-2.3595,-2.3595,-2.3595,-2.3595,-2.3595,-2.3595,-2.3595,-2.3312,-2.3009,-2.2717,-2.2369,-2.1795,-2.087,-2.0212,-1.9339,-1.8215,-1.7664,-1.7237,-1.6923,-1.666,-1.65,-1.65,-1.65,-1.65,-1.65,-1.65,-1.65,-1.6466,-1.5265,-1.4698,-1.0106,-1.1648,-1.3123,-1.2772,-1.2551,-1.2325,-1.209,-1.0971,-1.0018,-1.0018,-1.0018,-1.0281,-1.1184,-1.1911,-1.2689,-1.3549,-1.5359,-1.719,-1.8782,-1.907,-1.9284,-1.9748,-1.9798,0.0,0.0,0.0,0.0,0.0,0.0,0.0,0.0,0.0,0.0,-1.9798,-1.9798,-1.9798,-1.9798,-1.9798,-1.9798,-1.9798,-1.9798,-1.9798,-1.9798,-1.9798,0.0,0.0,0.0,0.0,-1.9761,-1.9221,-1.9384,-1.9952,-1.9952,-2.0074,-2.03,-2.0782,-2.0684,-2.049,-2.1504,-2.1922,-2.1979,-2.1979,-2.2377,-2.2844,-2.2844,-2.3187,-2.3595,-2.3595,-2.3595,-2.3595,-2.3595,-2.3595,-2.3595,-2.3595,-2.3595,-2.3595,-2.3595,-2.3595,-2.3595,-2.3595,-2.3595,-2.3595,-2.3595,-2.3595,-2.3595,-2.3595,-2.3595,-2.3595,-2.3595,-2.3595,-2.3399,-2.2875,-2.2844,-2.2314,-2.1053,-2.0944,-2.0425,-1.9196,-1.8191,-1.7574,-1.741,-1.6823,-1.65,-1.65,-1.65,-1.65,-1.65,-1.65,-1.65,-1.6466,-1.5354,-1.4789,-1.1087,-1.225,-1.2747,-1.0871,-1.141,-1.204,-1.0608,-1.0432,-1.0582,-1.0582,-1.0582,-1.1334,-1.3803,-1.3232,-1.3178,-1.5597,-1.671,-1.7664,-1.8845,-1.9384,-1.971,-1.9798,0.0,0.0,0.0,0.0,0.0,0.0,0.0,0.0,0.0,0.0,0.0,-1.9798,-1.9798,-1.9798,-1.9798,-1.9798,-1.9798,-1.9798,-1.9798,-1.9798,-1.9798,-1.9798,-1.9798,0.0,0.0,-1.9296,-1.9761,-1.9221,-1.9646,-2.066,-2.066,-2.0962,-2.1444,-2.1527,-2.1515,-2.1555,-2.2289,-2.2883,-2.3319,-2.3319,-2.3384,-2.3465,-2.3465,-2.353,-2.3595,-2.3595,-2.3595,-2.3595,-2.3595,-2.3595,-2.3595,-2.3595,-2.3595,-2.3595,-2.3595,-2.3595,-2.3595,-2.3595,-2.3595,-2.3595,-2.3595,-2.3595,-2.3595,-2.3595,-2.3595,-2.3595,-2.3595,-2.3595,-2.3551,-2.3465,-2.3465,-2.295,-2.1663,-2.1568,-2.1021,-1.9762,-1.9083,-1.8355,-1.7448,-1.6823,-1.65,-1.65,-1.65,-1.65,-1.65,-1.65,-1.65,-1.6466,-1.5776,-1.5186,-1.0533,-1.1487,-1.2149,-1.1422,-1.273,-1.4061,-1.3584,-1.3207,-1.2898,-1.2596,-1.2533,-1.3023,-1.4614,-1.4739,-1.5409,-1.789,-1.8028,-1.8204,-1.9296,-1.9409,-1.9484,0.0,0.0,0.0,0.0,0.0,0.0,0.0,0.0,0.0,0.0,0.0,0.0,0.0,-1.9798,-1.9798,-1.9798,-1.9798,-1.9798,-1.9798,-1.9798,-1.9798,-1.9798,-1.9798,-2.0003,0.0,0.0,-2.0012,-2.079,-2.0258,-2.0518,-2.1293,-2.1293,-2.1677,-2.2276,-2.2606,-2.2719,-2.2764,-2.3076,-2.3377,-2.3595,-2.3595,-2.3595,-2.3595,-2.3595,-2.3595,-2.3595,-2.3595,-2.3595,-2.3595,-2.3595,-2.3595,-2.3595,-2.3595,-2.3595,-2.3595,-2.3595,-2.3595,-2.3595,-2.3595,-2.3595,-2.3595,-2.3595,-2.3595,-2.3595,-2.3595,-2.3595,-2.3595,-2.3595,-2.3595,-2.3595,-2.3595,-2.3595,-2.3069,-2.1815,-2.1697,-2.1024,-1.9472,-1.9133,-1.8644,-1.7852,-1.7287,-1.6986,-1.6986,-1.6672,-1.65,-1.65,-1.65,-1.65,-1.65,-1.5886,-1.5276,-1.0407,-1.108,-1.187,-1.2608,-1.3873,-1.5141,-1.5944,-1.5279,-1.4494,-1.4475,-1.4475,-1.4676,-1.5349,-1.6258,-1.744,-1.9158,-1.8844,-1.8731,-1.9673,-1.9459,0.0,0.0,0.0,0.0,0.0,0.0,0.0,0.0,0.0,0.0,0.0,0.0,0.0,0.0,-1.9798,-1.9798,-1.9798,-1.9798,-1.9798,-1.9798,-1.9798,-1.9798,-1.9811,-1.9952,-2.0295,-2.0769,-2.0513,-2.0897,-2.1669,-2.125,-2.1426,-2.1922,-2.1922,-2.2331,-2.2965,-2.3421,-2.3595,-2.3595,-2.3595,-2.3595,-2.3595,-2.3595,-2.3595,-2.3595,-2.3595,-2.3595,-2.3595,-2.3595,-2.3595,-2.3595,-2.3595,-2.3595,-2.3595,-2.3595,-2.3595,-2.3595,-2.3595,-2.3595,-2.3595,-2.3595,-2.3595,-2.3595,-2.3595,-2.3595,-2.3595,-2.3595,-2.3595,-2.3595,-2.3595,-2.3595,-2.3595,-2.3595,-2.3465,-2.2868,-2.1592,-2.1496,-2.0839,-1.9283,-1.907,-1.8757,-1.8229,-1.7677,-1.7335,-1.7187,-1.6748,-1.65,-1.65,-1.65,-1.65,-1.65,-1.603,-1.5477,-1.1936,-1.2091,-1.2284,-1.3644,-1.33,-1.3057,-1.4645,-1.4136,-1.3754,-1.5266,-1.558,-1.5927,-1.7021,-1.7689,-1.8141,-1.8292,-1.8657,-1.9146,0.0,0.0,0.0,0.0,0.0,0.0,0.0,0.0,0.0,0.0,0.0,0.0,0.0,0.0,0.0,0.0,0.0,-1.9798,-1.9798,-1.9798,-1.9798,-1.9798,-1.9798,-1.9798,-1.9824,-2.0446,-2.0746,-2.082,-2.1335,-2.1608,-2.1697,-2.1655,-2.2035,-2.2626,-2.2626,-2.3009,-2.353,-2.3573,-2.3595,-2.3595,-2.3595,-2.3595,-2.3595,-2.3595,-2.3595,-2.3595,-2.3595,-2.3595,-2.3595,-2.3595,-2.3595,-2.3595,-2.3595,-2.3595,-2.3595,-2.3595,-2.3595,-2.3595,-2.3595,-2.3595,-2.3595,-2.3595,-2.3595,-2.3595,-2.3595,-2.3595,-2.3595,-2.3595,-2.3595,-2.3595,-2.3595,-2.3595,-2.3595,-2.3595,-2.3113,-2.2244,-2.0968,-2.087,-2.0534,-1.9799,-1.9271,-1.8757,-1.8229,-1.7677,-1.7137,-1.6584,-1.6513,-1.65,-1.65,-1.65,-1.65,-1.65,-1.6457,-1.6117,-1.1146,-1.1539,-1.203,-1.3242,-1.3714,-1.4348,-1.6052,-1.6384,-1.6575,-1.7541,-1.7741,-1.7766,-1.7877,-1.8606,-1.9095,-1.8744,-1.9133,-1.9572,0.0,0.0,0.0,0.0,0.0,0.0,0.0,0.0,0.0,0.0,0.0,0.0,0.0,0.0,0.0,0.0,0.0,-2.0988,-2.0988,-2.0988,-2.0988,-2.0964,-2.0181,-2.0207,-2.0988,-2.0856,-2.1224,-2.1988,-2.2207,-2.2515,-2.2891,-2.2891,-2.3039,-2.3268,-2.3268,-2.3399,-2.3595,-2.3595,-2.3595,-2.3595,-2.3595,-2.3595,-2.3595,-2.3595,-2.3595,-2.3595,-2.3595,-2.3595,-2.3595,-2.3595,-2.3595,-2.3595,-2.3595,-2.3595,-2.3595,-2.3595,-2.3595,-2.3595,-2.3595,-2.3595,-2.3595,-2.3595,-2.3595,-2.3595,-2.3595,-2.3595,-2.3595,-2.3595,-2.3595,-2.3595,-2.3595,-2.3595,-2.3595,-2.3595,-2.2688,-2.1724,-2.087,-2.0421,-2.008,-1.9837,-1.9623,-1.9422,-1.9208,-1.8694,-1.8141,-1.7576,-1.7225,-1.6873,-1.65,-1.65,-1.65,-1.65,-1.65,-1.5976,-1.1242,-1.1748,-1.2563,-1.3719,-1.4401,-1.5287,-1.7252,-1.7795,-1.8175,-1.907,-1.897,-1.8682,-1.8481,-1.892,-1.9233,0.0,-1.9434,0.0,0.0,0.0,0.0,0.0,0.0,0.0,0.0,0.0,0.0,0.0,0.0,0.0,0.0,0.0,0.0,0.0,0.0,0.0,0.0,-2.1697,-2.1805,-2.1993,-2.0928,-2.0866,-2.1697,-2.15,-2.187,-2.2694,-2.2897,-2.3209,-2.3595,-2.3595,-2.3595,-2.3595,-2.3595,-2.3595,-2.3595,-2.3595,-2.3595,-2.3595,-2.3595,-2.3595,-2.3595,-2.3595,-2.3595,-2.3595,-2.3595,-2.3595,-2.3595,-2.3595,-2.3595,-2.3595,-2.3595,-2.3595,-2.3595,-2.3595,-2.3595,-2.3595,-2.3595,-2.3595,-2.3595,-2.3595,-2.3595,-2.3595,-2.3595,-2.3595,-2.3595,-2.3595,-2.3595,-2.3595,-2.3595,-2.3595,-2.345,-2.3047,-2.2225,-2.1376,-2.0547,-2.0258,-2.0029,-1.9798,-1.9798,-1.9723,-1.956,-1.9196,-1.8744,-1.8216,-1.7664,-1.7209,-1.6763,-1.6588,-1.65,-1.65,-1.65,-1.5954,-1.2708,-1.3074,-1.4122,-1.5456,-1.5261,-1.5377,-1.7772,-1.7797,-1.7791,-1.9472,-1.8957,-1.8392,-1.8907,-1.8556,0.0,-1.8907,0.0,0.0,0.0,0.0,0.0,0.0,0.0,0.0,0.0,0.0,0.0,0.0,0.0,0.0,0.0,0.0,0.0,0.0,0.0,0.0,0.0,-2.172,-2.2053,-2.2694,-2.2053,-2.172,-2.1744,-2.2406,-2.2694,-2.274,-2.3334,-2.3595,-2.3595,-2.3595,-2.3595,-2.3595,-2.3595,-2.3595,-2.3595,-2.3595,-2.3595,-2.3595,-2.3595,-2.3595,-2.3595,-2.3595,-2.3595,-2.3595,-2.3595,-2.3595,-2.3595,-2.3595,-2.3595,-2.361,-2.361,-2.361,-2.361,-2.3595,-2.3595,-2.3595,-2.3595,-2.3595,-2.3595,-2.3595,-2.3595,-2.3595,-2.3595,-2.3595,-2.3595,-2.3595,-2.3595,-2.3595,-2.3595,-2.3595,-2.3106,-2.1838,-2.1697,-2.1183,-1.9927,-2.0396,-2.0497,-1.985,-1.9798,-1.9572,-1.9033,-1.9008,-1.8757,-1.8229,-1.7677,-1.741,-1.741,-1.681,-1.65,-1.65,-1.65,-1.6173,-1.1213,-1.247,-1.4063,-1.4271,-1.6328,-1.8284,-1.8241,-1.876,-1.9497,-2.0332,-1.9876,-1.9271,-1.9045,-1.9196,0.0,0.0,0.0,0.0,0.0,0.0,0.0,0.0,0.0,0.0,0.0,0.0,0.0,0.0,0.0,0.0,0.0,0.0,0.0,0.0,0.0,0.0,0.0,0.0,-2.315,-2.3334,-2.3128,-2.3047,-2.3024,-2.2807,-2.292,-2.3334,-2.3508,-2.3595,-2.3595,-2.3595,-2.3595,-2.3595,-2.3595,-2.3595,-2.3595,-2.3595,-2.3595,-2.3595,-2.3595,-2.3595,-2.3595,-2.3595,-2.3595,-2.3595,-2.3595,-2.3595,-2.3595,-2.3595,-2.3954,-2.4291,-2.4291,-2.4634,-2.4777,-2.3819,-2.3595,-2.3595,-2.3595,-2.3595,-2.3595,-2.3595,-2.3595,-2.3595,-2.3595,-2.3595,-2.3595,-2.3595,-2.3595,-2.3595,-2.3595,-2.3595,-2.3106,-2.1838,-2.1697,-2.1183,-1.9927,-1.9978,-2.0003,-1.9798,-1.9798,-1.9736,-1.9572,-1.9572,-1.9296,-1.877,-1.8607,-1.8154,-1.741,-1.7212,-1.6911,-1.65,-1.65,-1.5942,-1.2589,-1.4093,-1.5958,-1.6683,-1.825,-1.9741,-2.0225,-2.0146,-2.0056,-2.0329,-1.9914,-1.9459,-1.9334,-1.9396,0.0,0.0,0.0,0.0,0.0,0.0,0.0,0.0,0.0,0.0,0.0,0.0,0.0,0.0,0.0,0.0,0.0,0.0,0.0,0.0,0.0,0.0,0.0,0.0,0.0,-2.3595,-2.3595,-2.3595,-2.3595,-2.3209,-2.3268,-2.3595,-2.3595,-2.3595,-2.3595,-2.3595,-2.3595,-2.3595,-2.3595,-2.3595,-2.3595,-2.3595,-2.3595,-2.3595,-2.3595,-2.3595,-2.3595,-2.3595,-2.3595,-2.3595,-2.3595,-2.3789,-2.4014,-2.4014,-2.447,-2.4993,-2.4993,-2.5292,-2.533,-2.4268,-2.4014,-2.3924,-2.3655,-2.3595,-2.3595,-2.3595,-2.3595,-2.3595,-2.3595,-2.3595,-2.3595,-2.3595,-2.3595,-2.3595,-2.3595,-2.3399,-2.295,-2.217,-2.1653,-2.1026,-2.0245,-1.9952,-1.9798,-1.9798,-1.9798,-1.9798,-1.9798,-1.9798,-1.966,-1.9309,-1.9108,-1.8569,-1.7714,-1.7511,-1.7087,-1.65,-1.65,-1.5854,-1.5331,-1.6818,-1.8822,-2.0988,-2.0526,-2.021,-2.2818,-2.1578,-1.9901,-1.9965,-1.9497,-1.9221,-1.971,0.0,0.0,0.0,0.0,0.0,0.0,0.0,0.0,0.0,0.0,0.0,0.0,0.0,0.0,0.0,0.0,0.0,0.0,0.0,0.0,0.0,0.0,0.0,0.0,0.0,0.0,0.0,-2.3595,-2.3595,-2.3595,-2.3595,-2.3595,-2.3595,-2.3595,-2.3595,-2.3595,-2.3595,-2.3595,-2.3595,-2.3595,-2.3595,-2.3595,-2.3595,-2.3595,-2.3595,-2.3595,-2.3595,-2.361,-2.367,-2.3684,-2.3699,-2.3759,-2.4201,-2.4694,-2.4694,-2.5173,-2.5689,-2.5689,-2.5749,-2.5615,-2.4933,-2.4739,-2.4515,-2.3849,-2.3684,-2.367,-2.361,-2.3595,-2.3595,-2.3595,-2.3595,-2.3595,-2.3595,-2.3595,-2.3595,-2.3595,-2.312,-2.2762,-2.2694,-2.1657,-2.0919,-2.0795,-2.0245,-1.9875,-1.9798,-1.9798,-1.9798,-1.9798,-1.9798,-1.9798,-1.9798,-1.9309,-1.877,-1.8204,-1.7702,-1.7137,-1.65,-1.65,-1.5854,-1.3052,-1.5575,-1.8594,-1.9815,-2.0665,-2.1342,-2.1964,-2.1318,-2.0708,-2.1183,-2.0391,-1.9673,0.0,0.0,0.0,0.0,0.0,0.0,0.0,0.0,0.0,0.0,0.0,0.0,0.0,0.0,0.0,0.0,0.0,0.0,0.0,0.0,0.0,0.0,0.0,0.0,-2.3595,-2.3595,-2.3595,0.0,-2.3595,-2.3595,-2.3595,-2.3595,-2.3595,-2.3595,-2.3595,-2.3595,-2.3595,-2.3595,-2.3595,-2.3595,-2.3595,-2.3595,-2.3595,-2.3595,-2.3595,-2.3595,-2.3595,-2.3595,-2.3684,-2.4201,-2.438,-2.4485,-2.4993,-2.5262,-2.5367,-2.5367,-2.5869,-2.6378,-2.6378,-2.6791,-2.7001,-2.6318,-2.5779,-2.5187,-2.453,-2.438,-2.4231,-2.3699,-2.3595,-2.3595,-2.3595,-2.3595,-2.3595,-2.3595,-2.3595,-2.3595,-2.3595,-2.3486,-2.3209,-2.274,-2.2443,-2.1894,-2.0894,-2.0671,-2.0359,-1.9824,-1.9798,-1.9798,-1.9798,-1.9798,-1.9798,-1.9798,-1.9698,-1.9158,-1.8204,-1.8091,-1.7501,-1.65,-1.65,-1.5854,-1.3585,-1.6161,-1.8968,-2.0705,-2.1887,-2.2523,-2.2239,-2.1927,-2.1633,-2.1331,-2.0484,0.0,0.0,0.0,0.0,0.0,0.0,0.0,0.0,0.0,0.0,0.0,0.0,0.0,0.0,0.0,0.0,0.0,0.0,0.0,0.0,0.0,0.0,0.0,0.0,0.0,-2.3595,-2.3595,-2.3595,-2.3595,-2.3595,-2.3595,-2.3595,-2.3595,-2.3595,-2.3595,-2.3595,-2.3595,-2.3595,-2.3595,-2.3595,-2.3595,-2.3595,-2.3595,-2.3595,-2.3595,-2.3804,-2.4066,-2.4066,-2.4298,-2.4627,-2.4963,-2.5068,-2.5143,-2.5486,-2.5824,-2.6078,-2.6078,-2.6557,-2.7091,-2.7091,-2.7345,-2.751,-2.7165,-2.6581,-2.5899,-2.5217,-2.5068,-2.4874,-2.4201,-2.4066,-2.3984,-2.3655,-2.3595,-2.3595,-2.3595,-2.3595,-2.3595,-2.3595,-2.3595,-2.3486,-2.3165,-2.2589,-2.1936,-2.1293,-2.0683,-2.0182,-1.9824,-1.9798,-1.9798,-1.9798,-1.9798,-1.9798,-1.9798,-1.9798,-1.9271,-1.8204,-1.8204,-1.7626,-1.65,-1.65,-1.5854,-1.4262,-1.691,-1.9552,-2.2061,-2.3157,-2.3465,-2.2965,-2.2762,-2.2397,-2.1345,-2.0522,0.0,0.0,0.0,0.0,0.0,0.0,0.0,0.0,0.0,0.0,0.0,0.0,0.0,0.0,0.0,0.0,0.0,0.0,0.0,0.0,0.0,0.0,0.0,0.0,-2.3595,-2.3595,-2.3595,-2.3595,-2.3595,-2.3595,-2.3595,-2.3595,-2.3595,-2.3595,-2.3595,-2.3595,-2.3595,-2.3595,-2.3595,-2.3595,-2.3595,-2.3595,-2.367,-2.3774,-2.3774,-2.4186,-2.4769,-2.4769,-2.5182,-2.5755,-2.5758,-2.5905,-2.6106,-2.6111,-2.6566,-2.7076,-2.7076,-2.747,-2.7894,-2.7785,-2.776,-2.7735,-2.7625,-2.718,-2.6572,-2.5914,-2.5779,-2.5561,-2.4903,-2.4679,-2.4395,-2.3714,-2.3595,-2.3595,-2.3595,-2.3595,-2.3595,-2.3595,-2.3595,-2.3595,-2.3595,-2.2674,-2.1932,-2.172,-2.0731,-2.0042,-1.9798,-1.9798,-1.9798,-1.9798,-1.9798,-1.9798,-1.9798,-1.9798,-1.9321,-1.8342,-1.8342,-1.7695,-1.6473,-1.6473,-1.5784,-1.1489,-1.5617,-2.0068,-2.217,-2.3148,-2.3573,-2.3508,-2.3076,-2.2649,0.0,0.0,0.0,0.0,0.0,0.0,0.0,0.0,0.0,0.0,0.0,0.0,0.0,0.0,0.0,0.0,0.0,0.0,0.0,0.0,0.0,0.0,0.0,-2.3595,-2.3595,-2.3595,0.0,-2.3595,-2.3595,-2.3595,-2.3595,-2.3595,-2.3595,-2.3595,-2.3595,-2.3595,-2.3595,-2.3595,-2.3595,-2.3595,-2.3595,-2.3595,-2.3595,-2.3595,-2.3947,-2.447,-2.447,-2.4889,-2.548,-2.548,-2.5864,-2.6387,-2.6449,-2.7172,-2.804,-2.8093,-2.8537,-2.9014,-2.9014,-2.9078,-2.9042,-2.8511,-2.8367,-2.8262,-2.771,-2.7525,-2.7285,-2.6602,-2.6452,-2.6258,-2.5615,-2.4993,-2.4395,-2.3714,-2.3595,-2.3595,-2.3595,-2.3595,-2.3595,-2.3595,-2.3595,-2.3595,-2.3595,-2.345,-2.2913,-2.1791,-2.153,-2.0988,-1.9875,-1.9798,-1.9798,-1.9798,-1.9798,-1.9798,-1.9798,-1.9798,-1.951,-1.8895,-1.8895,-1.803,-1.6404,-1.6404,-1.551,-1.2675,-1.6008,-1.9151,-2.153,-2.2607,-2.2986,-2.2614,-2.2893,-2.2995,0.0,0.0,0.0,0.0,0.0,0.0,0.0,0.0,0.0,0.0,0.0,0.0,0.0,0.0,0.0,0.0,0.0,0.0,0.0,0.0,0.0,0.0,-2.3595,-2.3595,-2.3595,-2.3595,0.0,-2.3595,-2.3595,-2.3595,-2.3595,-2.3595,-2.3595,-2.3595,-2.3595,-2.3595,-2.3595,-2.3595,-2.3595,-2.3616,-2.3906,-2.4085,-2.42,-2.4498,-2.4835,-2.5189,-2.5545,-2.6092,-2.6719,-2.7046,-2.7588,-2.8129,-2.8147,-2.8539,-2.8968,-2.8993,-2.918,-2.9339,-2.8989,-2.9134,-2.9248,-2.8677,-2.8756,-2.885,-2.8262,-2.8091,-2.7942,-2.73,-2.7165,-2.6866,-2.5809,-2.5053,-2.4395,-2.3714,-2.3595,-2.3595,-2.3595,-2.3595,-2.3595,-2.3595,-2.3595,-2.3595,-2.3595,-2.3312,-2.2711,-2.1767,-2.139,-2.0794,-1.985,-1.9798,-1.9798,-1.9798,-1.9798,-1.9798,-1.9798,-1.9798,-1.9547,-1.9008,-1.9008,-1.8448,-1.7393,-1.6702,-1.5799,-1.2898,-1.5197,-1.7067,-1.9956,-2.1306,-2.1938,-2.1937,0.0,-2.3148,0.0,0.0,0.0,0.0,0.0,0.0,0.0,0.0,0.0,0.0,0.0,0.0,0.0,0.0,0.0,0.0,0.0,0.0,0.0,0.0,0.0,-2.3595,-2.3595,-2.3595,-2.3595,-2.3595,-2.3595,-2.3595,-2.3595,-2.3595,-2.3595,-2.3595,-2.3595,-2.3595,-2.3595,-2.3595,-2.3595,-2.3595,-2.3681,-2.3831,-2.4258,-2.4683,-2.5079,-2.5515,-2.5927,-2.6382,-2.6832,-2.7409,-2.8049,-2.8513,-2.9084,-2.9607,-2.9451,-2.9607,-2.9827,-2.9673,-2.9739,-2.9761,-2.9316,-2.9518,-2.9717,-2.9111,-2.918,-2.9248,-2.8638,-2.8367,-2.814,-2.7685,-2.76,-2.7255,-2.6078,-2.5442,-2.4829,-2.3999,-2.3864,-2.3804,-2.3625,-2.3595,-2.3595,-2.3595,-2.3595,-2.3595,-2.3595,-2.3201,-2.2612,-2.1767,-2.1293,-2.0683,-1.985,-1.9798,-1.9798,-1.9798,-1.9798,-1.9798,-1.9798,-1.9798,-1.961,-1.9196,-1.9196,-1.8846,-1.8152,-1.7063,-1.6142,-0.9821,-1.1601,-1.3611,-1.7053,-1.8897,-2.0348,-2.2213,0.0,0.0,0.0,0.0,0.0,0.0,0.0,0.0,0.0,0.0,0.0,0.0,0.0,0.0,0.0,0.0,0.0,0.0,0.0,0.0,0.0,0.0,0.0,-2.3595,-2.3595,-2.3595,-2.3595,-2.3595,-2.3595,-2.3595,-2.3595,-2.3595,-2.3595,-2.3595,-2.3595,-2.3595,-2.3595,-2.3595,-2.3595,-2.3595,-2.39,-2.4354,-2.4526,-2.5219,-2.6238,-2.6385,-2.7168,-2.8259,-2.8292,-2.8734,-2.9313,-2.9336,-2.9767,-3.0166,-2.9585,-3.0166,-3.0995,-3.0435,-3.0658,-3.1095,-3.1055,-3.1075,-3.0975,-3.0356,-2.9805,-2.9248,-2.8638,-2.8067,-2.765,-2.7625,-2.76,-2.739,-2.6677,-2.6512,-2.6078,-2.4769,-2.4545,-2.4335,-2.3699,-2.3595,-2.3595,-2.3595,-2.3595,-2.3595,-2.3595,-2.3573,-2.3047,-2.1815,-2.1673,-2.1135,-1.9875,-1.9798,-1.9798,-1.9798,-1.9798,-1.9798,-1.9798,-1.9798,-1.9786,-1.9761,-1.9761,-1.9192,-1.8096,-1.7318,-1.6336,-0.9604,-1.0706,-1.186,-1.4521,-1.6817,-1.8612,-1.9331,-2.116,0.0,0.0,0.0,0.0,0.0,0.0,0.0,0.0,0.0,0.0,0.0,0.0,0.0,0.0,0.0,0.0,0.0,0.0,0.0,0.0,0.0,0.0,-2.3595,-2.3595,-2.3595,-2.3595,-2.3595,-2.3595,-2.3595,-2.3595,-2.3595,-2.3595,-2.3595,-2.3595,-2.3616,-2.3964,-2.4367,-2.4839,-2.5165,-2.5264,-2.5176,-2.5901,-2.6766,-2.7682,-2.8086,-2.8571,-2.9089,-2.948,-2.9771,-3.0038,-3.0414,-3.0699,-3.0838,-3.0638,-3.0858,-3.1151,-3.0938,-3.1035,-3.1131,-3.072,-3.0898,-3.1055,-3.0456,-3.0145,-2.9717,-2.8748,-2.8042,-2.76,-2.76,-2.76,-2.7405,-2.6746,-2.6587,-2.6303,-2.5397,-2.4889,-2.453,-2.4276,-2.3879,-2.3595,-2.3595,-2.3595,-2.3595,-2.3595,-2.3595,-2.3253,-2.2415,-2.1946,-2.1328,-2.0497,-2.0029,-1.9798,-1.9798,-1.9798,-1.9798,-1.9798,-1.9798,-1.9798,-1.9798,-1.9798,-1.9595,-1.9153,-1.7694,-1.6763,-0.8676,-0.9406,-1.0308,-1.2757,-1.4549,-1.6189,-1.7968,-1.975,0.0,0.0,0.0,0.0,0.0,0.0,0.0,0.0,0.0,0.0,0.0,0.0,0.0,0.0,0.0,0.0,0.0,0.0,0.0,0.0,0.0,0.0,-2.3595,-2.3595,-2.3595,-2.3595,-2.3595,-2.3702,-2.3879,-2.3702,-2.3702,-2.3879,-2.3702,-2.3702,-2.3879,-2.4492,-2.5124,-2.5806,-2.6595,-2.6732,-2.6463,-2.721,-2.8098,-2.9001,-2.9408,-2.976,-3.0059,-3.0456,-3.0601,-3.0658,-3.1055,-3.119,-3.119,-3.119,-3.119,-3.119,-3.119,-3.119,-3.1131,-3.072,-3.0878,-3.1112,-3.0699,-3.0293,-2.9695,-2.8472,-2.7894,-2.76,-2.76,-2.76,-2.7465,-2.7031,-2.6941,-2.6707,-2.6048,-2.557,-2.5113,-2.4664,-2.4216,-2.3864,-2.3625,-2.3595,-2.3595,-2.3595,-2.3595,-2.3355,-2.274,-2.21,-2.1424,-2.0845,-2.0182,-1.9798,-1.9798,-1.9798,-1.9798,-1.9798,-1.9798,-1.9798,-1.9798,-1.9798,-1.9798,-1.976,-1.8265,-1.7311,0.0,0.0,0.0,-1.1655,-1.2051,-1.3121,-1.827,0.0,0.0,0.0,0.0,0.0,0.0,0.0,0.0,0.0,0.0,0.0,0.0,0.0,0.0,0.0,0.0,0.0,0.0,0.0,0.0,0.0,0.0,-2.3595,-2.3595,-2.3595,-2.3595,-2.3595,-2.3595,-2.3858,-2.4389,-2.3879,-2.39,-2.4441,-2.3931,-2.3952,-2.4508,-2.5253,-2.5879,-2.6471,-2.7702,-2.8265,-2.8292,-2.8422,-2.9104,-3.0152,-3.0273,-3.0679,-3.119,-3.119,-3.119,-3.119,-3.119,-3.119,-3.119,-3.119,-3.119,-3.119,-3.119,-3.119,-3.119,-3.119,-3.119,-3.119,-3.1151,-3.0272,-2.9111,-2.7894,-2.76,-2.76,-2.76,-2.76,-2.76,-2.76,-2.76,-2.739,-2.6746,-2.6602,-2.6153,-2.4844,-2.4649,-2.4395,-2.3714,-2.3625,-2.3625,-2.3595,-2.3595,-2.3377,-2.2777,-2.21,-2.1448,-2.087,-2.0182,-1.9798,-1.9798,-1.9798,-1.9798,-1.9798,-1.9798,-1.9798,-1.9798,-1.9798,-1.9798,-1.9773,-1.9044,-1.7895,-0.6849,0.0,0.0,0.0,0.0,0.0,0.0,0.0,0.0,0.0,0.0,0.0,0.0,0.0,0.0,0.0,0.0,0.0,0.0,0.0,0.0,0.0,0.0,0.0,0.0,0.0,0.0,0.0,0.0,-2.3595,-2.3595,-2.3595,-2.3595,-2.3595,-2.3595,-2.3858,-2.4389,-2.4246,-2.472,-2.5771,-2.5629,-2.5923,-2.6584,-2.7179,-2.7825,-2.8509,-2.9251,-2.9883,-3.032,-2.9828,-3.0127,-3.09,-3.0931,-3.1055,-3.119,-3.119,-3.119,-3.119,-3.119,-3.119,-3.119,-3.119,-3.119,-3.119,-3.119,-3.119,-3.119,-3.119,-3.119,-3.0995,-3.0123,-2.9651,-2.9111,-2.7894,-2.76,-2.76,-2.76,-2.76,-2.76,-2.76,-2.76,-2.754,-2.736,-2.6926,-2.6467,-2.6093,-2.5621,-2.5068,-2.441,-2.4321,-2.4126,-2.3655,-2.3595,-2.353,-2.3377,-2.234,-2.1639,-2.1448,-2.0395,-1.9798,-1.9798,-1.9798,-1.9798,-1.9798,-1.9798,-1.9798,-1.9798,-1.9798,-1.9798,-1.9773,-1.9044,-1.7895,-0.6948,-0.6908,-0.7096,-0.7932,0.0,0.0,0.0,0.0,0.0,0.0,0.0,0.0,0.0,0.0,0.0,0.0,0.0,0.0,0.0,0.0,0.0,0.0,0.0,0.0,0.0,0.0,0.0,0.0,-2.3595,-2.3595,-2.3595,-2.3595,-2.3702,-2.3943,-2.3927,-2.4287,-2.5067,-2.5155,-2.568,-2.663,-2.6724,-2.7102,-2.7765,-2.8372,-2.9006,-2.9668,-3.0297,-3.0801,-3.1157,-3.0734,-3.0818,-3.119,-3.119,-3.119,-3.119,-3.119,-3.119,-3.119,-3.119,-3.119,-3.119,-3.119,-3.119,-3.119,-3.119,-3.119,-3.119,-3.119,-3.119,-3.0918,-2.9717,-2.9406,-2.9111,-2.7894,-2.76,-2.76,-2.76,-2.76,-2.76,-2.76,-2.76,-2.76,-2.76,-2.7285,-2.6926,-2.6632,-2.6258,-2.5779,-2.5098,-2.4769,-2.4455,-2.4073,-2.354,-2.3209,-2.3209,-2.2053,-2.1318,-2.1318,-2.0358,-1.9798,-1.9798,-1.9798,-1.9798,-1.9798,-1.9798,-1.9798,-1.9798,-1.9798,-1.9798,-1.9773,-1.9044,-1.8058,-0.7244,-0.7027,-0.7337,-0.848,0.0,0.0,0.0,0.0,0.0,0.0,0.0,0.0,0.0,0.0,0.0,0.0,0.0,0.0,0.0,0.0,0.0,0.0,0.0,0.0,0.0,0.0,0.0,-2.3595,-2.3595,-2.3595,-2.3595,-2.3659,-2.3921,-2.4389,-2.4471,-2.502,-2.611,-2.6286,-2.673,-2.7441,-2.7626,-2.7992,-2.8555,-2.9201,-2.9769,-3.026,-3.092,-3.119,-3.119,-3.119,-3.119,-3.119,-3.119,-3.119,-3.119,-3.119,-3.1241,-3.1309,-3.1224,-3.1241,-3.1309,-3.1224,-3.119,-3.119,-3.119,-3.119,-3.119,-3.119,-3.119,-3.0955,-2.9783,-2.9451,-2.9111,-2.7968,-2.7635,-2.76,-2.76,-2.76,-2.76,-2.76,-2.76,-2.76,-2.76,-2.76,-2.7405,-2.6806,-2.6692,-2.6467,-2.5809,-2.5187,-2.4769,-2.4619,-2.3522,-2.2766,-2.2709,-2.1537,-2.0795,-2.0795,-2.0182,-1.9798,-1.9798,-1.9798,-1.9798,-1.9798,-1.9798,-1.9798,-1.9798,-1.9798,-1.9798,-1.9773,-1.9044,-1.8313,-0.8223,-0.7817,-0.8022,-0.8014,0.0,0.0,0.0,0.0,0.0,0.0,0.0,0.0,0.0,0.0,0.0,0.0,0.0,0.0,0.0,0.0,0.0,0.0,0.0,0.0,0.0,0.0,-2.3092,-2.3565,-2.3595,-2.3595,-2.3595,-2.4012,-2.4287,-2.441,-2.4816,-2.5628,-2.6869,-2.6907,-2.7808,-2.952,-2.9559,-2.9947,-3.0634,-3.0749,-3.0892,-3.0987,-3.114,-3.119,-3.119,-3.119,-3.119,-3.119,-3.119,-3.119,-3.119,-3.119,-3.1582,-3.2005,-3.1413,-3.1599,-3.1989,-3.1376,-3.119,-3.119,-3.119,-3.119,-3.119,-3.119,-3.119,-3.1035,-3.0314,-2.9761,-2.9225,-2.8511,-2.7944,-2.76,-2.76,-2.76,-2.76,-2.76,-2.76,-2.76,-2.76,-2.76,-2.7555,-2.742,-2.7405,-2.7165,-2.6482,-2.6288,-2.5809,-2.4724,-2.3955,-2.3302,-2.2752,-2.1537,-2.0795,-2.0795,-2.0182,-1.9798,-1.9798,-1.9798,-1.9798,-1.9798,-1.9798,-1.9798,-1.9798,-1.9798,-1.9798,-1.9773,-1.9044,-1.8313,-0.8713,-0.8007,-0.8116,-0.8378,0.0,0.0,0.0,0.0,0.0,0.0,0.0,0.0,0.0,0.0,0.0,0.0,0.0,0.0,0.0,0.0,0.0,0.0,0.0,0.0,0.0,0.0,-2.2957,-2.355,-2.3595,-2.3595,-2.3595,-2.4116,-2.4687,-2.5336,-2.5883,-2.6756,-2.8055,-2.8404,-2.9106,-3.0108,-3.048,-3.0835,-3.119,-3.119,-3.119,-3.119,-3.119,-3.119,-3.1224,-3.1616,-3.1752,-3.1752,-3.1752,-3.1752,-3.1802,-3.2154,-3.2527,-3.2797,-3.2425,-3.2544,-3.278,-3.2408,-3.2307,-3.2222,-3.187,-3.1478,-3.119,-3.119,-3.119,-3.0995,-3.0102,-2.9629,-2.918,-2.8271,-2.781,-2.76,-2.76,-2.76,-2.76,-2.76,-2.76,-2.76,-2.76,-2.76,-2.76,-2.76,-2.76,-2.748,-2.7151,-2.6821,-2.6333,-2.5674,-2.4163,-2.3073,-2.2739,-2.1238,-2.0295,-2.0295,-2.0003,-1.9798,-1.9798,-1.9798,-1.9798,-1.9798,-1.9798,-1.9798,-1.9798,-1.9798,-1.9618,-1.9228,-1.8874,-1.8124,-0.9757,-0.8929,-0.9002,0.0,0.0,-0.9028,0.0,0.0,0.0,0.0,0.0,0.0,0.0,0.0,0.0,0.0,0.0,0.0,0.0,0.0,0.0,0.0,0.0,0.0,0.0,0.0,-2.2485,-2.3661,-2.3236,-2.3197,-2.387,-2.4452,-2.5289,-2.6418,-2.712,-2.8035,-2.9194,-2.9803,-3.0176,-3.0328,-3.092,-3.119,-3.119,-3.119,-3.119,-3.1207,-3.1343,-3.141,-3.1461,-3.2209,-3.2513,-3.2513,-3.2513,-3.2513,-3.2581,-3.3186,-3.3491,-3.3592,-3.3457,-3.3491,-3.3592,-3.3457,-3.3406,-3.3288,-3.2679,-3.2087,-3.1579,-3.1444,-3.1334,-3.0985,-2.9859,-2.9406,-2.8973,-2.8018,-2.7685,-2.76,-2.76,-2.76,-2.76,-2.76,-2.76,-2.76,-2.76,-2.76,-2.76,-2.76,-2.76,-2.76,-2.76,-2.7136,-2.6746,-2.6602,-2.4486,-2.2948,-2.2713,-2.1015,-1.9924,-1.9811,-1.9798,-1.9798,-1.9798,-1.9798,-1.9798,-1.9798,-1.9798,-1.9798,-1.9798,-1.9798,-1.9423,-1.8688,-1.8555,-1.7759,0.0,0.0,0.0,0.0,-1.0893,0.0,0.0,0.0,-0.8699,0.0,0.0,0.0,0.0,0.0,0.0,0.0,0.0,0.0,0.0,0.0,0.0,0.0,0.0,0.0,0.0,0.0,0.0,0.0,-2.1885,-2.1766,-2.4846,-2.5695,-2.6373,-2.6989,-2.8157,-2.9175,-2.9973,-3.0074,-3.0429,-3.1072,-3.1157,-3.119,-3.119,-3.119,-3.119,-3.1241,-3.1904,-3.2175,-3.2226,-3.2966,-3.3288,-3.3288,-3.3288,-3.3288,-3.3288,-3.3372,-3.3812,-3.4269,-3.3626,-3.3829,-3.4269,-3.3609,-3.3406,-3.3389,-3.3305,-3.322,-3.3017,-3.2361,-3.1792,-3.1208,-3.0394,-2.9406,-2.8559,-2.8415,-2.7993,-2.76,-2.76,-2.76,-2.76,-2.76,-2.76,-2.76,-2.76,-2.76,-2.76,-2.76,-2.76,-2.76,-2.76,-2.7525,-2.727,-2.6647,-2.5234,-2.3861,-2.2796,-2.1407,-2.0377,-1.9836,-1.9798,-1.9798,-1.9798,-1.9798,-1.9798,-1.9798,-1.9798,-1.9798,-1.9798,-1.9798,-1.9423,-1.8688,-1.8043,-1.7274,0.0,0.0,0.0,0.0,0.0,0.0,-0.8862,0.0,-0.781,0.0,0.0,0.0,0.0,0.0,0.0,0.0,0.0,0.0,0.0,0.0,0.0,0.0,0.0,0.0,0.0,0.0,0.0,0.0,0.0,-2.1806,-2.5038,-2.5778,-2.6613,-2.7715,-2.8568,-2.9568,-3.0734,-3.0734,-3.0886,-3.119,-3.119,-3.119,-3.119,-3.119,-3.1427,-3.187,-3.2175,-3.2547,-3.3,-3.3728,-3.4032,-3.4083,-3.4501,-3.4421,-3.4083,-3.4523,-3.4856,-3.5098,-3.4771,-3.4895,-3.5098,-3.4771,-3.4404,-3.4032,-3.4032,-3.3453,-3.2768,-3.2452,-3.1627,-3.0681,-3.0002,-2.9171,-2.8415,-2.8067,-2.7785,-2.76,-2.76,-2.76,-2.76,-2.76,-2.76,-2.76,-2.76,-2.76,-2.76,-2.76,-2.76,-2.76,-2.76,-2.76,-2.748,-2.721,-2.5578,-2.4291,-2.3792,-2.2152,-2.093,-2.0365,-1.9987,-1.9798,-1.9798,-1.9798,-1.9798,-1.9798,-1.9798,-1.9798,-1.9798,-1.9371,-1.8768,-1.8058,-1.7743,-1.6968,-1.5954,0.0,0.0,0.0,0.0,0.0,0.0,0.0,0.0,0.0,0.0,0.0,0.0,0.0,0.0,0.0,0.0,0.0,0.0,0.0,0.0,0.0,0.0,0.0,0.0,0.0,0.0,0.0,0.0,0.0,-2.5403,-2.6051,-2.6961,-2.8372,-2.8977,-2.9905,-3.119,-3.119,-3.119,-3.119,-3.119,-3.119,-3.1207,-3.1413,-3.1802,-3.2327,-3.2733,-3.3203,-3.3761,-3.4506,-3.4793,-3.4861,-3.538,-3.5261,-3.4861,-3.5397,-3.56,-3.56,-3.56,-3.56,-3.56,-3.56,-3.525,-3.4793,-3.4793,-3.3968,-3.2965,-3.2745,-3.1747,-3.0582,-2.9959,-2.9144,-2.8431,-2.7971,-2.7735,-2.76,-2.76,-2.76,-2.76,-2.76,-2.76,-2.76,-2.76,-2.76,-2.76,-2.76,-2.76,-2.76,-2.76,-2.76,-2.76,-2.76,-2.6075,-2.4905,-2.4512,-2.2972,-2.1718,-2.0983,-2.0377,-2.0037,-2.0037,-1.9886,-1.9798,-1.9798,-1.9798,-1.9798,-1.9798,-1.9071,-1.8313,-1.7605,-1.7385,-1.6613,0.0,0.0,0.0,-1.3744,0.0,0.0,0.0,0.0,-0.902,0.0,0.0,0.0,0.0,0.0,0.0,0.0,0.0,0.0,0.0,0.0,0.0,0.0,0.0,0.0,0.0,0.0,0.0,0.0,0.0,0.0,0.0,-2.6909,-2.7657,-2.8922,-2.9685,-3.0429,-3.119,-3.119,-3.119,-3.119,-3.119,-3.119,-3.1207,-3.1938,-3.2276,-3.2378,-3.3816,-3.4438,-3.4523,-3.5267,-3.5566,-3.5566,-3.5583,-3.5583,-3.5566,-3.5583,-3.56,-3.56,-3.56,-3.56,-3.56,-3.56,-3.5583,-3.5566,-3.5566,-3.5071,-3.4362,-3.3663,-3.256,-3.1373,-3.067,-2.9535,-2.8588,-2.8562,-2.8053,-2.76,-2.76,-2.76,-2.76,-2.76,-2.76,-2.76,-2.76,-2.76,-2.76,-2.76,-2.76,-2.76,-2.76,-2.76,-2.76,-2.76,-2.6916,-2.5918,-2.4607,-2.3797,-2.2813,-2.1549,-2.0968,-2.0666,-2.0666,-2.01,-1.9798,-1.9798,-1.9798,-1.9798,-1.9798,-1.9071,-1.8313,-1.7578,-1.6866,-1.6122,0.0,0.0,-2.3464,-1.7926,0.0,0.0,0.0,0.0,0.0,0.0,0.0,0.0,0.0,0.0,0.0,0.0,0.0,0.0,0.0,0.0,0.0,0.0,0.0,0.0,0.0,0.0,0.0,0.0,0.0,0.0,0.0,-2.6791,-2.7497,-2.8959,-2.9247,-2.9956,-3.119,-3.119,-3.119,-3.1207,-3.1701,-3.1938,-3.1955,-3.2679,-3.3288,-3.3778,-3.4269,-3.4776,-3.5245,-3.5498,-3.56,-3.56,-3.56,-3.56,-3.56,-3.56,-3.56,-3.56,-3.56,-3.56,-3.56,-3.56,-3.56,-3.56,-3.56,-3.5121,-3.4454,-3.3745,-3.2621,-3.1411,-3.0673,-2.9889,-2.9146,-2.8712,-2.8427,-2.8128,-2.7705,-2.76,-2.76,-2.76,-2.76,-2.76,-2.76,-2.76,-2.76,-2.76,-2.76,-2.76,-2.76,-2.76,-2.76,-2.76,-2.693,-2.6117,-2.5176,-2.3619,-2.2496,-2.2074,-2.1546,-2.1069,-2.0704,-2.0503,-2.0214,-1.9811,-1.9798,-1.9798,-1.9798,-1.8581,-1.7841,-1.7578,-1.633,-1.5642,-2.6437,-2.6589,0.0,-2.1072,-1.9876,0.0,-1.3261,0.0,0.0,0.0,0.0,0.0,0.0,0.0,0.0,0.0,0.0,0.0,0.0,0.0,0.0,0.0,0.0,0.0,0.0,0.0,0.0,0.0,0.0,0.0,0.0,0.0,-2.7672,-2.8959,-2.9264,-2.9973,-3.119,-3.119,-3.1326,-3.1616,-3.2073,-3.2446,-3.2733,-3.3457,-3.4049,-3.4506,-3.4776,-3.5165,-3.56,-3.56,-3.56,-3.56,-3.56,-3.56,-3.56,-3.56,-3.56,-3.56,-3.56,-3.56,-3.56,-3.56,-3.56,-3.56,-3.56,-3.5121,-3.4454,-3.3754,-3.278,-3.1766,-3.1019,-3.0385,-2.9804,-2.9385,-2.8936,-2.8472,-2.8064,-2.7764,-2.76,-2.76,-2.76,-2.76,-2.76,-2.76,-2.76,-2.76,-2.76,-2.76,-2.76,-2.76,-2.76,-2.76,-2.7163,-2.6496,-2.5481,-2.3678,-2.2581,-2.2581,-2.2083,-2.1619,-2.1295,-2.0893,-2.0515,-2.0138,-1.9911,-1.9669,-1.9397,-1.8447,-1.7715,-1.7202,-1.6226,-1.5642]},{"header":{"parameterUnit":"m.s-1","parameterCategory":1,"la1":30.6,"la2":29.2853,"lo1":-89.7004,"lo2":-87.6739,"dx":0.0162,"dy":0.0183,"nx":112,"ny":82,"refTime":"2023-01-06T18:00:00:Z","depth":0,"parameterNumber":3,"parameterNumberName":"V-component_of_WINDS"},"data":[0.0,0.0,0.0,0.0,0.0,0.0,0.0,0.0,0.0,0.0,0.0,0.0,0.0,0.0,0.0,0.0,0.0,0.0,0.0,0.0,0.0,0.0,0.0,0.0,0.0,0.0,0.0,0.0,0.0,0.0,0.0,0.0,0.0,0.0,0.0,0.0,0.0,0.0,0.0,0.0,0.0,0.0,0.0,0.0,0.0,0.0,0.0,0.0,0.0,0.0,0.0,0.0,0.0,0.0,0.0,0.0,0.0,0.0,0.0,0.0,0.0,0.0,0.0,0.0,0.0,0.0,0.0,0.0,0.0,0.0,0.0,0.0,0.0,0.0,0.0,0.0,0.0,0.0,0.0,0.0,0.0,0.0,0.0,0.0,0.0,0.0,0.0,0.0,0.0,0.0,1.98,2.1517,2.4173,2.6143,2.6933,2.6445,2.455,2.0904,0.0,0.0,0.0,0.0,0.0,0.0,0.0,0.0,0.0,0.0,0.0,0.0,0.0,0.0,0.0,0.0,0.0,0.0,0.0,0.0,0.0,0.0,0.0,0.0,0.0,0.0,0.0,0.0,0.0,0.0,0.0,0.0,0.0,0.0,0.0,0.0,0.0,0.0,0.0,0.0,0.0,0.0,0.0,0.0,0.0,0.0,0.0,0.0,0.0,0.0,0.0,0.0,0.0,0.0,0.0,0.0,0.0,0.0,0.0,0.0,0.0,0.0,0.0,0.0,0.0,0.0,0.0,0.0,0.0,0.0,0.0,0.0,0.0,0.0,0.0,0.0,0.0,0.0,0.0,0.0,0.0,0.0,0.0,0.0,0.0,0.0,0.0,0.0,0.0,0.0,0.0,0.0,0.0,0.0,0.0,0.0,0.0,0.0,0.0,0.0,0.0,0.0,0.0,0.0,1.9486,2.4302,2.5991,2.6855,2.6992,2.7559,2.6072,2.1785,0.0,0.0,0.0,0.0,0.0,0.0,0.0,0.0,0.0,0.0,0.0,0.0,0.0,0.0,0.0,0.0,0.0,0.0,0.0,0.0,0.0,0.0,0.0,0.0,0.0,0.0,0.0,0.0,0.0,0.0,0.0,0.0,0.0,0.0,0.0,0.0,0.0,0.0,0.0,0.0,0.0,0.0,0.0,0.0,0.0,0.0,0.0,0.0,0.0,0.0,0.0,0.0,0.0,0.0,0.0,0.0,0.0,0.0,0.0,0.0,0.0,0.0,0.0,0.0,0.0,0.0,0.0,0.0,0.0,0.0,0.0,0.0,0.0,0.0,0.0,0.0,0.0,0.0,0.0,0.0,0.0,0.0,0.0,0.0,0.0,0.0,0.0,0.0,0.0,0.0,0.0,0.0,0.0,0.0,0.0,0.0,0.0,0.0,0.0,0.0,0.0,0.0,0.0,1.8287,2.124,2.5781,2.6691,2.7383,2.832,2.834,2.6618,2.2642,2.0012,0.0,0.0,0.0,0.0,0.0,0.0,0.0,0.0,0.0,0.0,0.0,0.0,0.0,0.0,0.0,0.0,0.0,0.0,0.0,0.0,0.0,0.0,0.0,0.0,0.0,0.0,0.0,0.0,0.0,0.0,0.0,0.0,0.0,0.0,0.0,0.0,0.0,0.0,0.0,0.0,0.0,0.0,0.0,0.0,0.0,0.0,0.0,0.0,0.0,0.0,0.0,0.0,0.0,0.0,0.0,0.0,0.0,0.0,0.0,0.0,0.0,0.0,0.0,0.0,0.0,0.0,0.0,0.0,0.0,0.0,0.0,0.0,0.0,0.0,0.0,0.0,0.0,0.0,0.0,0.0,0.0,0.0,0.0,0.0,0.0,0.0,0.0,0.0,0.0,0.0,0.0,0.0,0.0,0.0,0.0,0.0,0.0,0.0,0.0,0.0,0.0,0.0,2.1546,2.3552,2.6575,2.7145,2.793,2.9473,2.8984,2.6986,2.3248,2.0585,0.0,0.0,0.0,0.0,0.0,0.0,0.0,0.0,0.0,0.0,0.0,0.0,0.0,0.0,0.0,0.0,0.0,0.0,0.0,0.0,0.0,0.0,0.0,0.0,0.0,0.0,0.0,0.0,0.0,0.0,0.0,0.0,0.0,0.0,0.0,0.0,0.0,0.0,0.0,0.0,0.0,0.0,0.0,0.0,0.0,0.0,0.0,0.0,0.0,0.0,0.0,0.0,0.0,0.0,0.0,0.0,0.0,0.0,0.0,0.0,0.0,0.0,0.0,0.0,0.0,0.0,0.0,0.0,0.0,0.0,0.0,0.0,0.0,0.0,0.0,0.0,0.0,0.0,0.0,0.0,0.0,0.0,0.0,0.0,0.0,0.0,0.0,0.0,0.0,0.0,0.0,0.0,0.0,0.0,0.0,0.0,0.0,0.0,0.0,0.0,0.0,0.0,2.2255,2.5715,2.6793,2.7692,2.8594,2.9512,2.9485,2.7575,2.3265,2.0495,0.0,0.0,0.0,0.0,0.0,0.0,0.0,0.0,0.0,0.0,0.0,0.0,0.0,0.0,0.0,0.0,0.0,0.0,0.0,0.0,0.0,0.0,0.0,0.0,0.0,0.0,0.0,0.0,0.0,0.0,0.0,0.0,0.0,0.0,0.0,0.0,0.0,0.0,0.0,0.0,0.0,0.0,0.0,0.0,0.0,0.0,0.0,0.0,0.0,0.0,0.0,0.0,0.0,0.0,0.0,0.0,0.0,0.0,0.0,0.0,0.0,0.0,0.0,0.0,0.0,0.0,0.0,0.0,0.0,0.0,0.0,0.0,0.0,0.0,0.0,0.0,0.0,0.0,0.0,0.0,0.0,0.0,0.0,0.0,0.0,0.0,0.0,0.0,0.0,0.0,0.0,0.0,0.0,0.0,0.0,0.0,0.0,0.0,0.0,0.0,0.0,0.0,2.1437,2.4993,0.0,2.8574,2.9453,3.0332,3.0389,2.8059,2.2608,0.0,0.0,0.0,0.0,0.0,0.0,0.0,0.0,0.0,0.0,0.0,0.0,0.0,0.0,0.0,0.0,0.0,0.0,0.0,0.0,0.0,0.0,0.0,0.0,0.0,0.0,0.0,0.0,0.0,0.0,0.0,0.0,0.0,0.0,0.0,0.0,0.0,0.0,0.0,0.0,0.0,0.0,0.0,0.0,0.0,0.0,0.0,0.0,0.0,0.0,0.0,0.0,0.0,0.0,0.0,0.0,0.0,0.0,0.0,0.0,0.0,0.0,0.0,0.0,0.0,0.0,0.0,0.0,0.0,0.0,0.0,0.0,0.0,0.0,0.0,0.0,0.0,0.0,0.0,0.0,0.0,0.0,0.0,0.0,0.0,0.0,0.0,0.0,0.0,0.0,0.0,0.0,0.0,0.0,0.0,0.0,0.0,0.0,0.0,0.0,0.0,0.0,1.7383,2.1631,2.5351,0.0,2.9082,2.9941,3.082,3.0624,2.7983,2.2162,0.0,0.0,0.0,0.0,0.0,0.0,0.0,0.0,0.0,0.0,0.0,0.0,0.0,0.0,0.0,0.0,0.0,0.0,0.0,0.0,0.0,0.0,0.0,0.0,0.0,0.0,0.0,0.0,0.0,0.0,0.0,0.0,0.0,0.0,0.0,0.0,0.0,0.0,0.0,0.0,0.0,0.0,0.0,0.0,0.0,0.0,0.0,0.0,0.0,0.0,0.0,0.0,0.0,0.0,0.0,0.0,0.0,0.0,0.0,0.0,0.0,0.0,0.0,0.0,0.0,0.0,0.0,0.0,0.0,0.0,0.0,0.0,0.0,0.0,0.0,0.0,0.0,0.0,0.0,0.0,0.0,0.0,0.0,0.0,0.0,0.0,0.0,0.0,0.0,0.0,0.0,0.0,0.0,0.0,0.0,0.0,0.0,0.0,0.0,0.0,0.0,0.0,1.7693,2.3239,2.7344,2.8223,2.9082,2.9961,3.082,3.0051,2.7302,0.0,0.0,0.0,0.0,0.0,0.0,0.0,0.0,0.0,0.0,0.0,0.0,0.0,0.0,0.0,0.0,0.0,0.0,0.0,0.0,0.0,0.0,0.0,0.0,0.0,0.0,0.0,0.0,0.0,0.0,0.0,0.0,0.0,0.0,0.0,0.0,0.0,0.0,0.0,0.0,0.0,0.0,0.0,0.0,0.0,0.0,0.0,0.0,0.0,0.0,0.0,0.0,0.0,0.0,0.0,0.0,0.0,0.0,0.0,0.0,0.0,0.0,0.0,0.0,0.0,0.0,0.0,0.0,0.0,0.0,0.0,0.0,0.0,0.0,0.0,0.0,0.0,0.0,0.0,0.0,0.0,0.0,0.0,0.0,0.0,0.0,0.0,0.0,0.0,0.0,0.0,0.0,0.0,0.0,0.0,0.0,0.0,0.0,0.0,0.0,0.0,0.0,0.0,1.8515,2.4138,2.8242,2.9121,3.0,3.0625,3.0879,3.0557,2.7632,2.1286,0.0,0.0,0.0,0.0,0.0,0.0,0.0,0.0,0.0,0.0,0.0,0.0,0.0,0.0,0.0,0.0,0.0,0.0,0.0,0.0,0.0,0.0,0.0,0.0,0.0,0.0,0.0,0.0,0.0,0.0,0.0,0.0,0.0,0.0,0.0,0.0,0.0,0.0,0.0,0.0,0.0,0.0,0.0,0.0,0.0,0.0,0.0,0.0,0.0,0.0,0.0,0.0,0.0,0.0,0.0,0.0,0.0,0.0,0.0,0.0,0.0,0.0,0.0,0.0,0.0,0.0,0.0,0.0,0.0,0.0,0.0,0.0,0.0,0.0,0.0,0.0,0.0,0.0,0.0,0.0,0.0,0.0,0.0,0.0,0.0,0.0,0.0,0.0,0.0,0.0,0.0,0.0,0.0,0.0,0.0,0.0,0.0,0.0,0.0,0.0,0.0,0.0,1.8926,2.4821,2.9023,2.9531,3.0371,3.0898,3.0898,3.0771,2.8369,2.2876,0.0,0.0,0.0,0.0,0.0,0.0,0.0,0.0,0.0,0.0,0.0,0.0,0.0,0.0,0.0,0.0,0.0,0.0,0.0,0.0,0.0,0.0,0.0,0.0,0.0,0.0,0.0,0.0,0.0,0.0,0.0,0.0,0.0,0.0,0.0,0.0,0.0,0.0,0.0,0.0,0.0,0.0,0.0,0.0,0.0,0.0,0.0,0.0,0.0,0.0,0.0,0.0,0.0,0.0,0.0,0.0,0.0,0.0,0.0,0.0,0.0,0.0,0.0,0.0,0.0,0.0,0.0,0.0,0.0,0.0,0.0,0.0,0.0,0.0,0.0,0.0,0.0,0.0,0.0,0.0,0.0,0.0,0.0,0.0,0.0,0.0,0.0,0.0,0.0,0.0,0.0,0.0,0.0,0.0,0.0,0.0,0.0,0.0,0.0,0.0,0.0,0.0,1.9082,2.5349,2.9629,2.9707,3.043,3.0898,3.0879,3.0767,2.9235,2.581,0.0,0.0,0.0,0.0,0.0,0.0,0.0,0.0,0.0,0.0,0.0,0.0,0.0,0.0,0.0,0.0,0.0,0.0,0.0,0.0,0.0,0.0,0.0,0.0,0.0,0.0,0.0,0.0,0.0,0.0,0.0,0.0,0.0,0.0,0.0,0.0,0.0,0.0,0.0,0.0,0.0,0.0,0.0,0.0,0.0,0.0,0.0,0.0,0.0,0.0,0.0,0.0,0.0,0.0,0.0,0.0,0.0,0.0,0.0,0.0,1.6035,0.0,0.0,0.0,0.0,0.0,0.0,0.0,0.0,0.0,0.0,0.0,0.0,0.0,0.0,0.0,0.0,0.0,0.0,0.0,0.0,0.0,0.0,0.0,0.0,0.0,0.0,0.0,0.0,0.0,0.0,0.0,0.0,0.0,0.0,0.0,0.0,0.0,0.0,0.0,0.0,0.0,1.9923,2.57,2.9863,3.0547,3.0781,3.0858,3.0746,3.0665,2.9149,2.5667,2.4623,0.0,0.0,0.0,0.0,0.0,0.0,0.0,0.0,0.0,0.0,0.0,0.0,0.0,0.0,0.0,0.0,0.0,0.0,0.0,0.0,0.0,0.0,0.0,0.0,0.0,0.0,0.0,0.0,0.0,0.0,0.0,0.0,0.0,0.0,0.0,0.0,0.0,0.0,0.0,0.0,0.0,0.0,0.0,0.0,0.0,0.0,0.0,0.0,0.0,0.0,0.0,0.0,0.0,0.0,0.0,0.0,0.0,0.0,0.0,0.0,1.6677,0.0,0.0,0.0,0.0,0.0,0.0,0.0,0.0,0.0,0.0,0.0,0.0,0.0,0.0,0.0,0.0,0.0,0.0,0.0,0.0,0.0,0.0,0.0,0.0,0.0,0.0,0.0,0.0,0.0,0.0,0.0,0.0,0.0,0.0,0.0,0.0,0.0,0.0,0.0,0.0,2.0275,2.6189,3.0391,3.0859,3.0898,3.0857,3.0717,3.0645,2.9817,2.7966,2.6217,0.0,0.0,0.0,0.0,0.0,0.0,0.0,0.0,0.0,0.0,0.0,0.0,0.0,0.0,0.0,0.0,0.0,0.0,0.0,0.0,0.0,0.0,0.0,0.0,0.0,0.0,0.0,0.0,0.0,0.0,0.0,0.0,0.0,0.0,0.0,0.0,0.0,0.0,0.0,0.0,0.0,0.0,0.0,0.0,0.0,0.0,0.0,0.0,0.0,0.0,0.0,0.0,0.0,0.0,1.9316,1.9313,1.9313,2.0485,2.2419,2.0254,2.0272,2.1482,0.0,0.0,0.0,0.0,0.0,0.0,0.0,0.0,0.0,0.0,0.0,0.0,0.0,0.0,0.0,0.0,0.0,0.0,0.0,0.0,0.0,0.0,0.0,0.0,0.0,2.0766,2.1632,0.0,0.0,0.0,0.0,0.0,0.0,0.0,0.0,0.0,0.0,0.0,0.0,2.1,2.6873,3.0898,3.0898,3.0898,3.0837,3.0689,3.0621,3.0561,3.0495,2.7783,2.5581,0.0,0.0,0.0,0.0,0.0,0.0,0.0,0.0,0.0,0.0,0.0,0.0,0.0,0.0,0.0,0.0,0.0,0.0,0.0,0.0,0.0,0.0,0.0,0.0,0.0,0.0,0.0,0.0,0.0,0.0,0.0,0.0,1.7727,1.8665,0.0,0.0,0.0,0.0,0.0,0.0,0.0,0.0,0.0,0.0,0.0,0.0,0.0,0.0,1.7903,2.0091,2.1193,2.1247,2.3443,2.4518,2.4516,2.4516,2.4691,2.5009,2.4718,0.0,2.1836,2.1092,0.0,0.0,0.0,0.0,0.0,0.0,0.0,0.0,0.0,0.0,0.0,0.0,0.0,0.0,0.0,0.0,0.0,0.0,0.0,0.0,0.0,0.0,2.4728,2.5369,2.519,2.4989,0.0,2.1299,1.7286,1.6251,0.0,0.0,0.0,0.0,0.0,0.0,0.0,0.0,2.3471,2.7988,3.0898,3.0898,3.0898,3.0813,3.063,3.0609,3.0552,3.0411,2.9973,2.8324,2.5159,2.3908,0.0,0.0,0.0,0.0,0.0,0.0,0.0,0.0,0.0,0.0,0.0,0.0,0.0,0.0,0.0,0.0,0.0,0.0,0.0,0.0,0.0,0.0,0.0,0.0,0.0,0.0,0.0,0.0,0.0,1.7091,1.8362,1.9746,1.805,1.6198,0.0,0.0,0.0,0.0,0.0,0.0,0.0,0.0,0.0,1.9982,2.0506,2.1213,2.2153,2.3275,2.3845,2.3845,2.4961,2.5761,2.6203,2.5722,2.5761,2.6203,2.5749,2.4934,2.3819,2.2421,2.0741,1.8905,0.0,0.0,0.0,0.0,0.0,1.7234,1.9908,0.0,0.0,0.0,0.0,0.0,0.0,0.0,0.0,0.0,0.0,0.0,0.0,0.0,0.0,2.7068,2.7203,2.7,2.7371,2.5366,2.2659,0.0,1.8538,1.6684,1.2764,0.0,0.0,0.0,0.0,2.3393,2.4938,2.8515,3.0898,3.0898,3.0898,3.0811,3.0617,3.0603,3.0545,3.0402,3.0404,2.9719,2.8197,2.5891,2.3176,0.0,0.0,0.0,0.0,0.0,0.0,0.0,0.0,0.0,0.0,0.0,0.0,0.0,0.0,0.0,0.0,0.0,0.0,0.0,0.0,0.0,0.0,0.0,0.0,0.0,0.0,0.0,0.0,1.8544,1.9599,2.0912,1.9925,1.8125,0.0,0.0,0.0,0.0,0.0,0.0,1.9112,1.974,2.0881,2.2627,2.3275,2.4208,2.5463,2.5676,2.578,2.578,2.6013,2.6456,2.7068,2.6418,2.6476,2.7051,2.642,2.6004,2.5646,2.3674,2.2596,2.201,2.0058,1.9041,0.0,1.9818,1.9822,1.9727,2.2695,2.3319,2.2825,2.2825,0.0,2.1498,1.9548,0.0,0.0,0.0,0.0,2.1208,2.3758,0.0,2.5859,2.7952,2.8292,2.8173,2.8389,2.8077,2.6865,0.0,2.2213,2.0184,1.6326,0.0,0.0,0.0,0.0,2.5935,2.6619,2.916,3.0898,3.0898,3.0898,3.0833,3.0643,3.0614,3.0556,3.0419,3.0408,3.0404,3.0404,2.7904,2.6048,2.5006,0.0,0.0,0.0,0.0,0.0,0.0,0.0,0.0,0.0,0.0,0.0,0.0,0.0,0.0,0.0,0.0,0.0,0.0,0.0,0.0,0.0,0.0,0.0,0.0,0.0,0.0,0.0,0.0,0.0,2.2853,2.2782,0.0,0.0,0.0,0.0,1.8976,1.9743,2.0998,2.2647,2.2785,2.357,2.5255,2.5286,2.5316,2.5406,2.6154,2.6545,2.6545,2.7372,2.7796,2.7834,2.7796,2.7796,2.7839,2.7873,2.7396,2.6579,2.5742,2.4489,2.3026,2.2889,2.1875,2.0664,2.2293,2.2888,2.3097,2.4797,2.5345,2.5325,2.5325,2.3677,2.1696,2.1541,2.0409,0.0,0.0,2.3471,2.4746,2.7363,2.8066,2.8319,2.9216,2.8801,2.8403,2.9168,2.8036,2.703,0.0,2.7702,2.6814,2.416,0.0,2.397,2.3881,2.4918,2.66,2.9082,3.0273,3.0898,3.0898,3.0898,3.0838,3.0714,3.0645,3.0568,3.0498,3.0444,3.0404,3.0404,3.0225,2.8587,2.5258,2.4117,0.0,0.0,0.0,0.0,0.0,0.0,0.0,0.0,0.0,0.0,0.0,0.0,0.0,0.0,0.0,0.0,0.0,0.0,0.0,0.0,0.0,0.0,0.0,0.0,0.0,0.0,0.0,0.0,2.284,2.3248,0.0,2.0105,2.1647,2.2362,2.1361,2.2575,2.3592,2.4132,2.4645,2.5199,2.5795,2.6308,2.6555,2.6568,2.6837,2.698,2.698,2.7291,2.7716,2.8198,2.7697,2.7825,2.8447,2.7903,2.7599,2.747,2.7244,2.6157,2.4643,2.4641,2.4276,2.3823,2.4413,2.4641,2.4736,2.5303,2.5491,2.5491,2.5491,2.4883,2.4158,2.4158,2.3722,2.3445,2.4386,2.5685,2.7002,2.7922,2.8975,2.9856,3.0146,2.9971,2.9817,3.0103,2.9673,2.9338,2.9652,2.8416,2.6685,2.4654,2.6196,2.7144,2.5487,2.7402,2.9375,3.0312,3.0703,3.0898,3.0898,3.0898,3.0857,3.0717,3.068,3.0625,3.0511,3.0477,3.0451,3.041,3.0404,2.9442,2.7367,2.6512,2.3093,0.0,0.0,0.0,0.0,0.0,0.0,0.0,0.0,0.0,0.0,0.0,0.0,0.0,0.0,0.0,0.0,0.0,0.0,0.0,0.0,0.0,0.0,0.0,0.0,0.0,0.0,2.2294,2.2571,2.3507,2.3307,2.1153,2.2998,2.4041,2.3328,2.4562,2.5294,2.5205,2.5974,2.6411,2.6411,2.693,2.7204,2.7204,2.7476,2.7597,2.7616,2.7899,2.8322,2.8829,2.8284,2.8431,2.9065,2.8487,2.8179,2.8077,2.8117,2.732,2.6062,2.597,2.5934,2.5892,2.5582,2.5477,2.5451,2.5444,2.5431,2.5431,2.5431,2.5431,2.5431,2.5431,2.5453,2.5535,2.5829,2.6759,2.7729,2.8023,2.8918,2.9755,2.9755,2.9755,2.9755,2.9755,2.9755,2.9755,2.9755,2.8906,2.7812,2.6659,2.8457,2.9258,2.6934,2.9043,3.0684,3.0098,3.0547,3.0898,3.0898,3.0898,3.0858,3.0771,2.9939,2.9632,3.0124,2.9594,2.9343,2.9591,2.9037,2.8178,2.7034,2.6136,2.3156,1.8016,0.0,0.0,0.0,0.0,0.0,0.0,0.0,0.0,0.0,0.0,0.0,0.0,0.0,0.0,0.0,0.0,0.0,0.0,0.0,0.0,0.0,0.0,0.0,2.0988,2.1736,2.2264,2.2277,2.3769,2.4134,2.2484,2.3844,2.4853,2.4865,2.5589,2.6026,2.6018,2.6782,2.7226,2.7226,2.7244,2.7263,2.7263,2.8033,2.8426,2.8426,2.9264,2.9678,2.9678,2.9678,2.9687,2.9696,2.9696,2.9216,2.8443,2.8443,2.7983,2.7247,2.6921,2.6801,2.6698,2.5792,2.5437,2.5426,2.5341,2.5317,2.5298,2.5298,2.5274,2.5293,2.5298,2.5333,2.5561,2.6412,2.6725,2.6994,2.7836,2.8072,2.8092,2.8092,2.8092,2.8092,2.8092,2.8092,2.8092,2.8092,2.9457,3.0614,3.0615,3.0736,3.0234,2.8555,2.9746,0.0,2.8554,2.9824,3.0879,3.082,3.082,3.082,3.082,2.8446,2.7686,2.9425,2.7885,2.7259,2.8012,2.6412,2.5097,2.4187,2.3047,2.1712,2.0186,0.0,0.0,0.0,0.0,0.0,0.0,0.0,0.0,0.0,0.0,0.0,0.0,0.0,0.0,0.0,0.0,0.0,0.0,0.0,0.0,0.0,0.0,2.15,2.1708,2.2839,2.3766,2.4049,2.4381,2.4679,2.4926,2.5382,2.5855,2.6288,2.6532,2.6591,2.6439,2.7206,2.765,2.765,2.8212,2.8516,2.8516,2.8712,2.8852,2.8852,2.9074,2.9195,2.9195,2.9195,2.9301,2.9474,2.9474,2.943,2.9338,2.9338,2.9206,2.8883,2.7583,2.7089,2.7063,2.6794,2.6403,2.5954,2.5849,2.5482,2.5071,2.4968,2.4948,2.4949,2.5053,2.5097,2.5194,2.5577,2.6148,2.6711,2.6947,2.7473,2.7956,2.7956,2.7956,2.7956,2.7956,2.7956,2.7956,2.7956,2.8377,2.8757,2.8812,2.8852,2.8705,2.8236,0.0,0.0,2.9162,3.0069,3.0297,2.9066,2.8982,2.9004,2.9004,2.8339,2.8626,3.0267,2.9902,2.9418,2.8968,2.8489,2.745,2.5793,2.3002,2.1048,0.0,0.0,0.0,0.0,0.0,0.0,0.0,0.0,0.0,0.0,0.0,0.0,0.0,0.0,0.0,0.0,0.0,0.0,0.0,0.0,0.0,0.0,2.1739,2.2776,2.2729,2.3575,2.4413,2.4986,2.4955,2.5235,2.6171,2.6254,2.6405,2.6745,2.7086,2.7229,2.7119,2.7879,2.8301,2.8301,2.8767,2.9005,2.9005,2.9005,2.9005,2.9005,2.9005,2.9005,2.9005,2.9005,2.9078,0.0,2.9225,2.9301,2.9407,2.9407,2.9407,0.0,0.0,0.0,0.0,0.0,2.6443,2.6058,2.5642,2.5239,2.4904,2.484,2.4804,2.4799,2.4891,2.4955,2.501,2.5066,2.5507,2.5921,2.5921,2.631,2.671,2.6783,2.6813,2.6813,2.6813,2.6813,2.6813,2.6813,0.0,0.0,2.6914,2.7571,2.7844,2.7118,2.805,2.8593,0.0,2.886,2.9248,2.8252,2.8196,2.8227,2.8227,2.7239,0.0,0.0,0.0,2.7656,2.6741,2.6325,0.0,0.0,0.0,0.0,0.0,0.0,0.0,0.0,1.8474,1.7855,0.0,0.0,0.0,0.0,0.0,0.0,0.0,0.0,0.0,0.0,0.0,0.0,0.0,0.0,0.0,0.0,2.3244,2.4162,2.3869,2.4125,2.4586,2.521,2.5364,2.574,2.6596,2.6669,2.6716,2.6859,2.7497,2.7871,2.7871,0.0,0.0,0.0,0.0,2.8952,2.9005,2.9005,2.9005,2.9005,2.9005,2.9005,2.9005,2.9005,2.9005,2.9005,2.9005,2.9005,2.9005,2.9005,2.9005,2.8959,2.8605,2.8404,2.8159,2.6835,2.6185,0.0,0.0,0.0,0.0,2.4738,2.4731,2.4738,2.476,2.485,2.4924,2.4821,2.4884,2.498,2.498,2.498,2.5016,2.5198,2.5253,2.5264,2.5264,2.5279,2.5308,2.5308,2.5308,2.5308,2.5308,2.6683,2.7254,2.5704,2.6879,0.0,2.5818,2.7062,2.8006,2.7809,0.0,0.0,2.7805,2.5731,2.5184,2.6925,2.5559,2.4316,2.3554,2.264,2.2148,2.2122,2.2137,2.3254,2.5491,2.5498,2.5483,2.5362,1.987,1.8901,0.0,0.0,0.0,0.0,0.0,0.0,0.0,0.0,0.0,0.0,0.0,0.0,0.0,0.0,0.0,2.2648,2.3852,2.4667,2.4593,2.4974,2.5066,2.4563,2.5097,2.5904,2.6971,2.7079,2.7495,2.845,2.8385,2.8274,2.8274,2.8179,0.0,2.8515,2.8527,2.867,2.8994,2.9005,2.9005,2.9005,0.0,0.0,2.9005,2.9005,2.9005,2.9005,2.9005,2.9005,2.9005,2.9005,2.9005,2.8998,2.8898,2.8492,2.7967,2.8296,2.7293,2.5808,2.6143,2.5514,2.4537,2.4366,2.4321,2.4358,2.4512,2.4575,0.0,2.4768,2.4825,2.4835,2.4835,2.4835,2.4842,2.4895,2.4974,2.5071,2.5071,2.5198,2.5308,2.5308,2.5308,2.5308,2.5308,2.5606,2.5738,2.5382,2.6216,2.678,2.6424,2.735,2.7473,2.6079,2.5979,2.6002,2.6002,2.5541,2.6018,2.776,2.6909,2.625,2.6096,2.5294,2.4822,2.4764,2.4828,2.5051,2.5491,2.5457,2.5416,2.5395,2.4243,2.4022,0.0,0.0,0.0,0.0,0.0,0.0,0.0,0.0,0.0,0.0,0.0,1.9696,0.0,0.0,2.2751,2.3531,2.4169,2.4627,2.4872,2.5409,2.5736,2.5517,2.5866,2.6477,2.7469,2.7553,2.7794,2.8394,2.825,2.8156,2.8156,2.7978,2.7982,2.8143,2.8156,2.8316,2.8713,2.8694,2.8797,2.9005,2.9005,2.8887,2.8713,2.8917,2.8893,2.8707,2.8917,2.9005,2.9005,2.9005,2.9005,2.9005,2.9005,2.8748,2.8356,2.7941,2.7109,2.6076,2.557,2.4938,2.4321,2.4237,2.419,2.4218,2.4321,2.4428,2.4503,2.4503,2.4567,2.4647,2.4647,2.4647,2.4678,2.4775,2.4855,2.4897,2.4897,2.4981,2.5056,2.5056,2.5056,2.5056,2.5056,2.5056,2.5109,2.5269,2.5673,2.5942,2.5942,2.6357,2.6311,2.544,2.5387,2.5406,2.5406,2.5431,2.5846,2.6744,2.6393,2.6157,2.6157,2.5753,2.5524,2.5503,2.5536,2.5482,2.5345,2.5316,2.524,2.5141,2.5183,2.5218,0.0,0.0,0.0,0.0,0.0,0.0,0.0,1.6718,1.7447,1.893,2.0332,2.147,2.2117,2.2882,2.3607,2.4206,2.4496,2.4773,2.5172,2.5784,2.6342,2.6667,2.671,2.6999,2.7712,2.7779,2.7826,2.7897,2.784,2.7779,2.7779,2.7707,2.7692,2.7783,2.7779,2.795,2.8303,2.8368,2.8565,2.8875,2.8875,2.8707,2.842,2.8676,2.8645,2.842,2.8749,2.8875,2.8875,2.8875,2.8929,2.9005,2.9005,2.8895,2.8601,2.7299,2.6539,2.597,2.4832,2.4318,2.419,2.419,2.419,2.419,2.419,2.4321,2.441,2.4247,2.4321,2.4435,2.4435,2.4435,2.4478,2.4639,2.4716,2.4746,2.4746,2.4775,2.4804,2.4804,2.4804,2.4804,2.4804,2.4804,2.4883,2.5154,2.5192,2.5192,2.5192,2.5192,2.5192,2.5192,2.5192,2.5192,2.5192,2.526,2.5317,2.536,2.5363,2.5363,2.5363,2.536,2.5369,2.5369,2.5385,2.5273,2.5058,2.5056,2.4928,2.4695,2.4652,2.4759,1.7881,1.676,1.6011,1.6878,1.6918,1.7638,0.0,2.101,2.0638,2.1955,2.2586,2.2959,2.3047,2.3666,2.4206,2.4295,2.5212,2.5922,2.5964,2.6374,2.6656,2.6689,2.6689,2.6886,2.7317,2.738,2.7532,2.7883,2.756,2.738,2.738,2.7019,2.6987,2.7365,2.738,2.756,2.7936,2.825,2.8433,2.8458,2.8458,2.8446,2.8394,2.8129,2.8156,2.8389,2.8446,2.8458,2.8458,2.8458,2.8682,2.9005,2.9005,2.8565,2.7915,2.7732,2.63,2.4538,2.5081,2.4805,2.419,2.419,2.419,2.419,2.419,2.4209,2.4228,2.4199,2.4209,2.4237,2.4237,2.4237,2.4247,2.4257,2.441,2.4518,2.4518,2.467,2.4804,2.4804,2.4804,2.4804,2.4804,2.4804,2.4811,2.4854,2.4861,2.4861,2.4861,2.4861,2.4861,2.4861,2.4861,2.4861,2.4861,2.4862,2.4864,2.4884,2.4884,2.4884,2.4884,2.4871,2.4889,2.4889,2.4933,2.4832,2.458,2.4512,2.4325,2.4003,2.3759,2.3958,2.042,1.9753,1.9052,1.9493,1.9532,1.986,2.1451,2.1421,2.1304,2.2268,2.2584,2.2673,2.2673,2.3281,2.3922,0.0,2.5204,2.5951,2.6394,2.6588,2.6691,2.6691,2.6691,2.6775,2.6939,2.6955,2.7019,2.7194,2.7035,2.6955,2.6955,2.6791,2.6775,2.6955,2.6955,2.7147,2.7562,2.7689,2.7876,2.8102,2.8102,2.7992,2.7762,2.7851,2.7982,2.8102,2.8102,2.8102,2.8102,2.8102,2.8215,2.8365,2.8365,2.7705,2.6779,2.7024,2.6172,2.4879,2.475,2.4493,2.419,2.419,2.419,2.419,2.419,2.419,2.419,2.419,2.419,2.419,2.419,2.419,2.419,2.419,2.4257,2.433,2.433,2.4393,2.4444,2.4444,2.4444,2.4444,2.4444,2.4293,2.4165,2.4165,2.453,2.4804,2.4804,2.4625,2.4425,2.4229,2.4221,2.4221,2.4221,2.4221,2.4221,2.4221,2.4221,2.4221,2.4221,2.423,2.4214,2.4214,2.4245,2.4153,2.3919,2.3878,2.3739,2.349,2.3382,2.3236,2.1312,2.1278,2.114,2.0919,2.1177,2.1512,2.1512,2.1512,2.1651,2.2178,2.2296,2.2347,2.2567,2.3207,2.3949,2.4677,2.5423,2.6099,2.6623,2.6691,2.6691,2.6691,2.6691,2.6691,2.6691,2.6691,2.6691,2.6691,2.6691,2.6691,2.6691,2.6691,2.6691,2.6691,2.6691,2.6841,2.7131,2.7239,2.7457,2.7722,2.7722,2.7574,2.7319,2.7589,2.7663,2.7592,2.7695,2.7722,2.7722,2.7722,2.7811,2.7897,2.7897,2.7201,2.6218,2.6379,2.586,2.4989,2.4392,2.419,2.419,2.419,2.419,2.419,2.419,2.419,2.419,2.419,2.419,2.419,2.419,2.419,2.419,2.419,2.419,2.419,2.419,2.419,2.417,2.4084,2.4064,2.4026,2.3937,2.3714,2.3555,2.3555,2.4025,2.4358,2.4358,2.4163,2.3896,2.3654,2.3634,2.3634,2.3634,2.3634,2.3634,2.3634,2.3634,2.3634,2.3634,2.3634,2.3634,2.3634,2.3634,2.3518,2.3283,2.3174,2.3065,2.2958,2.2822,2.2548,1.9587,2.009,2.1021,2.0234,2.1164,2.2262,2.2262,2.2262,2.2262,2.2296,2.2296,2.2516,2.3224,2.3966,2.4711,2.5456,2.6184,2.6674,2.6691,2.6691,2.6691,2.6691,2.6691,2.6691,0.0,2.6691,2.6691,2.6691,2.6691,2.6691,2.6691,2.6691,2.6691,2.6691,2.6691,2.6708,2.6725,2.7099,2.7319,2.7334,2.7334,2.7319,2.7303,2.7301,2.7099,2.6758,2.7147,2.7334,2.7334,2.7334,2.7545,2.7897,2.7897,2.7405,2.6623,2.6188,2.5267,2.4226,2.4208,2.419,2.419,2.419,2.419,2.419,2.419,2.419,2.419,2.419,2.419,2.419,2.419,2.419,2.419,2.419,2.419,2.419,2.419,2.419,2.4103,2.3785,2.3714,2.361,2.3288,2.3212,2.323,2.323,2.3236,2.3259,2.3259,2.3247,2.3236,2.3224,2.3224,2.3224,2.3224,2.3224,2.3224,2.3224,2.3224,2.3224,2.3224,2.3224,2.3224,2.3224,2.3224,2.3069,2.2716,2.2327,2.2203,2.2324,2.1868,2.1882,2.1092,2.119,2.1258,2.1468,2.1924,2.2296,2.2296,2.2296,2.2209,2.1899,2.2092,2.2276,2.2215,2.3464,2.4575,2.4829,2.5912,2.6691,2.6691,2.6691,2.6691,2.6691,2.6691,0.0,0.0,0.0,0.0,2.6691,2.6691,2.6691,2.6691,2.6691,2.6691,2.6691,2.6691,2.6691,2.6691,2.6824,2.6906,2.6906,2.6906,2.6906,2.6906,2.6906,2.6824,2.6708,2.6841,2.6906,2.6906,2.6906,2.6988,2.7099,2.7099,2.6478,2.5551,2.5396,2.4564,2.3566,2.3795,2.3714,2.3533,2.3533,2.3533,2.3533,2.3533,2.3692,2.3816,2.3599,2.3692,2.3816,2.3588,2.3533,2.3533,2.3533,2.3533,2.3533,2.3533,2.3533,2.3493,2.3392,2.3369,2.3335,2.3212,2.3021,2.2815,2.262,2.2945,2.3117,2.2898,2.2873,2.2802,2.2607,2.2611,2.2611,2.2611,2.2611,2.247,2.2155,2.2426,2.2456,2.2155,2.2443,2.2456,2.2141,2.2141,2.1958,2.1577,2.1443,2.1398,2.1431,2.1291,2.1291,2.1651,2.1563,2.1376,2.2124,2.2296,2.2296,2.2296,2.218,2.1957,2.1658,2.1735,2.1817,2.1788,2.3154,2.4372,2.4641,2.6033,2.6996,2.6725,2.6928,2.6996,2.6725,2.6691,2.6691,0.0,0.0,0.0,2.6691,2.6691,2.6691,2.6691,2.6691,2.6691,2.6691,2.6691,2.6691,2.6691,2.6691,2.6691,2.6691,2.6691,2.6691,2.6691,2.6691,2.6691,2.6691,2.6691,2.6691,2.6691,2.6691,2.6691,2.6691,2.6691,2.6262,2.5558,2.5155,2.4434,2.3649,2.3553,2.338,2.32,2.32,2.32,2.32,2.32,2.3357,2.3488,2.3247,2.3357,2.3459,2.3265,2.32,2.32,2.32,2.32,2.32,2.32,2.32,2.3165,2.3045,2.3021,2.2984,2.2895,2.2691,2.25,2.2338,2.2638,2.2794,2.259,2.2563,2.2487,2.2324,2.2296,2.2296,2.2296,2.2296,2.2106,2.1643,2.1884,2.1855,2.1399,2.1675,2.169,2.1384,2.1384,2.126,2.0991,2.0829,2.0845,2.0991,2.0991,2.1071,2.1241,2.1258,2.1427,2.2141,2.2282,2.2268,2.2268,2.1932,2.1601,2.1504,2.1243,2.1199,2.1808,2.2965,2.405,2.4778,2.6468,2.7468,2.6793,2.73,2.7486,2.6776,2.6691,2.6691,2.6691,0.0,0.0,2.6691,0.0,2.6691,2.6691,2.6691,2.6691,2.6691,2.6691,2.6691,2.6691,2.6691,2.6691,2.6691,2.6691,2.6691,2.6691,2.6691,2.6691,2.6691,2.6691,2.6691,2.6691,2.6691,2.6691,2.6691,2.6691,2.6674,2.6504,2.5433,2.4775,2.4326,2.3487,2.3189,2.3141,2.3141,2.3141,2.3141,2.3141,2.3153,2.3165,2.3171,2.3153,2.3165,2.3171,2.3141,2.3141,2.3141,2.3141,2.3141,2.3141,2.3141,2.3057,2.2733,2.2669,2.2599,2.2349,2.2296,2.2296,2.2268,2.2268,2.2265,2.2296,2.2296,2.2296,2.2268,2.2268,2.2268,2.224,2.2223,2.2032,2.1567,2.1552,2.1384,2.0975,2.0991,2.0991,2.0959,2.0959,2.0943,2.0926,2.0483,2.05,2.0926,2.0926,2.115,2.187,2.2023,2.2073,2.2245,2.2032,2.1779,2.1779,2.1839,2.1536,2.0226,2.0512,2.0655,1.9563,2.1119,2.2752,2.3339,2.5145,2.6514,2.6691,2.686,2.6911,2.6708,2.6691,2.6691,2.6691,2.6691,0.0,0.0,2.6691,2.6691,2.6691,2.6691,2.6691,2.6691,2.6691,2.6691,2.6691,2.6691,2.6691,2.6691,2.6691,2.6691,2.6691,2.6691,2.6691,2.6691,2.6691,2.6691,2.6691,2.6691,2.6691,2.6691,2.6691,2.6353,2.5845,2.5551,2.4703,2.3642,2.3423,2.2997,2.2535,2.2535,2.2535,2.2535,2.2535,2.2669,2.2789,2.2598,2.2682,2.2772,2.2584,2.2535,2.2535,2.2535,2.2535,2.2535,2.2535,2.2535,2.2508,2.2429,2.2398,2.2374,2.231,2.2296,2.218,2.1823,2.1779,2.1899,2.2268,2.2296,2.218,2.1809,2.1779,2.166,2.1354,2.1323,2.1134,2.065,2.0959,2.0959,2.05,2.0813,2.0845,2.0483,2.0483,2.033,2.0032,1.9909,1.9909,2.0032,2.0032,2.026,2.2178,2.2296,2.2237,2.2032,2.1794,2.1469,2.1008,2.0879,2.0413,1.8858,1.9076,1.9091,1.7531,1.9941,2.2084,2.1876,2.4644,2.6716,2.6434,2.6859,2.7063,2.6725,2.6691,2.6691,2.6691,2.6691,2.6691,0.0,2.6691,2.6691,2.6691,2.6691,2.6691,2.6691,2.6691,2.6691,2.6691,2.6691,2.6691,2.6691,2.6691,2.6691,2.6691,2.6691,2.6691,2.6691,0.0,2.6691,2.6691,2.6691,2.6691,2.6691,2.6691,2.6437,2.6048,2.5711,2.5084,2.4272,2.3613,2.3122,2.2733,2.2398,2.2296,2.2296,2.2296,2.2415,2.2487,2.2349,2.2398,2.2487,2.2335,2.2152,2.2032,2.2237,2.202,2.1781,2.1943,2.2003,2.2003,2.2003,2.184,2.1736,2.1736,2.1736,2.1645,2.1368,2.1337,2.1431,2.1706,2.1736,2.163,2.1353,2.1337,2.1244,2.1007,2.0991,2.0797,2.0331,2.055,2.0499,2.0037,2.0294,2.0311,2.0052,2.0052,1.9927,1.9708,1.9708,1.9708,1.9693,1.9874,2.0072,2.2296,2.2296,2.2194,2.1718,2.1552,2.125,2.0172,1.9594,1.8903,1.7477,1.7334,1.7071,1.5889,1.8921,2.1371,2.0627,2.434,2.7003,2.6115,2.6936,2.7418,2.6776,2.6691,2.6691,2.6691,2.6691,2.6691,2.6691,2.6691,2.6691,2.6691,2.6691,2.6691,2.6691,2.6691,2.6691,2.6691,2.6691,2.6691,2.6691,2.6691,2.6691,2.6691,2.6691,2.6691,2.6691,0.0,0.0,2.6691,2.6691,2.6691,2.6691,2.6691,2.6691,2.6623,2.5981,2.5677,2.5423,2.4137,2.3562,2.3274,2.2533,2.2296,2.2296,2.2296,2.2296,2.2282,2.2223,2.2209,2.2194,2.2152,2.1825,2.1628,2.2017,2.1554,2.1103,2.1445,2.1521,2.1521,2.1521,2.1244,2.0991,2.0991,2.0991,2.0975,2.091,2.091,2.0878,2.0829,2.0926,2.0975,2.091,2.091,2.0878,2.0829,2.0829,2.0649,2.0261,2.0212,2.0054,1.9711,1.9708,1.9708,1.9708,1.9708,1.9708,1.9708,1.9708,1.9708,1.9708,2.0106,2.028,2.2296,2.2296,2.2194,2.1718,2.1353,2.0831,1.9751,1.9157,1.8296,1.6457,1.6112,1.5889,1.5125,1.6894,1.8923,2.0276,2.2923,2.5096,2.5877,2.6519,2.6843,2.6708,2.6691,2.6691,2.6691,2.6691,0.0,0.0,0.0,2.6691,2.6691,2.6691,2.6691,2.6691,2.6691,2.6691,2.6691,2.6691,2.6691,2.6691,2.6691,2.6691,2.6691,2.6691,2.6691,2.6691,0.0,0.0,2.6691,2.6691,2.6691,2.6691,2.6691,2.6691,2.6674,2.6556,2.6116,2.5559,2.5321,2.4425,2.3274,2.2533,2.2296,2.2296,2.2296,2.2296,2.2223,2.1823,2.1718,2.1643,2.1307,2.1166,2.1118,2.1213,2.1118,2.1007,2.1086,2.1102,2.1102,2.1102,2.1039,2.0991,2.0991,2.0991,2.0862,2.0483,2.0433,2.0297,1.9962,2.0549,2.0845,2.0466,2.0433,2.0296,1.9945,1.9942,1.9892,1.9818,1.9803,1.9764,1.9708,1.9708,1.9708,1.9708,1.9708,1.9708,1.9708,1.9708,1.9708,1.9708,2.0106,2.0124,2.2003,2.1928,2.1764,2.1102,2.0781,2.0267,1.885,1.8071,1.7116,1.5156,1.4766,1.4451,1.3421,1.5633,1.7792,1.8419,2.1422,2.4001,2.493,2.5785,2.6419,2.6674,2.6691,2.6691,2.6691,2.6691,2.6691,0.0,0.0,0.0,2.6691,2.6691,2.6691,2.6691,2.6691,2.6691,2.6691,2.6691,2.6691,2.6691,2.6691,2.6691,2.6691,2.6691,2.6691,2.6691,2.6691,0.0,2.6691,2.6691,2.6691,2.6691,2.6691,2.6471,2.6167,2.6556,2.6234,2.5542,2.5152,2.4435,2.346,2.231,2.1928,2.1928,2.1928,2.1796,2.1569,2.1354,2.1291,2.1244,2.1039,2.0829,2.0715,2.0943,2.0813,2.0727,2.1072,2.0994,2.1013,2.1567,2.1504,2.1252,2.0897,2.085,2.0657,2.0063,1.9982,1.9927,1.9711,2.0052,2.0243,2.0017,1.9982,1.9909,1.9726,1.9708,1.9708,1.9708,1.9708,1.9708,1.9708,1.9708,1.9708,1.9708,1.9708,1.9708,1.9708,1.9708,1.9708,1.9708,2.0106,2.021,2.1568,2.1476,2.1275,2.05,2.0297,1.9809,1.7932,1.6996,1.595,1.3989,1.3468,1.3139,1.2373,1.4681,1.6805,1.7088,2.0106,2.2797,2.3875,2.5047,2.599,2.6488,2.6641,2.6691,2.6691,2.6691,0.0,0.0,0.0,0.0,2.6691,2.6691,2.6691,2.6691,2.6691,2.6691,2.6691,2.6691,2.6691,2.6691,2.6691,2.6691,2.6691,2.6691,2.6691,2.6691,2.6691,0.0,0.0,2.6691,2.6691,2.6674,2.6522,2.6201,2.5879,2.6116,2.5964,2.5474,2.4668,2.4044,2.344,2.2128,2.1607,2.1476,2.1476,2.1244,2.0975,2.0878,2.0845,2.0829,2.0747,2.0448,2.0292,2.0804,2.0774,2.0742,2.1265,2.1137,2.1162,2.2011,2.192,2.153,2.1021,2.0897,2.0737,2.0198,2.0127,2.0127,2.0127,2.0127,2.0082,1.9929,1.9798,1.9708,1.9708,1.9708,1.9708,1.9708,1.9708,1.9708,1.9708,1.9708,1.9708,1.9708,1.9708,1.9708,1.9708,1.9708,1.9708,1.9708,2.0106,2.0297,2.1055,2.1071,2.0926,2.0433,2.0297,1.9702,1.7406,1.6368,1.5305,1.331,1.2415,1.2328,1.3408,1.3895,1.5107,1.8044,1.9268,2.0689,2.3125,2.441,2.5323,2.5984,2.6436,2.6691,2.6691,2.6691,0.0,0.0,0.0,0.0,0.0,2.6691,2.6691,2.6691,2.6691,2.6691,2.6691,2.6691,2.6691,2.6691,2.6691,2.6691,2.6691,2.6691,2.6691,2.6691,0.0,0.0,0.0,2.6691,2.6691,2.6623,2.5964,2.6065,2.6437,2.5168,2.5067,2.5426,2.4347,2.3455,2.2733,2.2215,2.1601,2.1071,2.1071,2.1039,2.091,2.0483,2.0365,2.028,1.9909,1.9782,1.993,2.0565,2.1162,2.1594,2.1654,2.1629,2.164,2.1739,2.1734,2.168,2.162,2.1605,2.159,2.1515,2.1515,2.1515,2.1515,2.1515,2.1276,2.0658,2.0064,1.9708,1.9708,1.9708,1.9708,1.9708,1.9708,1.9708,1.9708,1.9708,1.9708,1.9708,1.9708,1.9708,1.9708,1.9708,1.9708,1.9708,2.0106,2.0297,2.0649,2.0583,2.0482,2.0052,1.9929,1.9394,1.7222,1.6248,1.5229,1.3208,1.2265,1.2089,1.3029,1.3208,1.4139,1.7025,1.8013,1.9172,2.1346,2.2675,2.3653,2.4244,2.4846,2.5343,0.0,0.0,0.0,0.0,0.0,0.0,0.0,2.6556,2.6691,2.6691,2.6691,2.6691,2.6691,2.6691,2.6691,2.6691,2.6691,2.6691,2.6691,2.6691,2.6691,2.6691,0.0,0.0,0.0,2.62,2.5979,2.5512,2.4972,2.4671,2.4474,2.3933,2.3621,2.3424,2.2964,2.2456,2.1881,2.1234,2.0649,2.026,2.0515,2.0414,2.0266,2.0482,2.0549,2.0603,2.0839,2.0887,2.0961,2.1246,2.15,2.1799,2.2224,2.2298,2.2418,2.2772,2.2832,2.2727,2.2373,2.2298,2.2164,2.1754,2.1695,2.1695,2.1695,2.1695,2.1605,2.1335,2.1066,2.0572,1.9768,2.0064,2.0124,1.9738,1.9708,1.9708,1.9708,1.9708,1.9708,1.9708,1.9708,1.9708,1.9708,1.9708,1.9708,1.9726,2.0398,2.0715,2.021,2.0124,2.0037,1.9764,1.9708,1.9139,1.6936,1.6099,1.5169,1.2954,1.213,1.1999,1.2681,1.2801,1.3598,1.6039,1.6832,1.7907,2.0115,2.1255,2.2202,2.3232,2.3679,2.4277,0.0,0.0,0.0,0.0,0.0,0.0,0.0,2.607,2.6333,2.6487,2.6487,2.6419,2.6263,2.6539,2.6641,2.6487,2.6641,2.6691,2.6691,2.6691,2.6691,2.6691,0.0,0.0,0.0,2.584,2.5461,2.4596,2.4289,2.3857,2.3376,2.2995,2.2531,2.205,2.1691,2.1373,2.1062,2.0575,2.023,2.0092,2.0584,2.0382,2.0139,2.0812,2.1006,2.1111,2.1575,2.1844,2.1994,2.1994,2.2006,2.2135,2.2615,2.2704,2.2773,2.2996,2.3209,2.32,2.2756,2.2704,2.2598,2.2303,2.2263,2.2263,2.2263,2.2263,2.2188,2.1994,2.2158,2.165,2.0109,2.0438,2.0423,1.9753,1.9708,1.9708,1.9708,1.9708,1.9708,1.9708,1.9708,1.9708,1.9708,1.9708,1.9708,1.9711,2.0328,2.0747,1.9708,1.9708,1.9708,1.9708,1.9708,1.9019,1.6398,1.5799,1.5049,1.2358,1.1805,1.1999,1.2681,1.2801,1.346,1.5484,1.5814,1.6864,1.9892,2.043,2.1303,2.344,2.3417,2.3846,2.5444,0.0,0.0,0.0,0.0,0.0,0.0,2.5221,2.5449,2.5979,2.6013,2.5744,2.5221,2.6193,2.647,2.6013,2.647,2.6691,2.6691,2.6691,2.6691,0.0,0.0,0.0,0.0,2.5734,2.5283,2.42,2.414,2.4143,2.4005,2.2541,2.2063,2.1935,2.0734,2.033,2.0352,2.0617,2.0688,2.0808,2.147,2.1216,2.0823,2.15,2.168,2.168,2.1695,2.2194,2.2688,2.2688,2.2687,2.268,2.2694,2.2694,2.2521,2.1852,2.2253,2.2694,2.2694,2.2694,2.2905,2.3493,2.358,2.358,2.358,2.358,2.334,2.2748,2.3206,2.2802,2.0853,2.0703,2.0423,1.9753,1.9708,1.9708,1.9708,1.9708,1.9708,1.9708,1.9708,1.9708,1.9708,1.9708,1.9708,1.9708,1.9708,2.0174,1.9016,1.9016,1.8912,1.8446,1.8326,1.7775,1.5604,1.511,1.4496,1.2254,1.1805,1.1999,1.2681,1.243,1.3211,1.6563,1.6712,1.7223,1.9572,2.0712,2.1386,2.162,2.2724,2.3671,0.0,0.0,0.0,0.0,0.0,0.0,0.0,0.0,2.4532,2.5411,2.5449,2.5373,2.5202,2.5524,2.5781,2.6013,2.5781,2.5872,2.6209,2.5837,0.0,0.0,0.0,0.0,0.0,2.4573,2.4099,2.2917,2.3086,2.2876,2.2374,2.1464,2.0839,2.0474,2.0549,2.0567,2.0654,2.1195,2.138,2.1515,2.2179,2.1924,2.1515,2.2173,2.238,2.2382,2.2382,2.2527,2.2585,2.2116,2.2378,2.2566,2.2123,2.203,2.1946,2.1744,2.1875,2.203,2.203,2.203,2.2086,2.2271,2.2294,2.2294,2.2294,2.2688,2.2914,2.2724,2.3237,2.2817,2.0868,2.1126,2.0902,1.9768,1.9708,1.9708,1.9708,1.9708,1.9708,1.9708,1.9708,1.9708,1.9708,1.9708,1.9839,2.0124,2.0431,2.0894,1.8117,1.8311,1.8222,1.7803,1.7503,1.6891,1.5186,1.4588,1.3914,1.2164,1.1805,1.1925,1.2355,1.2295,1.3062,1.5785,1.6308,1.7119,1.929,2.0372,2.0976,2.1081,2.2682,0.0,0.0,0.0,0.0,0.0,0.0,0.0,0.0,0.0,2.3921,2.4572,2.4776,2.4796,2.4612,2.5008,2.5278,2.5392,2.5259,2.5373,2.5689,2.5354,0.0,0.0,0.0,0.0,0.0,2.408,2.3614,2.2483,2.2881,2.2493,2.168,2.1515,2.0707,1.9842,2.0767,2.0897,2.0838,2.1769,2.2075,2.2176,2.2574,2.2412,2.2113,2.2287,2.2333,2.2323,2.2323,2.2323,2.2216,2.1805,2.1842,2.187,2.1438,2.1366,2.1293,2.1037,2.1183,2.1366,2.1366,2.1366,2.1424,2.1687,2.1697,2.1697,2.1697,2.2077,2.2429,2.2672,2.3046,2.2778,2.1555,2.1605,2.1231,2.0154,1.9824,1.9708,1.9708,1.9708,1.9708,1.9708,1.9708,1.9708,1.9708,1.9708,1.9836,2.0089,2.0715,2.1134,0.0,1.7459,1.7489,1.7429,1.695,1.6174,1.4932,1.4169,0.0,1.2074,1.1805,1.1835,1.1925,1.237,1.3014,1.3929,1.5067,1.6698,1.9149,1.975,2.0397,2.168,2.3146,0.0,0.0,0.0,0.0,0.0,0.0,0.0,0.0,0.0,2.3595,2.3595,2.4074,2.4095,2.3595,2.4592,2.4871,2.441,2.4871,2.5105,2.5144,2.5089,0.0,0.0,0.0,0.0,0.0,2.4024,2.3662,2.2763,2.3355,2.2847,2.1844,2.2478,2.149,2.0022,2.1267,2.1292,2.0974,2.222,2.2644,2.2626,2.2581,2.2603,2.2498,2.1875,2.1673,2.1639,2.1639,2.1639,2.1625,2.1578,2.1186,2.0795,2.0746,2.0721,2.0547,1.9927,2.0295,2.0721,2.0721,2.0721,2.093,2.1472,2.1554,2.1554,2.1554,2.1615,2.1875,2.2512,2.2603,2.2643,2.2703,2.2123,2.1455,2.0748,2.0109,1.9753,1.9708,1.9708,1.9708,1.9708,1.9708,1.9708,1.9708,1.9708,1.9708,1.9711,2.0582,2.0991,1.444,0.0,1.5366,1.4843,1.4604,1.4275,0.0,1.3148,1.2804,1.1969,1.1805,1.2119,1.3139,1.2613,1.3077,1.6263,1.6622,1.7401,2.0029,2.1323,2.2283,2.3056,2.3477,2.3631,0.0,0.0,0.0,0.0,0.0,0.0,0.0,0.0,2.3595,2.3595,2.3709,2.373,2.3595,2.3858,2.4116,2.441,2.4116,2.4199,2.4556,2.4158,0.0,0.0,0.0,0.0,2.2894,2.3024,2.2947,2.2763,2.3355,2.3131,2.2478,2.2643,2.2089,2.1277,2.1599,2.1605,2.1506,2.1818,2.1927,2.1852,2.1393,2.1571,2.1899,2.1744,2.1366,2.1004,2.1004,2.1004,2.0881,2.0383,2.0534,2.0646,2.0156,2.0029,2.0003,1.9824,1.9927,2.0029,2.0029,2.0029,2.0067,2.0232,2.0257,2.0257,2.0257,2.0695,2.1077,2.1224,2.1653,2.2136,2.2649,2.2549,2.1949,2.0763,2.0539,2.0228,1.9723,1.9708,1.9708,1.9708,1.9708,1.9708,1.9708,1.9708,1.9708,1.9711,2.0582,2.0991,1.2777,1.4047,1.517,1.4811,1.4483,1.4154,1.3792,1.2999,1.2235,1.1865,1.1805,1.2119,1.3151,1.3241,1.3974,1.6428,1.7519,1.8909,2.1276,2.2239,2.2927,2.3535,2.3595,0.0,0.0,0.0,0.0,0.0,0.0,0.0,0.0,0.0,2.3595,2.3595,2.3595,2.3595,2.3595,2.3595,2.3745,2.4032,2.3745,2.3752,2.4012,2.373,0.0,0.0,0.0,0.0,2.3092,2.2808,2.2868,2.3152,2.3475,2.3035,2.2283,2.2598,2.1908,2.091,2.1514,2.1699,2.171,2.1694,2.152,2.1234,2.0894,2.0794,2.083,2.083,2.0595,2.0346,2.0346,2.0346,2.0258,1.9901,2.008,2.0245,1.9875,1.9798,1.9798,1.9798,1.9798,1.9798,1.9798,1.9798,1.9798,1.9798,1.9798,1.9798,1.9798,2.0131,2.0446,2.0771,2.1088,2.1653,2.2626,2.2695,2.2395,2.166,2.1051,2.0543,2.0168,1.9854,1.9708,1.9708,1.9708,1.9708,1.9708,1.9708,1.9708,1.9711,2.0582,2.0991,1.2044,1.3912,1.5709,1.5289,1.499,1.4721,1.4408,1.3104,1.1939,1.1939,1.1939,1.228,1.3358,1.4227,1.5155,1.6218,1.8345,2.0531,2.2433,2.2778,2.3032,2.3535,2.3595,0.0,0.0,0.0,0.0,0.0,0.0,0.0,0.0,0.0,0.0,2.3595,2.3595,2.3595,2.3595,2.3595,2.3595,2.3595,2.3595,2.3595,2.3595,2.3595,0.0,0.0,0.0,0.0,2.355,2.2957,2.2999,2.3465,2.3465,2.2739,2.1769,2.2335,2.1513,2.0223,2.1225,2.1496,2.1411,2.1411,2.1051,2.066,2.066,2.0245,1.9798,1.9798,1.9798,1.9798,1.9798,1.9798,1.9798,1.9798,1.9798,1.9798,1.9798,1.9798,1.9798,1.9798,1.9798,1.9798,1.9798,1.9798,1.9798,1.9798,1.9798,1.9798,1.9798,1.9798,2.0029,2.0597,2.066,2.1175,2.2429,2.2558,2.2635,2.2826,2.168,2.0897,2.0703,2.0049,1.9708,1.9708,1.9708,1.9708,1.9708,1.9708,1.9708,1.9711,2.0515,2.0926,1.3184,1.4631,1.5259,1.2984,1.3628,1.4348,1.2643,1.246,1.2639,1.2639,1.2639,1.3538,1.6413,1.577,1.5739,1.8629,1.9914,2.1051,2.2508,2.3152,2.349,2.3595,0.0,0.0,0.0,0.0,0.0,0.0,0.0,0.0,0.0,0.0,0.0,2.3595,2.3595,2.3595,2.3595,2.3595,2.3595,2.3595,2.3595,2.3595,2.3595,2.3595,2.3595,0.0,0.0,2.3047,2.355,2.2957,2.275,2.2844,2.2844,2.2381,2.1727,2.181,2.1657,2.1368,2.1059,2.0559,2.0093,2.0093,2.0016,1.9952,1.9952,1.9875,1.9798,1.9798,1.9798,1.9798,1.9798,1.9798,1.9798,1.9798,1.9798,1.9798,1.9798,1.9798,1.9798,1.9798,1.9798,1.9798,1.9798,1.9798,1.9798,1.9798,1.9798,1.9798,1.9798,1.9798,1.985,1.9952,1.9952,2.0484,2.1758,2.1852,2.2298,2.3396,2.2793,2.1874,2.0748,2.0049,1.9708,1.9708,1.9708,1.9708,1.9708,1.9708,1.9708,1.9711,2.0193,2.0616,1.2553,1.369,1.4511,1.3643,1.5171,1.6757,1.6189,1.574,1.5337,1.4978,1.4903,1.5486,1.7339,1.7565,1.8405,2.1321,2.1485,2.1695,2.2996,2.3131,2.3221,0.0,0.0,0.0,0.0,0.0,0.0,0.0,0.0,0.0,0.0,0.0,0.0,0.0,2.3595,2.3595,2.3595,2.3595,2.3595,2.3595,2.3595,2.3595,2.3595,2.3595,2.3421,0.0,0.0,2.2323,2.254,2.1915,2.1859,2.2146,2.2146,2.1771,2.1186,2.0805,2.0682,2.0632,2.0371,2.0055,1.9798,1.9798,1.9798,1.9798,1.9798,1.9798,1.9798,1.9798,1.9798,1.9798,1.9798,1.9798,1.9798,1.9798,1.9798,1.9798,1.9798,1.9798,1.9798,1.9798,1.9798,1.9798,1.9798,1.9798,1.9798,1.9798,1.9798,1.9798,1.9798,1.9798,1.9798,1.9798,1.9798,2.032,2.1578,2.1697,2.2107,2.3052,2.2853,2.2269,2.1276,2.0602,2.0243,2.0243,1.9869,1.9708,1.9708,1.9708,1.9708,1.9708,2.0106,2.055,1.243,1.3088,1.3929,1.4993,1.6533,1.8044,1.9001,1.8208,1.7235,1.7174,1.7174,1.7413,1.8252,1.9375,2.0831,2.2832,2.2458,2.2323,2.3445,2.3191,0.0,0.0,0.0,0.0,0.0,0.0,0.0,0.0,0.0,0.0,0.0,0.0,0.0,0.0,2.3595,2.3595,2.3595,2.3595,2.3595,2.3595,2.3595,2.3595,2.361,2.3465,2.3143,2.2665,2.1998,2.1687,2.1669,2.1204,2.1193,2.1496,2.1496,2.1099,2.0497,2.0003,1.9798,1.9798,1.9798,1.9798,1.9798,1.9798,1.9798,1.9798,1.9798,1.9798,1.9798,1.9798,1.9798,1.9798,1.9798,1.9798,1.9798,1.9798,1.9798,1.9798,1.9798,1.9798,1.9798,1.9798,1.9798,1.9798,1.9798,1.9798,1.9798,1.9798,1.9798,1.9798,1.9798,1.9798,1.9798,1.9798,1.9952,2.0546,2.1828,2.1922,2.2201,2.2879,2.2778,2.2403,2.1724,2.1066,2.0613,2.0483,1.9959,1.9708,1.9708,1.9708,1.9708,1.9708,2.0017,2.0399,1.4257,1.3971,1.3854,1.601,1.5815,1.556,1.7414,1.6847,1.6428,1.8194,1.8568,1.8939,2.024,2.1081,2.162,2.1799,2.2283,2.2868,0.0,0.0,0.0,0.0,0.0,0.0,0.0,0.0,0.0,0.0,0.0,0.0,0.0,0.0,0.0,0.0,0.0,2.3595,2.3595,2.3595,2.3595,2.3595,2.3595,2.3595,2.3573,2.3009,2.274,2.2672,2.1997,2.1702,2.1697,2.1655,2.1325,2.087,2.087,2.0446,1.9875,1.9824,1.9798,1.9798,1.9798,1.9798,1.9798,1.9798,1.9798,1.9798,1.9798,1.9798,1.9798,1.9798,1.9798,1.9798,1.9798,1.9798,1.9798,1.9798,1.9798,1.9798,1.9798,1.9798,1.9798,1.9798,1.9798,1.9798,1.9798,1.9798,1.9798,1.9798,1.9798,1.9798,1.9798,1.9798,1.9798,1.9798,2.0359,2.1248,2.2535,2.2626,2.2905,2.3492,2.3017,2.2403,2.1724,2.1066,2.0423,1.9765,1.9723,1.9708,1.9708,1.9708,1.9708,1.9708,1.9744,1.9947,1.3313,1.357,1.4023,1.5711,1.5846,1.6253,1.8962,1.9525,1.9798,2.0951,2.119,2.122,2.1306,2.2173,2.2757,2.2388,2.2853,2.3325,0.0,0.0,0.0,0.0,0.0,0.0,0.0,0.0,0.0,0.0,0.0,0.0,0.0,0.0,0.0,0.0,0.0,2.2409,2.2409,2.2409,2.2409,2.2432,2.3216,2.3194,2.2409,2.2612,2.2267,2.1513,2.1259,2.0904,2.0521,2.0521,2.0383,2.0182,2.0182,2.0029,1.9798,1.9798,1.9798,1.9798,1.9798,1.9798,1.9798,1.9798,1.9798,1.9798,1.9798,1.9798,1.9798,1.9798,1.9798,1.9798,1.9798,1.9798,1.9798,1.9798,1.9798,1.9798,1.9798,1.9798,1.9798,1.9798,1.9798,1.9798,1.9798,1.9798,1.9798,1.9798,1.9798,1.9798,1.9798,1.9798,1.9798,1.9798,2.0744,2.1724,2.2626,2.3031,2.3355,2.3588,2.3385,2.3146,2.2892,2.2278,2.162,2.0946,2.0528,2.0109,1.9708,1.9708,1.9708,1.9708,1.9708,2.0085,1.3309,1.3544,1.4076,1.5713,1.5785,1.6322,1.9629,2.0606,2.1233,2.2676,2.2658,2.2313,2.2074,2.2547,2.2921,0.0,2.3212,0.0,0.0,0.0,0.0,0.0,0.0,0.0,0.0,0.0,0.0,0.0,0.0,0.0,0.0,0.0,0.0,0.0,0.0,0.0,0.0,2.1697,2.1615,2.1424,2.2492,2.2523,2.1697,2.1974,2.1633,2.0795,2.0572,2.022,1.9798,1.9798,1.9798,1.9798,1.9798,1.9798,1.9798,1.9798,1.9798,1.9798,1.9798,1.9798,1.9798,1.9798,1.9798,1.9798,1.9798,1.9798,1.9798,1.9798,1.9798,1.9798,1.9798,1.9798,1.9798,1.9798,1.9798,1.9798,1.9798,1.9798,1.9798,1.9798,1.9798,1.9798,1.9798,1.9798,1.9798,1.9798,1.9798,1.9798,1.9798,1.9798,1.994,2.0345,2.1183,2.2039,2.292,2.3201,2.3399,2.3595,2.3595,2.3505,2.331,2.2927,2.2388,2.171,2.1051,2.0464,2.0022,1.9813,1.9708,1.9708,1.9708,2.0102,1.478,1.4113,1.3969,1.6216,1.5563,1.531,1.8892,1.9295,1.9803,2.295,2.2592,2.1919,2.2583,2.2164,0.0,2.2583,0.0,0.0,0.0,0.0,0.0,0.0,0.0,0.0,0.0,0.0,0.0,0.0,0.0,0.0,0.0,0.0,0.0,0.0,0.0,0.0,0.0,2.1673,2.139,2.0795,2.139,2.1673,2.1649,2.1077,2.0795,2.0746,2.0105,1.9798,1.9798,1.9798,1.9798,1.9798,1.9798,1.9798,1.9798,1.9798,1.9798,1.9798,1.9798,1.9798,1.9798,1.9798,1.9798,1.9798,1.9798,1.9798,1.9798,1.9798,1.9798,1.9811,1.9811,1.9811,1.9811,1.9798,1.9798,1.9798,1.9798,1.9798,1.9798,1.9798,1.9798,1.9798,1.9798,1.9798,1.9798,1.9798,1.9798,1.9798,1.9798,1.9798,2.0308,2.1554,2.1697,2.2225,2.3486,2.3054,2.2965,2.3551,2.3595,2.3325,2.2733,2.2703,2.2403,2.1724,2.1066,2.0703,2.0703,2.0034,1.9708,1.9708,1.9708,1.9927,1.2453,1.4002,1.5722,1.5745,1.7702,1.991,2.0892,2.0294,2.0189,2.2482,2.3016,2.2966,2.2748,2.2877,0.0,0.0,0.0,0.0,0.0,0.0,0.0,0.0,0.0,0.0,0.0,0.0,0.0,0.0,0.0,0.0,0.0,0.0,0.0,0.0,0.0,0.0,0.0,0.0,2.0257,2.0105,2.0283,2.0345,2.037,2.0671,2.0547,2.0105,1.9901,1.9798,1.9798,1.9798,1.9798,1.9798,1.9798,1.9798,1.9798,1.9798,1.9798,1.9798,1.9798,1.9798,1.9798,1.9798,1.9798,1.9798,1.9798,1.9798,1.9798,1.9798,2.01,2.0427,2.0427,2.0717,2.079,1.9987,1.9798,1.9798,1.9798,1.9798,1.9798,1.9798,1.9798,1.9798,1.9798,1.9798,1.9798,1.9798,1.9798,1.9798,1.9798,1.9798,2.0308,2.1554,2.1697,2.2225,2.3486,2.3443,2.3421,2.3595,2.3595,2.352,2.3325,2.3325,2.3047,2.2418,2.2224,2.1635,2.0703,2.0513,2.0154,1.9708,1.9708,2.0087,1.4105,1.6035,1.7879,1.7851,1.9273,2.0712,2.0898,2.1136,2.1649,2.2826,2.3163,2.3191,2.3092,2.3167,0.0,0.0,0.0,0.0,0.0,0.0,0.0,0.0,0.0,0.0,0.0,0.0,0.0,0.0,0.0,0.0,0.0,0.0,0.0,0.0,0.0,0.0,0.0,0.0,0.0,1.9798,1.9798,1.9798,1.9798,2.022,2.0182,1.9798,1.9798,1.9798,1.9798,1.9798,1.9798,1.9798,1.9798,1.9798,1.9798,1.9798,1.9798,1.9798,1.9798,1.9798,1.9798,1.9798,1.9798,1.9798,1.9798,1.9962,2.015,2.015,2.0578,2.1018,2.1018,2.127,2.1255,2.0363,2.015,2.0075,1.9849,1.9798,1.9798,1.9798,1.9798,1.9798,1.9798,1.9798,1.9798,1.9798,1.9798,1.9798,1.9798,2.0029,2.0484,2.1269,2.1795,2.24,2.3187,2.3465,2.3595,2.3595,2.3595,2.3595,2.3595,2.3595,2.343,2.3062,2.2823,2.2179,2.1111,2.0823,2.0363,1.9708,1.9708,2.0156,1.752,1.876,1.9834,2.1079,2.0215,1.9221,1.9835,2.1815,2.3508,2.3428,2.3082,2.2957,2.349,0.0,0.0,0.0,0.0,0.0,0.0,0.0,0.0,0.0,0.0,0.0,0.0,0.0,0.0,0.0,0.0,0.0,0.0,0.0,0.0,0.0,0.0,0.0,0.0,0.0,0.0,0.0,1.9798,1.9798,1.9798,1.9798,1.9798,1.9798,1.9798,1.9798,1.9798,1.9798,1.9798,1.9798,1.9798,1.9798,1.9798,1.9798,1.9798,1.9798,1.9798,1.9798,1.9811,1.9861,1.9874,1.9886,1.9936,2.0352,2.0767,2.0767,2.1169,2.1556,2.1556,2.1606,2.1493,2.0968,2.0805,2.0616,2.0012,1.9874,1.9861,1.9811,1.9798,1.9798,1.9798,1.9798,1.9798,1.9798,1.9798,1.9798,1.9798,2.0321,2.0721,2.0795,2.1846,2.2581,2.2694,2.3187,2.353,2.3595,2.3595,2.3595,2.3595,2.3595,2.3595,2.3595,2.3062,2.2418,2.1695,2.1096,2.0423,1.9708,1.9708,2.0156,1.2995,1.5609,1.8473,1.8927,2.0044,2.1111,2.1257,2.2123,2.2748,2.2225,2.2797,2.3445,0.0,0.0,0.0,0.0,0.0,0.0,0.0,0.0,0.0,0.0,0.0,0.0,0.0,0.0,0.0,0.0,0.0,0.0,0.0,0.0,0.0,0.0,0.0,0.0,1.9798,1.9798,1.9798,0.0,1.9798,1.9798,1.9798,1.9798,1.9798,1.9798,1.9798,1.9798,1.9798,1.9798,1.9798,1.9798,1.9798,1.9798,1.9798,1.9798,1.9798,1.9798,1.9798,1.9798,1.9874,2.0352,2.0503,2.0591,2.1018,2.1245,2.1333,2.1333,2.1707,2.2133,2.2133,2.2431,2.2606,2.2083,2.1631,2.1182,2.0629,2.0503,2.0377,1.9886,1.9798,1.9798,1.9798,1.9798,1.9798,1.9798,1.9798,1.9798,1.9798,1.9927,2.022,2.0746,2.1066,2.1609,2.2603,2.2807,2.3113,2.3573,2.3595,2.3595,2.3595,2.3595,2.3595,2.3595,2.3475,2.2832,2.1695,2.156,2.0857,1.9708,1.9708,2.0156,1.3704,1.6267,1.8762,1.935,2.0144,2.0866,2.1197,2.1547,2.187,2.2137,2.295,0.0,0.0,0.0,0.0,0.0,0.0,0.0,0.0,0.0,0.0,0.0,0.0,0.0,0.0,0.0,0.0,0.0,0.0,0.0,0.0,0.0,0.0,0.0,0.0,0.0,1.9798,1.9798,1.9798,1.9798,1.9798,1.9798,1.9798,1.9798,1.9798,1.9798,1.9798,1.9798,1.9798,1.9798,1.9798,1.9798,1.9798,1.9798,1.9798,1.9798,1.9974,2.0239,2.0239,2.0388,2.0665,2.0993,2.1081,2.1144,2.1433,2.1669,2.1882,2.1882,2.2284,2.2681,2.2681,2.2895,2.3032,2.2744,2.2255,2.1732,2.1207,2.1081,2.0918,2.0352,2.0239,2.0125,1.9849,1.9798,1.9798,1.9798,1.9798,1.9798,1.9798,1.9798,1.9927,2.027,2.0881,2.151,2.2146,2.277,2.3268,2.3573,2.3595,2.3595,2.3595,2.3595,2.3595,2.3595,2.3595,2.2966,2.1695,2.1695,2.1006,1.9708,1.9708,2.0156,1.5061,1.7283,1.9088,2.0215,2.013,1.9952,2.0497,2.0721,2.1115,2.2151,2.2942,0.0,0.0,0.0,0.0,0.0,0.0,0.0,0.0,0.0,0.0,0.0,0.0,0.0,0.0,0.0,0.0,0.0,0.0,0.0,0.0,0.0,0.0,0.0,0.0,1.9798,1.9798,1.9798,1.9798,1.9798,1.9798,1.9798,1.9798,1.9798,1.9798,1.9798,1.9798,1.9798,1.9798,1.9798,1.9798,1.9798,1.9798,1.9861,1.9949,1.9949,2.0339,2.083,2.083,2.1037,2.1325,2.1566,2.145,2.1235,2.1476,2.1753,2.2024,2.2024,2.2344,2.2689,2.2854,2.2884,2.2914,2.3078,2.2757,2.2297,2.1744,2.1631,2.1496,2.0943,2.0754,2.0515,1.9899,1.9798,1.9798,1.9798,1.9798,1.9798,1.9798,1.9798,1.9798,1.9798,2.0731,2.1459,2.1673,2.2674,2.3363,2.3595,2.3595,2.3595,2.3595,2.3595,2.3595,2.3595,2.3595,2.3026,2.1859,2.1859,2.1229,1.9984,1.9984,2.0385,1.1242,1.4092,1.7253,1.8852,1.951,1.9824,1.9901,2.0371,2.0845,0.0,0.0,0.0,0.0,0.0,0.0,0.0,0.0,0.0,0.0,0.0,0.0,0.0,0.0,0.0,0.0,0.0,0.0,0.0,0.0,0.0,0.0,0.0,1.9798,1.9798,1.9798,0.0,1.9798,1.9798,1.9798,1.9798,1.9798,1.9798,1.9798,1.9798,1.9798,1.9798,1.9798,1.9798,1.9798,1.9798,1.9798,1.9798,1.9798,2.0138,2.0578,2.0578,2.093,2.138,2.138,2.0945,2.0569,2.1803,2.1182,2.0186,2.1459,2.1358,2.0839,2.0839,2.0885,2.1101,2.1877,2.2063,2.223,2.2944,2.3045,2.2844,2.2322,2.2196,2.2033,2.1493,2.1018,2.0515,1.9899,1.9798,1.9798,1.9798,1.9798,1.9798,1.9798,1.9798,1.9798,1.9798,1.994,2.0496,2.1602,2.1862,2.2409,2.353,2.3595,2.3595,2.3595,2.3595,2.3595,2.3595,2.3595,2.3251,2.2568,2.2568,2.2067,2.109,2.109,2.125,1.1666,1.3885,1.607,1.8066,1.897,1.9459,1.9832,2.0077,2.0434,0.0,0.0,0.0,0.0,0.0,0.0,0.0,0.0,0.0,0.0,0.0,0.0,0.0,0.0,0.0,0.0,0.0,0.0,0.0,0.0,0.0,0.0,1.9798,1.9798,1.9798,1.9798,0.0,1.9798,1.9798,1.9798,1.9798,1.9798,1.9798,1.9798,1.9798,1.9798,1.9798,1.9798,1.9798,1.9773,1.9359,1.9635,2.0262,1.9838,2.0291,2.1089,2.0594,2.0754,2.1158,2.0706,2.0507,2.0531,2.1162,2.083,2.0331,2.0968,2.091,2.0687,2.1207,2.0974,2.0814,2.1659,2.1522,2.1396,2.223,2.2445,2.2476,2.2705,2.2744,2.2493,2.1656,2.1069,2.0515,1.9899,1.9798,1.9798,1.9798,1.9798,1.9798,1.9798,1.9798,1.9798,1.9798,2.0131,2.072,2.1625,2.2053,2.2643,2.3551,2.3595,2.3595,2.3595,2.3595,2.3595,2.3595,2.3595,2.3295,2.2703,2.2703,2.228,2.1527,2.1378,2.1498,1.1741,1.3211,1.4481,1.6782,1.7877,1.8613,1.9536,0.0,1.9902,0.0,0.0,0.0,0.0,0.0,0.0,0.0,0.0,0.0,0.0,0.0,0.0,0.0,0.0,0.0,0.0,0.0,0.0,0.0,0.0,0.0,1.9798,1.9798,1.9798,1.9798,1.9798,1.9798,1.9798,1.9798,1.9798,1.9798,1.9798,1.9798,1.9798,1.9798,1.9798,1.9798,1.9798,1.9695,1.9514,1.9295,1.9546,2.0083,1.9845,2.0302,2.0986,2.0311,2.0421,2.0803,2.0197,2.013,2.0301,2.0526,2.0301,1.9977,2.0204,2.0107,2.0074,2.0719,2.043,2.0139,2.1005,2.091,2.0814,2.1678,2.2063,2.2384,2.2975,2.3108,2.2819,2.1882,2.1395,2.088,2.0137,2.0024,1.9974,1.9823,1.9798,1.9798,1.9798,1.9798,1.9798,1.9798,2.0258,2.0856,2.1625,2.2146,2.277,2.3551,2.3595,2.3595,2.3595,2.3595,2.3595,2.3595,2.3595,2.337,2.2927,2.2927,2.266,2.2118,2.2037,2.2167,0.9484,1.0584,1.191,1.4437,1.5856,1.7074,1.868,0.0,0.0,0.0,0.0,0.0,0.0,0.0,0.0,0.0,0.0,0.0,0.0,0.0,0.0,0.0,0.0,0.0,0.0,0.0,0.0,0.0,0.0,0.0,1.9798,1.9798,1.9798,1.9798,1.9798,1.9798,1.9798,1.9798,1.9798,1.9798,1.9798,1.9798,1.9798,1.9798,1.9798,1.9798,1.9798,1.9397,1.8857,2.0083,1.9748,1.8543,1.9703,2.0057,1.9879,1.9764,2.012,2.0621,2.0589,2.0031,1.9497,2.0333,1.9497,1.8303,1.911,1.8787,1.8134,1.8202,1.8168,1.8337,1.9199,2.0009,2.0814,2.1678,2.2476,2.3047,2.3078,2.3108,2.2932,2.2385,2.2246,2.1882,2.083,2.0641,2.0465,1.9886,1.9798,1.9798,1.9798,1.9798,1.9798,1.9798,1.9824,2.0345,2.1578,2.172,2.2271,2.353,2.3595,2.3595,2.3595,2.3595,2.3595,2.3595,2.3595,2.358,2.355,2.355,2.3438,2.3214,2.3727,2.3824,0.9315,0.9854,1.047,1.232,1.4142,1.5618,1.622,1.7716,0.0,0.0,0.0,0.0,0.0,0.0,0.0,0.0,0.0,0.0,0.0,0.0,0.0,0.0,0.0,0.0,0.0,0.0,0.0,0.0,0.0,0.0,1.9798,1.9798,1.9798,1.9798,1.9798,1.9798,1.9798,1.9798,1.9798,1.9798,1.9798,1.9798,1.9773,1.9319,1.9252,1.9537,1.905,1.8951,1.9101,1.8646,1.8742,1.9204,1.9168,1.9636,2.0227,1.9651,1.9565,1.9694,1.9144,1.8721,1.8529,1.8821,1.8496,1.8076,1.8361,1.8236,1.811,1.8687,1.8428,1.8202,1.9077,1.9529,2.0139,2.1565,2.2506,2.3108,2.3108,2.3108,2.2945,2.2393,2.2309,2.2071,2.1358,2.093,2.0629,2.0415,2.0037,1.9798,1.9798,1.9798,1.9798,1.9798,1.9798,2.0169,2.104,2.1472,2.2086,2.2965,2.3399,2.3595,2.3595,2.3595,2.3595,2.3595,2.3595,2.3595,2.3595,2.3595,2.3561,2.3495,2.3912,2.4051,0.8752,0.8985,0.9363,1.1016,1.2317,1.3614,1.511,1.6572,0.0,0.0,0.0,0.0,0.0,0.0,0.0,0.0,0.0,0.0,0.0,0.0,0.0,0.0,0.0,0.0,0.0,0.0,0.0,0.0,0.0,0.0,1.9798,1.9798,1.9798,1.9798,1.9798,1.9669,1.9423,1.9669,1.9669,1.9423,1.9669,1.9669,1.9423,1.9092,1.8975,1.9008,1.8407,1.8415,1.8833,1.8267,1.8378,1.8924,1.887,1.9188,1.9661,1.9077,1.8844,1.8787,1.8202,1.8008,1.8008,1.8008,1.8008,1.8008,1.8008,1.8008,1.811,1.8687,1.8462,1.8144,1.8721,1.9299,2.0171,2.1896,2.2689,2.3108,2.3108,2.3108,2.2995,2.2631,2.2556,2.241,2.1857,2.1455,2.1119,2.0742,2.0365,2.0024,1.9823,1.9798,1.9798,1.9798,1.9798,2.008,2.0746,2.1342,2.1993,2.2649,2.3268,2.3595,2.3595,2.3595,2.3595,2.3595,2.3595,2.3595,2.3595,2.3595,2.3595,2.3601,2.402,2.4382,0.0,0.0,0.0,1.0494,1.043,1.101,1.5296,0.0,0.0,0.0,0.0,0.0,0.0,0.0,0.0,0.0,0.0,0.0,0.0,0.0,0.0,0.0,0.0,0.0,0.0,0.0,0.0,0.0,0.0,1.9798,1.9798,1.9798,1.9798,1.9798,1.9798,1.9449,1.8715,1.9423,1.9397,1.8712,1.9422,1.9396,1.8721,1.916,1.8975,1.8278,1.7947,1.7791,1.7894,1.9126,1.8765,1.754,1.8779,1.8754,1.8008,1.8008,1.8008,1.8008,1.8008,1.8008,1.8008,1.8008,1.8008,1.8008,1.8008,1.8008,1.8008,1.8008,1.8008,1.8008,1.8076,1.9332,2.1005,2.2689,2.3108,2.3108,2.3108,2.3108,2.3108,2.3108,2.3108,2.2932,2.2393,2.2322,2.1945,2.0893,2.0729,2.0515,1.9899,1.9823,1.9823,1.9798,1.9798,2.0055,2.0734,2.1342,2.1969,2.2626,2.3268,2.3595,2.3595,2.3595,2.3595,2.3595,2.3595,2.3595,2.3595,2.3595,2.3595,2.3616,2.4158,2.4973,0.7657,0.0,0.0,0.0,0.0,0.0,0.0,0.0,0.0,0.0,0.0,0.0,0.0,0.0,0.0,0.0,0.0,0.0,0.0,0.0,0.0,0.0,0.0,0.0,0.0,0.0,0.0,0.0,0.0,1.9798,1.9798,1.9798,1.9798,1.9798,1.9798,1.9449,1.8715,1.89,1.8797,1.8425,1.8621,1.8748,1.8831,1.8419,1.833,1.8426,1.7794,1.769,1.7949,1.8011,1.7968,1.7885,1.822,1.8202,1.8008,1.8008,1.8008,1.8008,1.8008,1.8008,1.8008,1.8008,1.8008,1.8008,1.8008,1.8008,1.8008,1.8008,1.8008,1.8303,1.9562,2.0236,2.1005,2.2689,2.3108,2.3108,2.3108,2.3108,2.3108,2.3108,2.3108,2.3058,2.2907,2.2543,2.2209,2.1895,2.1546,2.1081,2.0528,2.0453,2.0289,1.9849,1.9798,1.9875,2.0055,2.1062,2.1781,2.1969,2.3002,2.3595,2.3595,2.3595,2.3595,2.3595,2.3595,2.3595,2.3595,2.3595,2.3595,2.3616,2.4158,2.4973,0.77,0.7605,0.7643,0.7812,0.0,0.0,0.0,0.0,0.0,0.0,0.0,0.0,0.0,0.0,0.0,0.0,0.0,0.0,0.0,0.0,0.0,0.0,0.0,0.0,0.0,0.0,0.0,0.0,1.9798,1.9798,1.9798,1.9798,1.9669,1.9345,1.9333,1.8847,1.7797,1.8276,1.8317,1.7835,1.8324,1.8497,1.8421,1.8206,1.8081,1.8048,1.7757,1.7783,1.7988,1.7744,1.7793,1.8008,1.8008,1.8008,1.8008,1.8008,1.8008,1.8008,1.8008,1.8008,1.8008,1.8008,1.8008,1.8008,1.8008,1.8008,1.8008,1.8008,1.8008,1.8395,2.0139,2.059,2.1005,2.2689,2.3108,2.3108,2.3108,2.3108,2.3108,2.3108,2.3108,2.3108,2.3108,2.2844,2.2543,2.2347,2.2033,2.1631,2.1106,2.083,2.0566,2.02,2.0194,2.022,2.022,2.139,2.2123,2.2123,2.3061,2.3595,2.3595,2.3595,2.3595,2.3595,2.3595,2.3595,2.3595,2.3595,2.3595,2.3616,2.4158,2.4855,0.7906,0.7787,0.8059,0.8916,0.0,0.0,0.0,0.0,0.0,0.0,0.0,0.0,0.0,0.0,0.0,0.0,0.0,0.0,0.0,0.0,0.0,0.0,0.0,0.0,0.0,0.0,0.0,1.9798,1.9798,1.9798,1.9798,1.9721,1.9371,1.8715,1.8608,1.7929,1.6594,1.7647,1.7861,1.723,1.8242,1.8396,1.7843,1.8247,1.8108,1.7471,1.7852,1.8008,1.8008,1.8008,1.8008,1.8008,1.8008,1.8008,1.8008,1.8008,1.8037,1.8076,1.8027,1.8037,1.8076,1.8027,1.8008,1.8008,1.8008,1.8008,1.8008,1.8008,1.8008,1.8371,2.0042,2.0526,2.1005,2.2598,2.3035,2.3108,2.3108,2.3108,2.3108,2.3108,2.3108,2.3108,2.3108,2.3108,2.2945,2.2443,2.2397,2.2209,2.1656,2.1182,2.083,2.0704,2.081,2.0861,2.0809,2.1964,2.2694,2.2694,2.3268,2.3595,2.3595,2.3595,2.3595,2.3595,2.3595,2.3595,2.3595,2.3595,2.3595,2.3616,2.4158,2.4692,0.8915,0.8913,0.933,0.8842,0.0,0.0,0.0,0.0,0.0,0.0,0.0,0.0,0.0,0.0,0.0,0.0,0.0,0.0,0.0,0.0,0.0,0.0,0.0,0.0,0.0,0.0,1.9334,1.9773,1.9798,1.9798,1.9798,1.9228,1.8847,1.8688,1.8112,1.7573,1.7076,1.7307,1.7418,1.7345,1.7586,1.7773,1.7955,1.8067,1.8016,1.7891,1.7978,1.8008,1.8008,1.8008,1.8008,1.8008,1.8008,1.8008,1.8008,1.8008,1.8188,1.8432,1.8091,1.8198,1.8422,1.8115,1.8008,1.8008,1.8008,1.8008,1.8008,1.8008,1.8008,1.8236,1.9266,2.0074,2.0846,2.1877,2.2628,2.3108,2.3108,2.3108,2.3108,2.3108,2.3108,2.3108,2.3108,2.3108,2.307,2.2957,2.2945,2.2744,2.2221,2.2058,2.1656,2.0792,2.1147,2.1259,2.0848,2.1964,2.2694,2.2694,2.3268,2.3595,2.3595,2.3595,2.3595,2.3595,2.3595,2.3595,2.3595,2.3595,2.3595,2.3616,2.4158,2.4692,0.8963,0.8796,0.9275,0.9616,0.0,0.0,0.0,0.0,0.0,0.0,0.0,0.0,0.0,0.0,0.0,0.0,0.0,0.0,0.0,0.0,0.0,0.0,0.0,0.0,0.0,0.0,1.9221,1.9761,1.9798,1.9798,1.9798,1.9097,1.8646,1.8492,1.7789,1.7252,1.6941,1.7194,1.7316,1.7383,1.7598,1.7803,1.8008,1.8008,1.8008,1.8008,1.8008,1.8008,1.8027,1.8208,1.8286,1.8286,1.8286,1.8286,1.8315,1.8564,1.8779,1.8936,1.8721,1.8789,1.8926,1.8711,1.8652,1.8603,1.8354,1.8174,1.8008,1.8008,1.8008,1.8303,1.9595,2.0268,2.091,2.2187,2.2823,2.3108,2.3108,2.3108,2.3108,2.3108,2.3108,2.3108,2.3108,2.3108,2.3108,2.3108,2.3108,2.3007,2.2732,2.2456,2.2096,2.1543,2.1852,2.1992,2.172,2.2577,2.3143,2.3143,2.3421,2.3595,2.3595,2.3595,2.3595,2.3595,2.3595,2.3595,2.3595,2.3595,2.3745,2.4012,2.4266,2.4831,0.9381,0.9106,0.9632,0.0,0.0,0.9661,0.0,0.0,0.0,0.0,0.0,0.0,0.0,0.0,0.0,0.0,0.0,0.0,0.0,0.0,0.0,0.0,0.0,0.0,0.0,0.0,1.8659,1.9505,1.9283,1.9207,1.9373,1.889,1.8458,1.8114,1.7444,1.7012,1.6855,1.7207,1.7422,1.751,1.7852,1.8008,1.8008,1.8008,1.8008,1.8018,1.8096,1.8135,1.8164,1.8549,1.8724,1.8724,1.8724,1.8724,1.8763,1.916,1.9336,1.9394,1.9316,1.9336,1.9394,1.9316,1.9287,1.9219,1.8867,1.8525,1.8232,1.8154,1.8228,1.8664,1.9998,2.059,2.1195,2.2537,2.2975,2.3108,2.3108,2.3108,2.3108,2.3108,2.3108,2.3108,2.3108,2.3108,2.3108,2.3108,2.3108,2.3108,2.3108,2.2719,2.2393,2.2322,2.2684,2.2848,2.2614,2.3339,2.3744,2.361,2.3595,2.3595,2.3595,2.3595,2.3595,2.3595,2.3595,2.3595,2.3595,2.3595,2.3879,2.441,2.4511,2.507,0.0,0.0,0.0,0.0,1.1256,0.0,0.0,0.0,0.9166,0.0,0.0,0.0,0.0,0.0,0.0,0.0,0.0,0.0,0.0,0.0,0.0,0.0,0.0,0.0,0.0,0.0,0.0,0.0,1.7447,1.6967,1.7804,1.816,1.8041,1.736,1.6961,1.6929,1.7305,1.7363,1.7568,1.7939,1.7988,1.8008,1.8008,1.8008,1.8008,1.8037,1.8373,1.8529,1.8559,1.9033,1.9219,1.9219,1.9219,1.9219,1.9219,1.9268,1.9521,1.9785,1.9414,1.9531,1.9785,1.9404,1.9287,1.9277,1.9228,1.918,1.9062,1.8637,1.9103,1.9643,1.9503,2.059,2.1815,2.2002,2.2567,2.3108,2.3108,2.3108,2.3108,2.3108,2.3108,2.3108,2.3108,2.3108,2.3108,2.3108,2.3108,2.3108,2.3108,2.3045,2.2832,2.2359,2.3429,2.3758,2.2696,2.3775,2.4231,2.364,2.3595,2.3595,2.3595,2.3595,2.3595,2.3595,2.3595,2.3595,2.3595,2.3595,2.3879,2.441,2.4891,2.543,0.0,0.0,0.0,0.0,0.0,0.0,0.8843,0.0,0.807,0.0,0.0,0.0,0.0,0.0,0.0,0.0,0.0,0.0,0.0,0.0,0.0,0.0,0.0,0.0,0.0,0.0,0.0,0.0,0.0,1.6172,1.7532,1.7387,1.7365,1.7529,1.6996,1.7028,1.7744,1.7744,1.7832,1.8008,1.8008,1.8008,1.8008,1.8008,1.8144,1.8354,1.8529,1.8744,1.9053,1.9473,1.9648,1.9678,1.9969,1.9873,1.9678,1.9932,2.0175,2.0264,2.0126,2.0146,2.0264,2.0126,1.9863,1.9648,1.9648,1.9902,2.0129,1.9935,2.0294,2.0841,2.1203,2.1586,2.2002,2.2476,2.2854,2.3108,2.3108,2.3108,2.3108,2.3108,2.3108,2.3108,2.3108,2.3108,2.3108,2.3108,2.3108,2.3108,2.3108,2.3108,2.3007,2.2782,2.3748,2.4185,2.3689,2.4602,2.4889,2.4216,2.3819,2.3595,2.3595,2.3595,2.3595,2.3595,2.3595,2.3595,2.3595,2.3921,2.4348,2.4855,2.5105,2.5635,1.1301,0.0,0.0,0.0,0.0,0.0,0.0,0.0,0.0,0.0,0.0,0.0,0.0,0.0,0.0,0.0,0.0,0.0,0.0,0.0,0.0,0.0,0.0,0.0,0.0,0.0,0.0,0.0,0.0,0.0,1.6894,1.6796,1.6929,1.7472,1.7111,1.7266,1.8008,1.8008,1.8008,1.8008,1.8008,1.8008,1.8018,1.8091,1.8315,1.8617,1.8851,1.917,1.9492,1.9922,2.0088,2.0127,2.0478,2.041,2.0127,2.0488,2.0605,2.0605,2.0605,2.0605,2.0605,2.0605,2.0352,2.0088,2.0088,2.0562,2.1102,2.1012,2.1565,2.227,2.2781,2.2719,2.2615,2.3212,2.3221,2.3108,2.3108,2.3108,2.3108,2.3108,2.3108,2.3108,2.3108,2.3108,2.3108,2.3108,2.3108,2.3108,2.3108,2.3108,2.3108,2.3108,2.3841,2.4368,2.4405,2.5124,2.5373,2.4896,2.4231,2.3879,2.3879,2.3699,2.3595,2.3595,2.3595,2.3595,2.3595,2.4137,2.4692,2.5202,2.5354,2.589,0.0,0.0,0.0,1.0124,0.0,0.0,0.0,0.0,0.8654,0.0,0.0,0.0,0.0,0.0,0.0,0.0,0.0,0.0,0.0,0.0,0.0,0.0,0.0,0.0,0.0,0.0,0.0,0.0,0.0,0.0,0.0,1.657,1.7031,1.6741,1.7139,1.7568,1.8008,1.8008,1.8008,1.8008,1.8008,1.8008,1.8018,1.8393,1.8588,1.8646,1.9475,1.9883,1.9932,2.0361,2.0586,2.0586,2.0595,2.0595,2.0586,2.0595,2.0605,2.0605,2.0605,2.0605,2.0605,2.0605,2.0595,2.0586,2.0586,2.1229,2.1891,2.1497,2.2693,2.4019,2.3587,2.3704,2.3935,2.3966,2.354,2.3108,2.3108,2.3108,2.3108,2.3108,2.3108,2.3108,2.3108,2.3108,2.3108,2.3108,2.3108,2.3108,2.3108,2.3108,2.3108,2.3108,2.3813,2.4328,2.4393,2.5076,2.5504,2.5568,2.4933,2.4575,2.4575,2.3954,2.3595,2.3595,2.3595,2.3595,2.3595,2.4137,2.4692,2.5221,2.5726,2.6244,0.0,0.0,1.4379,1.1338,0.0,0.0,0.0,0.0,0.0,0.0,0.0,0.0,0.0,0.0,0.0,0.0,0.0,0.0,0.0,0.0,0.0,0.0,0.0,0.0,0.0,0.0,0.0,0.0,0.0,0.0,0.0,1.5781,1.6237,1.6677,1.6843,1.7295,1.8008,1.8008,1.8008,1.8018,1.8256,1.8393,1.8403,1.8867,1.9219,1.9502,1.9785,2.0078,2.04,2.0546,2.0605,2.0605,2.0605,2.0605,2.0605,2.0605,2.0605,2.0605,2.0605,2.0605,2.0605,2.0605,2.0605,2.0605,2.0605,2.126,2.2109,2.2655,2.3484,2.4321,2.4783,2.4693,2.4456,2.4092,2.3853,2.3602,2.3195,2.3108,2.3108,2.3108,2.3108,2.3108,2.3108,2.3108,2.3108,2.3108,2.3108,2.3108,2.3108,2.3108,2.3108,2.3108,2.3826,2.4515,2.5012,2.5776,2.6224,2.6249,2.5621,2.5053,2.4619,2.438,2.4036,2.361,2.3595,2.3595,2.3595,2.4491,2.5012,2.5221,2.607,2.6556,1.5225,1.5313,0.0,1.2599,1.1972,0.0,0.884,0.0,0.0,0.0,0.0,0.0,0.0,0.0,0.0,0.0,0.0,0.0,0.0,0.0,0.0,0.0,0.0,0.0,0.0,0.0,0.0,0.0,0.0,0.0,0.0,0.0,1.5977,1.6677,1.6853,1.7305,1.8008,1.8008,1.8086,1.8208,1.8471,1.8685,1.8851,1.9316,1.9658,1.9922,2.0078,2.0303,2.0605,2.0605,2.0605,2.0605,2.0605,2.0605,2.0605,2.0605,2.0605,2.0605,2.0605,2.0605,2.0605,2.0605,2.0605,2.0605,2.0605,2.126,2.2109,2.2607,2.3598,2.4596,2.5007,2.5104,2.5008,2.4657,2.428,2.3891,2.3496,2.3246,2.3108,2.3108,2.3108,2.3108,2.3108,2.3108,2.3108,2.3108,2.3108,2.3108,2.3108,2.3108,2.3108,2.3108,2.356,2.4279,2.5315,2.6355,2.6971,2.6971,2.6318,2.5764,2.5322,2.4844,2.4395,2.3947,2.3729,2.3702,2.39,2.4592,2.5125,2.5503,2.6157,2.6556]}]]